<?xml version="1.0" encoding="UTF-8" standalone="no" ?>
<gpx xmlns="http://www.topografix.com/GPX/1/1" xmlns:xsi="http://www.w3.org/2001/XMLSchema-instance" xsi:schemaLocation="http://www.topografix.com/GPX/1/1 http://www.topografix.com/GPX/1/1/gpx.xsd" version="1.1" creator="VisuGPX - https://www.visugpx.com">
  <metadata>
    <name>reprise aprés confinement</name>
    <desc><![CDATA[reprise aprés confinement autour de pellautier avec Michel , christian, Vincent, Jean-Marie et plus]]></desc>
  </metadata>
  <trk>
    <name><![CDATA[reprise aprés confinement_1]]></name>
    <trkseg>
      <trkpt lat="44.52307" lon="6.00708">
        <ele>1035</ele>
        <time>2020-05-12T06:48:13Z</time>
      </trkpt>
      <trkpt lat="44.52314" lon="6.00699">
        <ele>1025</ele>
        <time>2020-05-12T06:48:19Z</time>
      </trkpt>
      <trkpt lat="44.52313" lon="6.00699">
        <ele>1027</ele>
        <time>2020-05-12T06:48:24Z</time>
      </trkpt>
      <trkpt lat="44.52314" lon="6.00699">
        <ele>1027</ele>
        <time>2020-05-12T06:48:29Z</time>
      </trkpt>
      <trkpt lat="44.52314" lon="6.00699">
        <ele>1027</ele>
        <time>2020-05-12T06:48:35Z</time>
      </trkpt>
      <trkpt lat="44.52315" lon="6.00699">
        <ele>1031</ele>
        <time>2020-05-12T06:48:41Z</time>
      </trkpt>
      <trkpt lat="44.52315" lon="6.00697">
        <ele>1031</ele>
        <time>2020-05-12T06:48:46Z</time>
      </trkpt>
      <trkpt lat="44.52313" lon="6.00696">
        <ele>1031</ele>
        <time>2020-05-12T06:48:51Z</time>
      </trkpt>
      <trkpt lat="44.52313" lon="6.00704">
        <ele>1027</ele>
        <time>2020-05-12T06:48:56Z</time>
      </trkpt>
      <trkpt lat="44.52313" lon="6.00702">
        <ele>1024</ele>
        <time>2020-05-12T06:49:02Z</time>
      </trkpt>
      <trkpt lat="44.52313" lon="6.00703">
        <ele>1023</ele>
        <time>2020-05-12T06:49:08Z</time>
      </trkpt>
      <trkpt lat="44.52313" lon="6.00703">
        <ele>1023</ele>
        <time>2020-05-12T06:49:14Z</time>
      </trkpt>
      <trkpt lat="44.52313" lon="6.00703">
        <ele>1024</ele>
        <time>2020-05-12T06:49:20Z</time>
      </trkpt>
      <trkpt lat="44.52313" lon="6.00703">
        <ele>1024</ele>
        <time>2020-05-12T06:49:26Z</time>
      </trkpt>
      <trkpt lat="44.52312" lon="6.00704">
        <ele>1024</ele>
        <time>2020-05-12T06:49:32Z</time>
      </trkpt>
      <trkpt lat="44.52312" lon="6.00705">
        <ele>1023</ele>
        <time>2020-05-12T06:49:37Z</time>
      </trkpt>
      <trkpt lat="44.52312" lon="6.00705">
        <ele>1023</ele>
        <time>2020-05-12T06:49:43Z</time>
      </trkpt>
      <trkpt lat="44.52312" lon="6.00705">
        <ele>1023</ele>
        <time>2020-05-12T06:49:49Z</time>
      </trkpt>
      <trkpt lat="44.52312" lon="6.00705">
        <ele>1023</ele>
        <time>2020-05-12T06:49:54Z</time>
      </trkpt>
      <trkpt lat="44.52312" lon="6.00705">
        <ele>1023</ele>
        <time>2020-05-12T06:49:59Z</time>
      </trkpt>
      <trkpt lat="44.52312" lon="6.00705">
        <ele>1023</ele>
        <time>2020-05-12T06:50:04Z</time>
      </trkpt>
      <trkpt lat="44.52313" lon="6.00705">
        <ele>1023</ele>
        <time>2020-05-12T06:50:10Z</time>
      </trkpt>
      <trkpt lat="44.52314" lon="6.00705">
        <ele>1024</ele>
        <time>2020-05-12T06:50:15Z</time>
      </trkpt>
      <trkpt lat="44.52314" lon="6.00706">
        <ele>1024</ele>
        <time>2020-05-12T06:50:22Z</time>
      </trkpt>
      <trkpt lat="44.52314" lon="6.00706">
        <ele>1024</ele>
        <time>2020-05-12T06:50:28Z</time>
      </trkpt>
      <trkpt lat="44.52314" lon="6.00706">
        <ele>1023</ele>
        <time>2020-05-12T06:50:33Z</time>
      </trkpt>
      <trkpt lat="44.52314" lon="6.00705">
        <ele>1023</ele>
        <time>2020-05-12T06:50:39Z</time>
      </trkpt>
      <trkpt lat="44.52314" lon="6.00704">
        <ele>1025</ele>
        <time>2020-05-12T06:50:44Z</time>
      </trkpt>
      <trkpt lat="44.52314" lon="6.00705">
        <ele>1025</ele>
        <time>2020-05-12T06:50:49Z</time>
      </trkpt>
      <trkpt lat="44.52314" lon="6.00704">
        <ele>1025</ele>
        <time>2020-05-12T06:50:55Z</time>
      </trkpt>
      <trkpt lat="44.52314" lon="6.00705">
        <ele>1026</ele>
        <time>2020-05-12T06:51:00Z</time>
      </trkpt>
      <trkpt lat="44.52315" lon="6.00704">
        <ele>1028</ele>
        <time>2020-05-12T06:51:05Z</time>
      </trkpt>
      <trkpt lat="44.52314" lon="6.00704">
        <ele>1027</ele>
        <time>2020-05-12T06:51:10Z</time>
      </trkpt>
      <trkpt lat="44.52314" lon="6.00704">
        <ele>1027</ele>
        <time>2020-05-12T06:51:16Z</time>
      </trkpt>
      <trkpt lat="44.52314" lon="6.00704">
        <ele>1027</ele>
        <time>2020-05-12T06:51:22Z</time>
      </trkpt>
      <trkpt lat="44.52314" lon="6.00704">
        <ele>1027</ele>
        <time>2020-05-12T06:51:28Z</time>
      </trkpt>
      <trkpt lat="44.52314" lon="6.00703">
        <ele>1028</ele>
        <time>2020-05-12T06:51:34Z</time>
      </trkpt>
      <trkpt lat="44.52316" lon="6.00703">
        <ele>1028</ele>
        <time>2020-05-12T06:51:40Z</time>
      </trkpt>
      <trkpt lat="44.52316" lon="6.00703">
        <ele>1028</ele>
        <time>2020-05-12T06:51:45Z</time>
      </trkpt>
      <trkpt lat="44.52316" lon="6.00703">
        <ele>1028</ele>
        <time>2020-05-12T06:51:51Z</time>
      </trkpt>
      <trkpt lat="44.52316" lon="6.00703">
        <ele>1028</ele>
        <time>2020-05-12T06:51:57Z</time>
      </trkpt>
      <trkpt lat="44.52316" lon="6.00703">
        <ele>1028</ele>
        <time>2020-05-12T06:52:03Z</time>
      </trkpt>
      <trkpt lat="44.52315" lon="6.00703">
        <ele>1028</ele>
        <time>2020-05-12T06:52:09Z</time>
      </trkpt>
      <trkpt lat="44.52315" lon="6.00703">
        <ele>1028</ele>
        <time>2020-05-12T06:52:14Z</time>
      </trkpt>
      <trkpt lat="44.52315" lon="6.00703">
        <ele>1028</ele>
        <time>2020-05-12T06:52:19Z</time>
      </trkpt>
      <trkpt lat="44.52315" lon="6.00703">
        <ele>1028</ele>
        <time>2020-05-12T06:52:25Z</time>
      </trkpt>
      <trkpt lat="44.52315" lon="6.00703">
        <ele>1028</ele>
        <time>2020-05-12T06:52:30Z</time>
      </trkpt>
      <trkpt lat="44.52315" lon="6.00703">
        <ele>1028</ele>
        <time>2020-05-12T06:52:35Z</time>
      </trkpt>
      <trkpt lat="44.52315" lon="6.00703">
        <ele>1028</ele>
        <time>2020-05-12T06:52:41Z</time>
      </trkpt>
      <trkpt lat="44.52315" lon="6.00703">
        <ele>1028</ele>
        <time>2020-05-12T06:52:46Z</time>
      </trkpt>
      <trkpt lat="44.52315" lon="6.00703">
        <ele>1027</ele>
        <time>2020-05-12T06:52:52Z</time>
      </trkpt>
      <trkpt lat="44.52314" lon="6.00703">
        <ele>1028</ele>
        <time>2020-05-12T06:52:58Z</time>
      </trkpt>
      <trkpt lat="44.52312" lon="6.0071">
        <ele>1025</ele>
        <time>2020-05-12T06:53:03Z</time>
      </trkpt>
      <trkpt lat="44.52302" lon="6.00714">
        <ele>1024</ele>
        <time>2020-05-12T06:53:09Z</time>
      </trkpt>
      <trkpt lat="44.52294" lon="6.00717">
        <ele>1024</ele>
        <time>2020-05-12T06:53:14Z</time>
      </trkpt>
      <trkpt lat="44.52286" lon="6.00738">
        <ele>1022</ele>
        <time>2020-05-12T06:53:20Z</time>
      </trkpt>
      <trkpt lat="44.52282" lon="6.00771">
        <ele>1018</ele>
        <time>2020-05-12T06:53:26Z</time>
      </trkpt>
      <trkpt lat="44.52302" lon="6.0078">
        <ele>1018</ele>
        <time>2020-05-12T06:53:31Z</time>
      </trkpt>
      <trkpt lat="44.52326" lon="6.00773">
        <ele>1021</ele>
        <time>2020-05-12T06:53:37Z</time>
      </trkpt>
      <trkpt lat="44.52348" lon="6.0076">
        <ele>1024</ele>
        <time>2020-05-12T06:53:42Z</time>
      </trkpt>
      <trkpt lat="44.52373" lon="6.00748">
        <ele>1019</ele>
        <time>2020-05-12T06:53:48Z</time>
      </trkpt>
      <trkpt lat="44.52398" lon="6.00737">
        <ele>1021</ele>
        <time>2020-05-12T06:53:54Z</time>
      </trkpt>
      <trkpt lat="44.52419" lon="6.00726">
        <ele>1020</ele>
        <time>2020-05-12T06:53:59Z</time>
      </trkpt>
      <trkpt lat="44.52445" lon="6.00719">
        <ele>1019</ele>
        <time>2020-05-12T06:54:05Z</time>
      </trkpt>
      <trkpt lat="44.5248" lon="6.00714">
        <ele>1019</ele>
        <time>2020-05-12T06:54:11Z</time>
      </trkpt>
      <trkpt lat="44.52517" lon="6.00719">
        <ele>1019</ele>
        <time>2020-05-12T06:54:17Z</time>
      </trkpt>
      <trkpt lat="44.52546" lon="6.00728">
        <ele>1021</ele>
        <time>2020-05-12T06:54:23Z</time>
      </trkpt>
      <trkpt lat="44.52561" lon="6.00731">
        <ele>1018</ele>
        <time>2020-05-12T06:54:28Z</time>
      </trkpt>
      <trkpt lat="44.52578" lon="6.00737">
        <ele>1018</ele>
        <time>2020-05-12T06:54:34Z</time>
      </trkpt>
      <trkpt lat="44.52596" lon="6.0074">
        <ele>1021</ele>
        <time>2020-05-12T06:54:40Z</time>
      </trkpt>
      <trkpt lat="44.52611" lon="6.0074">
        <ele>1025</ele>
        <time>2020-05-12T06:54:45Z</time>
      </trkpt>
      <trkpt lat="44.5263" lon="6.00738">
        <ele>1028</ele>
        <time>2020-05-12T06:54:51Z</time>
      </trkpt>
      <trkpt lat="44.52648" lon="6.00742">
        <ele>1030</ele>
        <time>2020-05-12T06:54:57Z</time>
      </trkpt>
      <trkpt lat="44.52664" lon="6.00744">
        <ele>1032</ele>
        <time>2020-05-12T06:55:03Z</time>
      </trkpt>
      <trkpt lat="44.52678" lon="6.00744">
        <ele>1030</ele>
        <time>2020-05-12T06:55:09Z</time>
      </trkpt>
      <trkpt lat="44.5269" lon="6.00743">
        <ele>1031</ele>
        <time>2020-05-12T06:55:15Z</time>
      </trkpt>
      <trkpt lat="44.52704" lon="6.00739">
        <ele>1033</ele>
        <time>2020-05-12T06:55:21Z</time>
      </trkpt>
      <trkpt lat="44.52719" lon="6.00734">
        <ele>1037</ele>
        <time>2020-05-12T06:55:27Z</time>
      </trkpt>
      <trkpt lat="44.52731" lon="6.00734">
        <ele>1040</ele>
        <time>2020-05-12T06:55:32Z</time>
      </trkpt>
      <trkpt lat="44.52742" lon="6.00733">
        <ele>1042</ele>
        <time>2020-05-12T06:55:38Z</time>
      </trkpt>
      <trkpt lat="44.52751" lon="6.00733">
        <ele>1046</ele>
        <time>2020-05-12T06:55:43Z</time>
      </trkpt>
      <trkpt lat="44.52759" lon="6.00729">
        <ele>1046</ele>
        <time>2020-05-12T06:55:48Z</time>
      </trkpt>
      <trkpt lat="44.52771" lon="6.00719">
        <ele>1047</ele>
        <time>2020-05-12T06:55:54Z</time>
      </trkpt>
      <trkpt lat="44.52785" lon="6.00718">
        <ele>1051</ele>
        <time>2020-05-12T06:56:00Z</time>
      </trkpt>
      <trkpt lat="44.52799" lon="6.00714">
        <ele>1047</ele>
        <time>2020-05-12T06:56:05Z</time>
      </trkpt>
      <trkpt lat="44.52809" lon="6.00704">
        <ele>1049</ele>
        <time>2020-05-12T06:56:11Z</time>
      </trkpt>
      <trkpt lat="44.52812" lon="6.00692">
        <ele>1050</ele>
        <time>2020-05-12T06:56:16Z</time>
      </trkpt>
      <trkpt lat="44.52813" lon="6.00684">
        <ele>1051</ele>
        <time>2020-05-12T06:56:22Z</time>
      </trkpt>
      <trkpt lat="44.52815" lon="6.0067">
        <ele>1050</ele>
        <time>2020-05-12T06:56:28Z</time>
      </trkpt>
      <trkpt lat="44.52821" lon="6.00661">
        <ele>1052</ele>
        <time>2020-05-12T06:56:33Z</time>
      </trkpt>
      <trkpt lat="44.52834" lon="6.00646">
        <ele>1051</ele>
        <time>2020-05-12T06:56:39Z</time>
      </trkpt>
      <trkpt lat="44.52848" lon="6.00639">
        <ele>1052</ele>
        <time>2020-05-12T06:56:44Z</time>
      </trkpt>
      <trkpt lat="44.52868" lon="6.00625">
        <ele>1054</ele>
        <time>2020-05-12T06:56:50Z</time>
      </trkpt>
      <trkpt lat="44.52888" lon="6.00611">
        <ele>1052</ele>
        <time>2020-05-12T06:56:56Z</time>
      </trkpt>
      <trkpt lat="44.52904" lon="6.00591">
        <ele>1051</ele>
        <time>2020-05-12T06:57:02Z</time>
      </trkpt>
      <trkpt lat="44.52918" lon="6.00575">
        <ele>1059</ele>
        <time>2020-05-12T06:57:07Z</time>
      </trkpt>
      <trkpt lat="44.52939" lon="6.00557">
        <ele>1058</ele>
        <time>2020-05-12T06:57:13Z</time>
      </trkpt>
      <trkpt lat="44.52958" lon="6.00535">
        <ele>1054</ele>
        <time>2020-05-12T06:57:19Z</time>
      </trkpt>
      <trkpt lat="44.52971" lon="6.00517">
        <ele>1048</ele>
        <time>2020-05-12T06:57:24Z</time>
      </trkpt>
      <trkpt lat="44.52984" lon="6.00497">
        <ele>1049</ele>
        <time>2020-05-12T06:57:30Z</time>
      </trkpt>
      <trkpt lat="44.52971" lon="6.00485">
        <ele>1053</ele>
        <time>2020-05-12T06:57:35Z</time>
      </trkpt>
      <trkpt lat="44.52955" lon="6.00474">
        <ele>1056</ele>
        <time>2020-05-12T06:57:40Z</time>
      </trkpt>
      <trkpt lat="44.52942" lon="6.00453">
        <ele>1061</ele>
        <time>2020-05-12T06:57:46Z</time>
      </trkpt>
      <trkpt lat="44.52932" lon="6.00432">
        <ele>1062</ele>
        <time>2020-05-12T06:57:52Z</time>
      </trkpt>
      <trkpt lat="44.52922" lon="6.00415">
        <ele>1062</ele>
        <time>2020-05-12T06:57:58Z</time>
      </trkpt>
      <trkpt lat="44.52909" lon="6.004">
        <ele>1067</ele>
        <time>2020-05-12T06:58:04Z</time>
      </trkpt>
      <trkpt lat="44.52898" lon="6.00392">
        <ele>1066</ele>
        <time>2020-05-12T06:58:09Z</time>
      </trkpt>
      <trkpt lat="44.52889" lon="6.0039">
        <ele>1068</ele>
        <time>2020-05-12T06:58:14Z</time>
      </trkpt>
      <trkpt lat="44.52878" lon="6.00391">
        <ele>1072</ele>
        <time>2020-05-12T06:58:20Z</time>
      </trkpt>
      <trkpt lat="44.52867" lon="6.00393">
        <ele>1077</ele>
        <time>2020-05-12T06:58:25Z</time>
      </trkpt>
      <trkpt lat="44.52853" lon="6.00389">
        <ele>1079</ele>
        <time>2020-05-12T06:58:31Z</time>
      </trkpt>
      <trkpt lat="44.52839" lon="6.00384">
        <ele>1080</ele>
        <time>2020-05-12T06:58:37Z</time>
      </trkpt>
      <trkpt lat="44.52826" lon="6.0038">
        <ele>1086</ele>
        <time>2020-05-12T06:58:43Z</time>
      </trkpt>
      <trkpt lat="44.52812" lon="6.00375">
        <ele>1086</ele>
        <time>2020-05-12T06:58:48Z</time>
      </trkpt>
      <trkpt lat="44.52798" lon="6.00374">
        <ele>1088</ele>
        <time>2020-05-12T06:58:53Z</time>
      </trkpt>
      <trkpt lat="44.52785" lon="6.00372">
        <ele>1090</ele>
        <time>2020-05-12T06:58:58Z</time>
      </trkpt>
      <trkpt lat="44.52765" lon="6.00369">
        <ele>1089</ele>
        <time>2020-05-12T06:59:04Z</time>
      </trkpt>
      <trkpt lat="44.52749" lon="6.00365">
        <ele>1091</ele>
        <time>2020-05-12T06:59:09Z</time>
      </trkpt>
      <trkpt lat="44.52735" lon="6.00364">
        <ele>1094</ele>
        <time>2020-05-12T06:59:14Z</time>
      </trkpt>
      <trkpt lat="44.52723" lon="6.00359">
        <ele>1095</ele>
        <time>2020-05-12T06:59:20Z</time>
      </trkpt>
      <trkpt lat="44.52704" lon="6.00352">
        <ele>1097</ele>
        <time>2020-05-12T06:59:26Z</time>
      </trkpt>
      <trkpt lat="44.52688" lon="6.00347">
        <ele>1097</ele>
        <time>2020-05-12T06:59:31Z</time>
      </trkpt>
      <trkpt lat="44.52669" lon="6.00337">
        <ele>1096</ele>
        <time>2020-05-12T06:59:37Z</time>
      </trkpt>
      <trkpt lat="44.52653" lon="6.00329">
        <ele>1096</ele>
        <time>2020-05-12T06:59:42Z</time>
      </trkpt>
      <trkpt lat="44.52641" lon="6.00323">
        <ele>1098</ele>
        <time>2020-05-12T06:59:47Z</time>
      </trkpt>
      <trkpt lat="44.5263" lon="6.00314">
        <ele>1099</ele>
        <time>2020-05-12T06:59:53Z</time>
      </trkpt>
      <trkpt lat="44.52639" lon="6.00314">
        <ele>1097</ele>
        <time>2020-05-12T06:59:58Z</time>
      </trkpt>
      <trkpt lat="44.52654" lon="6.00318">
        <ele>1096</ele>
        <time>2020-05-12T07:00:03Z</time>
      </trkpt>
      <trkpt lat="44.52673" lon="6.00318">
        <ele>1095</ele>
        <time>2020-05-12T07:00:09Z</time>
      </trkpt>
      <trkpt lat="44.52687" lon="6.00316">
        <ele>1096</ele>
        <time>2020-05-12T07:00:14Z</time>
      </trkpt>
      <trkpt lat="44.52702" lon="6.00311">
        <ele>1098</ele>
        <time>2020-05-12T07:00:19Z</time>
      </trkpt>
      <trkpt lat="44.52718" lon="6.00302">
        <ele>1099</ele>
        <time>2020-05-12T07:00:25Z</time>
      </trkpt>
      <trkpt lat="44.52736" lon="6.00294">
        <ele>1098</ele>
        <time>2020-05-12T07:00:31Z</time>
      </trkpt>
      <trkpt lat="44.5275" lon="6.00291">
        <ele>1098</ele>
        <time>2020-05-12T07:00:36Z</time>
      </trkpt>
      <trkpt lat="44.52764" lon="6.00276">
        <ele>1097</ele>
        <time>2020-05-12T07:00:42Z</time>
      </trkpt>
      <trkpt lat="44.52776" lon="6.00256">
        <ele>1100</ele>
        <time>2020-05-12T07:00:48Z</time>
      </trkpt>
      <trkpt lat="44.52782" lon="6.00241">
        <ele>1102</ele>
        <time>2020-05-12T07:00:53Z</time>
      </trkpt>
      <trkpt lat="44.52794" lon="6.00223">
        <ele>1103</ele>
        <time>2020-05-12T07:00:59Z</time>
      </trkpt>
      <trkpt lat="44.52807" lon="6.00206">
        <ele>1103</ele>
        <time>2020-05-12T07:01:05Z</time>
      </trkpt>
      <trkpt lat="44.52822" lon="6.00167">
        <ele>1103</ele>
        <time>2020-05-12T07:01:11Z</time>
      </trkpt>
      <trkpt lat="44.52826" lon="6.00136">
        <ele>1103</ele>
        <time>2020-05-12T07:01:16Z</time>
      </trkpt>
      <trkpt lat="44.52833" lon="6.00112">
        <ele>1104</ele>
        <time>2020-05-12T07:01:21Z</time>
      </trkpt>
      <trkpt lat="44.52847" lon="6.00083">
        <ele>1105</ele>
        <time>2020-05-12T07:01:27Z</time>
      </trkpt>
      <trkpt lat="44.52865" lon="6.0006">
        <ele>1104</ele>
        <time>2020-05-12T07:01:33Z</time>
      </trkpt>
      <trkpt lat="44.52883" lon="6.00039">
        <ele>1102</ele>
        <time>2020-05-12T07:01:39Z</time>
      </trkpt>
      <trkpt lat="44.52902" lon="6.0002">
        <ele>1101</ele>
        <time>2020-05-12T07:01:45Z</time>
      </trkpt>
      <trkpt lat="44.5292" lon="6.00002">
        <ele>1099</ele>
        <time>2020-05-12T07:01:51Z</time>
      </trkpt>
      <trkpt lat="44.52936" lon="5.99986">
        <ele>1100</ele>
        <time>2020-05-12T07:01:56Z</time>
      </trkpt>
      <trkpt lat="44.52957" lon="5.99958">
        <ele>1096</ele>
        <time>2020-05-12T07:02:02Z</time>
      </trkpt>
      <trkpt lat="44.5298" lon="5.99947">
        <ele>1096</ele>
        <time>2020-05-12T07:02:08Z</time>
      </trkpt>
      <trkpt lat="44.53001" lon="5.99942">
        <ele>1095</ele>
        <time>2020-05-12T07:02:13Z</time>
      </trkpt>
      <trkpt lat="44.53019" lon="5.99921">
        <ele>1092</ele>
        <time>2020-05-12T07:02:18Z</time>
      </trkpt>
      <trkpt lat="44.53018" lon="5.99874">
        <ele>1092</ele>
        <time>2020-05-12T07:02:24Z</time>
      </trkpt>
      <trkpt lat="44.53023" lon="5.99823">
        <ele>1088</ele>
        <time>2020-05-12T07:02:29Z</time>
      </trkpt>
      <trkpt lat="44.53028" lon="5.99774">
        <ele>1088</ele>
        <time>2020-05-12T07:02:34Z</time>
      </trkpt>
      <trkpt lat="44.5303" lon="5.99736">
        <ele>1087</ele>
        <time>2020-05-12T07:02:39Z</time>
      </trkpt>
      <trkpt lat="44.53038" lon="5.99701">
        <ele>1088</ele>
        <time>2020-05-12T07:02:44Z</time>
      </trkpt>
      <trkpt lat="44.53048" lon="5.9966">
        <ele>1089</ele>
        <time>2020-05-12T07:02:50Z</time>
      </trkpt>
      <trkpt lat="44.53053" lon="5.99629">
        <ele>1088</ele>
        <time>2020-05-12T07:02:55Z</time>
      </trkpt>
      <trkpt lat="44.53059" lon="5.99598">
        <ele>1088</ele>
        <time>2020-05-12T07:03:01Z</time>
      </trkpt>
      <trkpt lat="44.53065" lon="5.9957">
        <ele>1087</ele>
        <time>2020-05-12T07:03:07Z</time>
      </trkpt>
      <trkpt lat="44.53068" lon="5.99545">
        <ele>1089</ele>
        <time>2020-05-12T07:03:12Z</time>
      </trkpt>
      <trkpt lat="44.53068" lon="5.99518">
        <ele>1088</ele>
        <time>2020-05-12T07:03:18Z</time>
      </trkpt>
      <trkpt lat="44.53071" lon="5.99502">
        <ele>1089</ele>
        <time>2020-05-12T07:03:23Z</time>
      </trkpt>
      <trkpt lat="44.53069" lon="5.99477">
        <ele>1088</ele>
        <time>2020-05-12T07:03:29Z</time>
      </trkpt>
      <trkpt lat="44.53065" lon="5.99462">
        <ele>1089</ele>
        <time>2020-05-12T07:03:35Z</time>
      </trkpt>
      <trkpt lat="44.53064" lon="5.99456">
        <ele>1089</ele>
        <time>2020-05-12T07:03:41Z</time>
      </trkpt>
      <trkpt lat="44.53063" lon="5.99456">
        <ele>1090</ele>
        <time>2020-05-12T07:03:47Z</time>
      </trkpt>
      <trkpt lat="44.53063" lon="5.99456">
        <ele>1090</ele>
        <time>2020-05-12T07:03:53Z</time>
      </trkpt>
      <trkpt lat="44.53063" lon="5.99456">
        <ele>1090</ele>
        <time>2020-05-12T07:03:58Z</time>
      </trkpt>
      <trkpt lat="44.53063" lon="5.99456">
        <ele>1090</ele>
        <time>2020-05-12T07:04:04Z</time>
      </trkpt>
      <trkpt lat="44.53063" lon="5.99455">
        <ele>1090</ele>
        <time>2020-05-12T07:04:10Z</time>
      </trkpt>
      <trkpt lat="44.53064" lon="5.99455">
        <ele>1090</ele>
        <time>2020-05-12T07:04:15Z</time>
      </trkpt>
      <trkpt lat="44.53064" lon="5.99454">
        <ele>1090</ele>
        <time>2020-05-12T07:04:20Z</time>
      </trkpt>
      <trkpt lat="44.53064" lon="5.99453">
        <ele>1090</ele>
        <time>2020-05-12T07:04:25Z</time>
      </trkpt>
      <trkpt lat="44.53064" lon="5.99451">
        <ele>1092</ele>
        <time>2020-05-12T07:04:31Z</time>
      </trkpt>
      <trkpt lat="44.53064" lon="5.99449">
        <ele>1090</ele>
        <time>2020-05-12T07:04:37Z</time>
      </trkpt>
      <trkpt lat="44.53064" lon="5.99449">
        <ele>1090</ele>
        <time>2020-05-12T07:04:43Z</time>
      </trkpt>
      <trkpt lat="44.53064" lon="5.99449">
        <ele>1090</ele>
        <time>2020-05-12T07:04:48Z</time>
      </trkpt>
      <trkpt lat="44.53063" lon="5.99447">
        <ele>1088</ele>
        <time>2020-05-12T07:04:53Z</time>
      </trkpt>
      <trkpt lat="44.53062" lon="5.99446">
        <ele>1087</ele>
        <time>2020-05-12T07:04:59Z</time>
      </trkpt>
      <trkpt lat="44.53062" lon="5.99447">
        <ele>1088</ele>
        <time>2020-05-12T07:05:05Z</time>
      </trkpt>
      <trkpt lat="44.53062" lon="5.99447">
        <ele>1088</ele>
        <time>2020-05-12T07:05:10Z</time>
      </trkpt>
      <trkpt lat="44.53062" lon="5.99447">
        <ele>1088</ele>
        <time>2020-05-12T07:05:16Z</time>
      </trkpt>
      <trkpt lat="44.53062" lon="5.99447">
        <ele>1088</ele>
        <time>2020-05-12T07:05:21Z</time>
      </trkpt>
      <trkpt lat="44.53062" lon="5.99447">
        <ele>1088</ele>
        <time>2020-05-12T07:05:26Z</time>
      </trkpt>
      <trkpt lat="44.53062" lon="5.99447">
        <ele>1088</ele>
        <time>2020-05-12T07:05:32Z</time>
      </trkpt>
      <trkpt lat="44.53062" lon="5.99447">
        <ele>1088</ele>
        <time>2020-05-12T07:05:37Z</time>
      </trkpt>
      <trkpt lat="44.53062" lon="5.99447">
        <ele>1088</ele>
        <time>2020-05-12T07:05:43Z</time>
      </trkpt>
      <trkpt lat="44.53062" lon="5.99447">
        <ele>1088</ele>
        <time>2020-05-12T07:05:48Z</time>
      </trkpt>
      <trkpt lat="44.5306" lon="5.99444">
        <ele>1091</ele>
        <time>2020-05-12T07:05:53Z</time>
      </trkpt>
      <trkpt lat="44.53056" lon="5.99426">
        <ele>1096</ele>
        <time>2020-05-12T07:05:59Z</time>
      </trkpt>
      <trkpt lat="44.53049" lon="5.99411">
        <ele>1098</ele>
        <time>2020-05-12T07:06:04Z</time>
      </trkpt>
      <trkpt lat="44.53039" lon="5.99396">
        <ele>1096</ele>
        <time>2020-05-12T07:06:09Z</time>
      </trkpt>
      <trkpt lat="44.53025" lon="5.99378">
        <ele>1095</ele>
        <time>2020-05-12T07:06:15Z</time>
      </trkpt>
      <trkpt lat="44.53016" lon="5.99356">
        <ele>1098</ele>
        <time>2020-05-12T07:06:21Z</time>
      </trkpt>
      <trkpt lat="44.53007" lon="5.99338">
        <ele>1099</ele>
        <time>2020-05-12T07:06:26Z</time>
      </trkpt>
      <trkpt lat="44.53003" lon="5.99328">
        <ele>1101</ele>
        <time>2020-05-12T07:06:31Z</time>
      </trkpt>
      <trkpt lat="44.52998" lon="5.99308">
        <ele>1100</ele>
        <time>2020-05-12T07:06:37Z</time>
      </trkpt>
      <trkpt lat="44.52989" lon="5.99291">
        <ele>1101</ele>
        <time>2020-05-12T07:06:42Z</time>
      </trkpt>
      <trkpt lat="44.52983" lon="5.99271">
        <ele>1104</ele>
        <time>2020-05-12T07:06:48Z</time>
      </trkpt>
      <trkpt lat="44.52976" lon="5.99256">
        <ele>1103</ele>
        <time>2020-05-12T07:06:54Z</time>
      </trkpt>
      <trkpt lat="44.52974" lon="5.99252">
        <ele>1099</ele>
        <time>2020-05-12T07:06:59Z</time>
      </trkpt>
      <trkpt lat="44.52979" lon="5.99247">
        <ele>1096</ele>
        <time>2020-05-12T07:07:05Z</time>
      </trkpt>
      <trkpt lat="44.52978" lon="5.99228">
        <ele>1099</ele>
        <time>2020-05-12T07:07:11Z</time>
      </trkpt>
      <trkpt lat="44.52975" lon="5.99216">
        <ele>1100</ele>
        <time>2020-05-12T07:07:16Z</time>
      </trkpt>
      <trkpt lat="44.52967" lon="5.99202">
        <ele>1097</ele>
        <time>2020-05-12T07:07:21Z</time>
      </trkpt>
      <trkpt lat="44.52956" lon="5.99185">
        <ele>1101</ele>
        <time>2020-05-12T07:07:27Z</time>
      </trkpt>
      <trkpt lat="44.52951" lon="5.9917">
        <ele>1104</ele>
        <time>2020-05-12T07:07:33Z</time>
      </trkpt>
      <trkpt lat="44.52941" lon="5.99153">
        <ele>1107</ele>
        <time>2020-05-12T07:07:39Z</time>
      </trkpt>
      <trkpt lat="44.52934" lon="5.9914">
        <ele>1107</ele>
        <time>2020-05-12T07:07:44Z</time>
      </trkpt>
      <trkpt lat="44.52929" lon="5.99128">
        <ele>1107</ele>
        <time>2020-05-12T07:07:49Z</time>
      </trkpt>
      <trkpt lat="44.52916" lon="5.99115">
        <ele>1107</ele>
        <time>2020-05-12T07:07:55Z</time>
      </trkpt>
      <trkpt lat="44.52905" lon="5.99101">
        <ele>1107</ele>
        <time>2020-05-12T07:08:00Z</time>
      </trkpt>
      <trkpt lat="44.52901" lon="5.99066">
        <ele>1107</ele>
        <time>2020-05-12T07:08:06Z</time>
      </trkpt>
      <trkpt lat="44.52915" lon="5.99024">
        <ele>1105</ele>
        <time>2020-05-12T07:08:12Z</time>
      </trkpt>
      <trkpt lat="44.52938" lon="5.99022">
        <ele>1106</ele>
        <time>2020-05-12T07:08:17Z</time>
      </trkpt>
      <trkpt lat="44.52958" lon="5.99011">
        <ele>1105</ele>
        <time>2020-05-12T07:08:23Z</time>
      </trkpt>
      <trkpt lat="44.52972" lon="5.99005">
        <ele>1105</ele>
        <time>2020-05-12T07:08:28Z</time>
      </trkpt>
      <trkpt lat="44.52987" lon="5.98994">
        <ele>1107</ele>
        <time>2020-05-12T07:08:33Z</time>
      </trkpt>
      <trkpt lat="44.53003" lon="5.98983">
        <ele>1103</ele>
        <time>2020-05-12T07:08:38Z</time>
      </trkpt>
      <trkpt lat="44.53018" lon="5.9897">
        <ele>1103</ele>
        <time>2020-05-12T07:08:43Z</time>
      </trkpt>
      <trkpt lat="44.53032" lon="5.98955">
        <ele>1106</ele>
        <time>2020-05-12T07:08:49Z</time>
      </trkpt>
      <trkpt lat="44.53039" lon="5.98942">
        <ele>1106</ele>
        <time>2020-05-12T07:08:55Z</time>
      </trkpt>
      <trkpt lat="44.53047" lon="5.98933">
        <ele>1100</ele>
        <time>2020-05-12T07:09:00Z</time>
      </trkpt>
      <trkpt lat="44.53057" lon="5.98914">
        <ele>1102</ele>
        <time>2020-05-12T07:09:06Z</time>
      </trkpt>
      <trkpt lat="44.53067" lon="5.98888">
        <ele>1101</ele>
        <time>2020-05-12T07:09:12Z</time>
      </trkpt>
      <trkpt lat="44.5308" lon="5.98867">
        <ele>1107</ele>
        <time>2020-05-12T07:09:18Z</time>
      </trkpt>
      <trkpt lat="44.53089" lon="5.98844">
        <ele>1109</ele>
        <time>2020-05-12T07:09:24Z</time>
      </trkpt>
      <trkpt lat="44.53092" lon="5.98816">
        <ele>1109</ele>
        <time>2020-05-12T07:09:30Z</time>
      </trkpt>
      <trkpt lat="44.53094" lon="5.988">
        <ele>1110</ele>
        <time>2020-05-12T07:09:36Z</time>
      </trkpt>
      <trkpt lat="44.53096" lon="5.98782">
        <ele>1115</ele>
        <time>2020-05-12T07:09:42Z</time>
      </trkpt>
      <trkpt lat="44.53097" lon="5.98768">
        <ele>1115</ele>
        <time>2020-05-12T07:09:47Z</time>
      </trkpt>
      <trkpt lat="44.531" lon="5.98741">
        <ele>1115</ele>
        <time>2020-05-12T07:09:52Z</time>
      </trkpt>
      <trkpt lat="44.53102" lon="5.98699">
        <ele>1115</ele>
        <time>2020-05-12T07:09:58Z</time>
      </trkpt>
      <trkpt lat="44.5311" lon="5.98671">
        <ele>1119</ele>
        <time>2020-05-12T07:10:03Z</time>
      </trkpt>
      <trkpt lat="44.53112" lon="5.9866">
        <ele>1118</ele>
        <time>2020-05-12T07:10:09Z</time>
      </trkpt>
      <trkpt lat="44.53119" lon="5.98649">
        <ele>1115</ele>
        <time>2020-05-12T07:10:14Z</time>
      </trkpt>
      <trkpt lat="44.53127" lon="5.98632">
        <ele>1112</ele>
        <time>2020-05-12T07:10:20Z</time>
      </trkpt>
      <trkpt lat="44.53138" lon="5.98604">
        <ele>1109</ele>
        <time>2020-05-12T07:10:26Z</time>
      </trkpt>
      <trkpt lat="44.53143" lon="5.9858">
        <ele>1109</ele>
        <time>2020-05-12T07:10:31Z</time>
      </trkpt>
      <trkpt lat="44.53152" lon="5.9856">
        <ele>1112</ele>
        <time>2020-05-12T07:10:36Z</time>
      </trkpt>
      <trkpt lat="44.53163" lon="5.98542">
        <ele>1111</ele>
        <time>2020-05-12T07:10:42Z</time>
      </trkpt>
      <trkpt lat="44.53166" lon="5.98522">
        <ele>1117</ele>
        <time>2020-05-12T07:10:47Z</time>
      </trkpt>
      <trkpt lat="44.5317" lon="5.98503">
        <ele>1116</ele>
        <time>2020-05-12T07:10:53Z</time>
      </trkpt>
      <trkpt lat="44.53174" lon="5.98478">
        <ele>1115</ele>
        <time>2020-05-12T07:10:59Z</time>
      </trkpt>
      <trkpt lat="44.53184" lon="5.98445">
        <ele>1116</ele>
        <time>2020-05-12T07:11:05Z</time>
      </trkpt>
      <trkpt lat="44.5319" lon="5.98423">
        <ele>1117</ele>
        <time>2020-05-12T07:11:11Z</time>
      </trkpt>
      <trkpt lat="44.53192" lon="5.98404">
        <ele>1114</ele>
        <time>2020-05-12T07:11:16Z</time>
      </trkpt>
      <trkpt lat="44.53196" lon="5.98376">
        <ele>1119</ele>
        <time>2020-05-12T07:11:22Z</time>
      </trkpt>
      <trkpt lat="44.53196" lon="5.98344">
        <ele>1123</ele>
        <time>2020-05-12T07:11:27Z</time>
      </trkpt>
      <trkpt lat="44.53193" lon="5.9831">
        <ele>1123</ele>
        <time>2020-05-12T07:11:32Z</time>
      </trkpt>
      <trkpt lat="44.53197" lon="5.98286">
        <ele>1126</ele>
        <time>2020-05-12T07:11:37Z</time>
      </trkpt>
      <trkpt lat="44.53201" lon="5.9826">
        <ele>1127</ele>
        <time>2020-05-12T07:11:42Z</time>
      </trkpt>
      <trkpt lat="44.53202" lon="5.98235">
        <ele>1126</ele>
        <time>2020-05-12T07:11:48Z</time>
      </trkpt>
      <trkpt lat="44.53208" lon="5.9821">
        <ele>1133</ele>
        <time>2020-05-12T07:11:54Z</time>
      </trkpt>
      <trkpt lat="44.53206" lon="5.9818">
        <ele>1133</ele>
        <time>2020-05-12T07:12:00Z</time>
      </trkpt>
      <trkpt lat="44.53202" lon="5.98152">
        <ele>1133</ele>
        <time>2020-05-12T07:12:06Z</time>
      </trkpt>
      <trkpt lat="44.53194" lon="5.98134">
        <ele>1134</ele>
        <time>2020-05-12T07:12:12Z</time>
      </trkpt>
      <trkpt lat="44.53187" lon="5.98126">
        <ele>1133</ele>
        <time>2020-05-12T07:12:18Z</time>
      </trkpt>
      <trkpt lat="44.53182" lon="5.98126">
        <ele>1132</ele>
        <time>2020-05-12T07:12:24Z</time>
      </trkpt>
      <trkpt lat="44.5318" lon="5.98125">
        <ele>1130</ele>
        <time>2020-05-12T07:12:29Z</time>
      </trkpt>
      <trkpt lat="44.5318" lon="5.98124">
        <ele>1131</ele>
        <time>2020-05-12T07:12:34Z</time>
      </trkpt>
      <trkpt lat="44.53179" lon="5.98124">
        <ele>1131</ele>
        <time>2020-05-12T07:12:39Z</time>
      </trkpt>
      <trkpt lat="44.5318" lon="5.98123">
        <ele>1132</ele>
        <time>2020-05-12T07:12:44Z</time>
      </trkpt>
      <trkpt lat="44.5318" lon="5.98123">
        <ele>1129</ele>
        <time>2020-05-12T07:12:50Z</time>
      </trkpt>
      <trkpt lat="44.5318" lon="5.98123">
        <ele>1129</ele>
        <time>2020-05-12T07:12:56Z</time>
      </trkpt>
      <trkpt lat="44.5318" lon="5.98123">
        <ele>1130</ele>
        <time>2020-05-12T07:13:02Z</time>
      </trkpt>
      <trkpt lat="44.5318" lon="5.98123">
        <ele>1130</ele>
        <time>2020-05-12T07:13:07Z</time>
      </trkpt>
      <trkpt lat="44.5318" lon="5.98123">
        <ele>1130</ele>
        <time>2020-05-12T07:13:12Z</time>
      </trkpt>
      <trkpt lat="44.5318" lon="5.98122">
        <ele>1130</ele>
        <time>2020-05-12T07:13:18Z</time>
      </trkpt>
      <trkpt lat="44.53179" lon="5.98121">
        <ele>1131</ele>
        <time>2020-05-12T07:13:24Z</time>
      </trkpt>
      <trkpt lat="44.53179" lon="5.98121">
        <ele>1131</ele>
        <time>2020-05-12T07:13:30Z</time>
      </trkpt>
      <trkpt lat="44.53179" lon="5.98121">
        <ele>1131</ele>
        <time>2020-05-12T07:13:36Z</time>
      </trkpt>
      <trkpt lat="44.53179" lon="5.98121">
        <ele>1132</ele>
        <time>2020-05-12T07:13:42Z</time>
      </trkpt>
      <trkpt lat="44.53179" lon="5.98121">
        <ele>1132</ele>
        <time>2020-05-12T07:13:47Z</time>
      </trkpt>
      <trkpt lat="44.53178" lon="5.9812">
        <ele>1131</ele>
        <time>2020-05-12T07:13:53Z</time>
      </trkpt>
      <trkpt lat="44.53172" lon="5.98111">
        <ele>1131</ele>
        <time>2020-05-12T07:13:59Z</time>
      </trkpt>
      <trkpt lat="44.53166" lon="5.98099">
        <ele>1132</ele>
        <time>2020-05-12T07:14:04Z</time>
      </trkpt>
      <trkpt lat="44.53157" lon="5.98083">
        <ele>1132</ele>
        <time>2020-05-12T07:14:09Z</time>
      </trkpt>
      <trkpt lat="44.53152" lon="5.98064">
        <ele>1137</ele>
        <time>2020-05-12T07:14:15Z</time>
      </trkpt>
      <trkpt lat="44.53134" lon="5.98056">
        <ele>1137</ele>
        <time>2020-05-12T07:14:21Z</time>
      </trkpt>
      <trkpt lat="44.53121" lon="5.9805">
        <ele>1137</ele>
        <time>2020-05-12T07:14:26Z</time>
      </trkpt>
      <trkpt lat="44.53113" lon="5.98035">
        <ele>1136</ele>
        <time>2020-05-12T07:14:31Z</time>
      </trkpt>
      <trkpt lat="44.53099" lon="5.98026">
        <ele>1139</ele>
        <time>2020-05-12T07:14:37Z</time>
      </trkpt>
      <trkpt lat="44.53087" lon="5.98029">
        <ele>1143</ele>
        <time>2020-05-12T07:14:42Z</time>
      </trkpt>
      <trkpt lat="44.53076" lon="5.98033">
        <ele>1145</ele>
        <time>2020-05-12T07:14:47Z</time>
      </trkpt>
      <trkpt lat="44.53062" lon="5.98042">
        <ele>1142</ele>
        <time>2020-05-12T07:14:53Z</time>
      </trkpt>
      <trkpt lat="44.53058" lon="5.98034">
        <ele>1143</ele>
        <time>2020-05-12T07:14:58Z</time>
      </trkpt>
      <trkpt lat="44.53052" lon="5.9802">
        <ele>1146</ele>
        <time>2020-05-12T07:15:04Z</time>
      </trkpt>
      <trkpt lat="44.5304" lon="5.98011">
        <ele>1149</ele>
        <time>2020-05-12T07:15:10Z</time>
      </trkpt>
      <trkpt lat="44.53028" lon="5.98017">
        <ele>1151</ele>
        <time>2020-05-12T07:15:16Z</time>
      </trkpt>
      <trkpt lat="44.53018" lon="5.9802">
        <ele>1156</ele>
        <time>2020-05-12T07:15:21Z</time>
      </trkpt>
      <trkpt lat="44.5301" lon="5.98026">
        <ele>1158</ele>
        <time>2020-05-12T07:15:26Z</time>
      </trkpt>
      <trkpt lat="44.53001" lon="5.98029">
        <ele>1157</ele>
        <time>2020-05-12T07:15:31Z</time>
      </trkpt>
      <trkpt lat="44.52996" lon="5.98029">
        <ele>1161</ele>
        <time>2020-05-12T07:15:37Z</time>
      </trkpt>
      <trkpt lat="44.52993" lon="5.98027">
        <ele>1160</ele>
        <time>2020-05-12T07:15:43Z</time>
      </trkpt>
      <trkpt lat="44.52991" lon="5.98027">
        <ele>1159</ele>
        <time>2020-05-12T07:15:48Z</time>
      </trkpt>
      <trkpt lat="44.5299" lon="5.98026">
        <ele>1158</ele>
        <time>2020-05-12T07:15:54Z</time>
      </trkpt>
      <trkpt lat="44.5299" lon="5.98026">
        <ele>1158</ele>
        <time>2020-05-12T07:16:00Z</time>
      </trkpt>
      <trkpt lat="44.5299" lon="5.98026">
        <ele>1158</ele>
        <time>2020-05-12T07:16:06Z</time>
      </trkpt>
      <trkpt lat="44.5299" lon="5.98026">
        <ele>1158</ele>
        <time>2020-05-12T07:16:11Z</time>
      </trkpt>
      <trkpt lat="44.5299" lon="5.98026">
        <ele>1158</ele>
        <time>2020-05-12T07:16:17Z</time>
      </trkpt>
      <trkpt lat="44.5299" lon="5.98026">
        <ele>1158</ele>
        <time>2020-05-12T07:16:23Z</time>
      </trkpt>
      <trkpt lat="44.5299" lon="5.98025">
        <ele>1158</ele>
        <time>2020-05-12T07:16:29Z</time>
      </trkpt>
      <trkpt lat="44.5299" lon="5.98025">
        <ele>1157</ele>
        <time>2020-05-12T07:16:35Z</time>
      </trkpt>
      <trkpt lat="44.5299" lon="5.98025">
        <ele>1157</ele>
        <time>2020-05-12T07:16:40Z</time>
      </trkpt>
      <trkpt lat="44.5299" lon="5.98025">
        <ele>1158</ele>
        <time>2020-05-12T07:16:46Z</time>
      </trkpt>
      <trkpt lat="44.5299" lon="5.98025">
        <ele>1158</ele>
        <time>2020-05-12T07:16:52Z</time>
      </trkpt>
      <trkpt lat="44.5299" lon="5.98025">
        <ele>1158</ele>
        <time>2020-05-12T07:16:58Z</time>
      </trkpt>
      <trkpt lat="44.5299" lon="5.98025">
        <ele>1158</ele>
        <time>2020-05-12T07:17:04Z</time>
      </trkpt>
      <trkpt lat="44.5299" lon="5.98025">
        <ele>1157</ele>
        <time>2020-05-12T07:17:10Z</time>
      </trkpt>
      <trkpt lat="44.5299" lon="5.98025">
        <ele>1157</ele>
        <time>2020-05-12T07:17:16Z</time>
      </trkpt>
      <trkpt lat="44.5299" lon="5.98025">
        <ele>1157</ele>
        <time>2020-05-12T07:17:22Z</time>
      </trkpt>
      <trkpt lat="44.5299" lon="5.98025">
        <ele>1157</ele>
        <time>2020-05-12T07:17:28Z</time>
      </trkpt>
      <trkpt lat="44.5299" lon="5.98025">
        <ele>1157</ele>
        <time>2020-05-12T07:17:33Z</time>
      </trkpt>
      <trkpt lat="44.5299" lon="5.98025">
        <ele>1157</ele>
        <time>2020-05-12T07:17:39Z</time>
      </trkpt>
      <trkpt lat="44.5299" lon="5.98025">
        <ele>1157</ele>
        <time>2020-05-12T07:17:44Z</time>
      </trkpt>
      <trkpt lat="44.5299" lon="5.98025">
        <ele>1157</ele>
        <time>2020-05-12T07:17:50Z</time>
      </trkpt>
      <trkpt lat="44.5299" lon="5.98025">
        <ele>1157</ele>
        <time>2020-05-12T07:17:55Z</time>
      </trkpt>
      <trkpt lat="44.5299" lon="5.98025">
        <ele>1157</ele>
        <time>2020-05-12T07:18:01Z</time>
      </trkpt>
      <trkpt lat="44.5299" lon="5.98025">
        <ele>1157</ele>
        <time>2020-05-12T07:18:07Z</time>
      </trkpt>
      <trkpt lat="44.5299" lon="5.98025">
        <ele>1157</ele>
        <time>2020-05-12T07:18:12Z</time>
      </trkpt>
      <trkpt lat="44.5299" lon="5.98025">
        <ele>1157</ele>
        <time>2020-05-12T07:18:18Z</time>
      </trkpt>
      <trkpt lat="44.5299" lon="5.98025">
        <ele>1157</ele>
        <time>2020-05-12T07:18:24Z</time>
      </trkpt>
      <trkpt lat="44.5299" lon="5.98025">
        <ele>1157</ele>
        <time>2020-05-12T07:18:30Z</time>
      </trkpt>
      <trkpt lat="44.5299" lon="5.98025">
        <ele>1157</ele>
        <time>2020-05-12T07:18:35Z</time>
      </trkpt>
      <trkpt lat="44.5299" lon="5.98025">
        <ele>1157</ele>
        <time>2020-05-12T07:18:41Z</time>
      </trkpt>
      <trkpt lat="44.5299" lon="5.98025">
        <ele>1157</ele>
        <time>2020-05-12T07:18:46Z</time>
      </trkpt>
      <trkpt lat="44.5299" lon="5.98025">
        <ele>1157</ele>
        <time>2020-05-12T07:18:52Z</time>
      </trkpt>
      <trkpt lat="44.5299" lon="5.98025">
        <ele>1157</ele>
        <time>2020-05-12T07:18:57Z</time>
      </trkpt>
      <trkpt lat="44.5299" lon="5.98025">
        <ele>1157</ele>
        <time>2020-05-12T07:19:02Z</time>
      </trkpt>
      <trkpt lat="44.5299" lon="5.98025">
        <ele>1157</ele>
        <time>2020-05-12T07:19:08Z</time>
      </trkpt>
      <trkpt lat="44.5299" lon="5.98025">
        <ele>1157</ele>
        <time>2020-05-12T07:19:14Z</time>
      </trkpt>
      <trkpt lat="44.5299" lon="5.98025">
        <ele>1157</ele>
        <time>2020-05-12T07:19:19Z</time>
      </trkpt>
      <trkpt lat="44.5299" lon="5.98025">
        <ele>1157</ele>
        <time>2020-05-12T07:19:25Z</time>
      </trkpt>
      <trkpt lat="44.5299" lon="5.98025">
        <ele>1157</ele>
        <time>2020-05-12T07:19:31Z</time>
      </trkpt>
      <trkpt lat="44.5299" lon="5.98025">
        <ele>1157</ele>
        <time>2020-05-12T07:19:37Z</time>
      </trkpt>
      <trkpt lat="44.5299" lon="5.98025">
        <ele>1158</ele>
        <time>2020-05-12T07:19:43Z</time>
      </trkpt>
      <trkpt lat="44.5299" lon="5.98024">
        <ele>1157</ele>
        <time>2020-05-12T07:19:49Z</time>
      </trkpt>
      <trkpt lat="44.5299" lon="5.98024">
        <ele>1156</ele>
        <time>2020-05-12T07:19:54Z</time>
      </trkpt>
      <trkpt lat="44.5299" lon="5.98024">
        <ele>1156</ele>
        <time>2020-05-12T07:20:00Z</time>
      </trkpt>
      <trkpt lat="44.5299" lon="5.98022">
        <ele>1159</ele>
        <time>2020-05-12T07:20:06Z</time>
      </trkpt>
      <trkpt lat="44.52988" lon="5.98021">
        <ele>1160</ele>
        <time>2020-05-12T07:20:11Z</time>
      </trkpt>
      <trkpt lat="44.52988" lon="5.9802">
        <ele>1161</ele>
        <time>2020-05-12T07:20:17Z</time>
      </trkpt>
      <trkpt lat="44.52988" lon="5.9802">
        <ele>1161</ele>
        <time>2020-05-12T07:20:23Z</time>
      </trkpt>
      <trkpt lat="44.52988" lon="5.9802">
        <ele>1161</ele>
        <time>2020-05-12T07:20:28Z</time>
      </trkpt>
      <trkpt lat="44.52988" lon="5.9802">
        <ele>1161</ele>
        <time>2020-05-12T07:20:33Z</time>
      </trkpt>
      <trkpt lat="44.52988" lon="5.9802">
        <ele>1161</ele>
        <time>2020-05-12T07:20:39Z</time>
      </trkpt>
      <trkpt lat="44.52988" lon="5.9802">
        <ele>1161</ele>
        <time>2020-05-12T07:20:44Z</time>
      </trkpt>
      <trkpt lat="44.52988" lon="5.9802">
        <ele>1161</ele>
        <time>2020-05-12T07:20:50Z</time>
      </trkpt>
      <trkpt lat="44.52988" lon="5.9802">
        <ele>1161</ele>
        <time>2020-05-12T07:20:55Z</time>
      </trkpt>
      <trkpt lat="44.52988" lon="5.9802">
        <ele>1161</ele>
        <time>2020-05-12T07:21:01Z</time>
      </trkpt>
      <trkpt lat="44.52988" lon="5.9802">
        <ele>1161</ele>
        <time>2020-05-12T07:21:06Z</time>
      </trkpt>
      <trkpt lat="44.52987" lon="5.9802">
        <ele>1161</ele>
        <time>2020-05-12T07:21:12Z</time>
      </trkpt>
      <trkpt lat="44.52987" lon="5.98021">
        <ele>1162</ele>
        <time>2020-05-12T07:21:17Z</time>
      </trkpt>
      <trkpt lat="44.52987" lon="5.98021">
        <ele>1161</ele>
        <time>2020-05-12T07:21:22Z</time>
      </trkpt>
      <trkpt lat="44.52987" lon="5.98021">
        <ele>1161</ele>
        <time>2020-05-12T07:21:28Z</time>
      </trkpt>
      <trkpt lat="44.52987" lon="5.98021">
        <ele>1161</ele>
        <time>2020-05-12T07:21:34Z</time>
      </trkpt>
      <trkpt lat="44.52987" lon="5.98021">
        <ele>1161</ele>
        <time>2020-05-12T07:21:39Z</time>
      </trkpt>
      <trkpt lat="44.52987" lon="5.98021">
        <ele>1161</ele>
        <time>2020-05-12T07:21:45Z</time>
      </trkpt>
      <trkpt lat="44.52987" lon="5.98021">
        <ele>1161</ele>
        <time>2020-05-12T07:21:50Z</time>
      </trkpt>
      <trkpt lat="44.52987" lon="5.98021">
        <ele>1161</ele>
        <time>2020-05-12T07:21:55Z</time>
      </trkpt>
      <trkpt lat="44.52987" lon="5.98021">
        <ele>1161</ele>
        <time>2020-05-12T07:22:01Z</time>
      </trkpt>
      <trkpt lat="44.52987" lon="5.98021">
        <ele>1161</ele>
        <time>2020-05-12T07:22:07Z</time>
      </trkpt>
      <trkpt lat="44.52987" lon="5.98021">
        <ele>1161</ele>
        <time>2020-05-12T07:22:12Z</time>
      </trkpt>
      <trkpt lat="44.52987" lon="5.98021">
        <ele>1161</ele>
        <time>2020-05-12T07:22:18Z</time>
      </trkpt>
      <trkpt lat="44.52987" lon="5.98021">
        <ele>1161</ele>
        <time>2020-05-12T07:22:24Z</time>
      </trkpt>
      <trkpt lat="44.52987" lon="5.98021">
        <ele>1161</ele>
        <time>2020-05-12T07:22:29Z</time>
      </trkpt>
      <trkpt lat="44.52987" lon="5.98021">
        <ele>1161</ele>
        <time>2020-05-12T07:22:34Z</time>
      </trkpt>
      <trkpt lat="44.52987" lon="5.98021">
        <ele>1161</ele>
        <time>2020-05-12T07:22:39Z</time>
      </trkpt>
      <trkpt lat="44.52986" lon="5.98022">
        <ele>1161</ele>
        <time>2020-05-12T07:22:45Z</time>
      </trkpt>
      <trkpt lat="44.52986" lon="5.98023">
        <ele>1159</ele>
        <time>2020-05-12T07:22:51Z</time>
      </trkpt>
      <trkpt lat="44.52984" lon="5.98022">
        <ele>1161</ele>
        <time>2020-05-12T07:22:57Z</time>
      </trkpt>
      <trkpt lat="44.52984" lon="5.98022">
        <ele>1161</ele>
        <time>2020-05-12T07:23:03Z</time>
      </trkpt>
      <trkpt lat="44.52984" lon="5.98022">
        <ele>1161</ele>
        <time>2020-05-12T07:23:08Z</time>
      </trkpt>
      <trkpt lat="44.52984" lon="5.98022">
        <ele>1161</ele>
        <time>2020-05-12T07:23:13Z</time>
      </trkpt>
      <trkpt lat="44.52984" lon="5.98022">
        <ele>1161</ele>
        <time>2020-05-12T07:23:19Z</time>
      </trkpt>
      <trkpt lat="44.52984" lon="5.98022">
        <ele>1161</ele>
        <time>2020-05-12T07:23:25Z</time>
      </trkpt>
      <trkpt lat="44.52984" lon="5.98022">
        <ele>1161</ele>
        <time>2020-05-12T07:23:31Z</time>
      </trkpt>
      <trkpt lat="44.52984" lon="5.98022">
        <ele>1161</ele>
        <time>2020-05-12T07:23:36Z</time>
      </trkpt>
      <trkpt lat="44.52984" lon="5.98022">
        <ele>1161</ele>
        <time>2020-05-12T07:23:42Z</time>
      </trkpt>
      <trkpt lat="44.52984" lon="5.98022">
        <ele>1161</ele>
        <time>2020-05-12T07:23:47Z</time>
      </trkpt>
      <trkpt lat="44.52984" lon="5.98022">
        <ele>1161</ele>
        <time>2020-05-12T07:23:52Z</time>
      </trkpt>
      <trkpt lat="44.52984" lon="5.98022">
        <ele>1161</ele>
        <time>2020-05-12T07:23:58Z</time>
      </trkpt>
      <trkpt lat="44.52985" lon="5.98022">
        <ele>1162</ele>
        <time>2020-05-12T07:24:04Z</time>
      </trkpt>
      <trkpt lat="44.52984" lon="5.98022">
        <ele>1162</ele>
        <time>2020-05-12T07:24:09Z</time>
      </trkpt>
      <trkpt lat="44.52984" lon="5.98022">
        <ele>1162</ele>
        <time>2020-05-12T07:24:15Z</time>
      </trkpt>
      <trkpt lat="44.52984" lon="5.98022">
        <ele>1162</ele>
        <time>2020-05-12T07:24:21Z</time>
      </trkpt>
      <trkpt lat="44.52984" lon="5.98022">
        <ele>1162</ele>
        <time>2020-05-12T07:24:26Z</time>
      </trkpt>
      <trkpt lat="44.52984" lon="5.98022">
        <ele>1162</ele>
        <time>2020-05-12T07:24:31Z</time>
      </trkpt>
      <trkpt lat="44.52984" lon="5.98023">
        <ele>1162</ele>
        <time>2020-05-12T07:24:36Z</time>
      </trkpt>
      <trkpt lat="44.52986" lon="5.98024">
        <ele>1159</ele>
        <time>2020-05-12T07:24:42Z</time>
      </trkpt>
      <trkpt lat="44.52986" lon="5.98024">
        <ele>1159</ele>
        <time>2020-05-12T07:24:48Z</time>
      </trkpt>
      <trkpt lat="44.52986" lon="5.98024">
        <ele>1159</ele>
        <time>2020-05-12T07:24:54Z</time>
      </trkpt>
      <trkpt lat="44.52986" lon="5.98024">
        <ele>1159</ele>
        <time>2020-05-12T07:25:00Z</time>
      </trkpt>
      <trkpt lat="44.52986" lon="5.98024">
        <ele>1159</ele>
        <time>2020-05-12T07:25:06Z</time>
      </trkpt>
      <trkpt lat="44.52986" lon="5.98024">
        <ele>1159</ele>
        <time>2020-05-12T07:25:12Z</time>
      </trkpt>
      <trkpt lat="44.52986" lon="5.98024">
        <ele>1159</ele>
        <time>2020-05-12T07:25:17Z</time>
      </trkpt>
      <trkpt lat="44.52986" lon="5.98024">
        <ele>1159</ele>
        <time>2020-05-12T07:25:23Z</time>
      </trkpt>
      <trkpt lat="44.52986" lon="5.98024">
        <ele>1159</ele>
        <time>2020-05-12T07:25:29Z</time>
      </trkpt>
      <trkpt lat="44.52986" lon="5.98024">
        <ele>1159</ele>
        <time>2020-05-12T07:25:35Z</time>
      </trkpt>
      <trkpt lat="44.52986" lon="5.98024">
        <ele>1159</ele>
        <time>2020-05-12T07:25:40Z</time>
      </trkpt>
      <trkpt lat="44.52986" lon="5.98024">
        <ele>1159</ele>
        <time>2020-05-12T07:25:46Z</time>
      </trkpt>
      <trkpt lat="44.52986" lon="5.98024">
        <ele>1159</ele>
        <time>2020-05-12T07:25:52Z</time>
      </trkpt>
      <trkpt lat="44.52986" lon="5.98024">
        <ele>1159</ele>
        <time>2020-05-12T07:25:57Z</time>
      </trkpt>
      <trkpt lat="44.52986" lon="5.98024">
        <ele>1159</ele>
        <time>2020-05-12T07:26:02Z</time>
      </trkpt>
      <trkpt lat="44.52986" lon="5.98024">
        <ele>1159</ele>
        <time>2020-05-12T07:26:08Z</time>
      </trkpt>
      <trkpt lat="44.52986" lon="5.98024">
        <ele>1159</ele>
        <time>2020-05-12T07:26:14Z</time>
      </trkpt>
      <trkpt lat="44.52986" lon="5.98024">
        <ele>1159</ele>
        <time>2020-05-12T07:26:19Z</time>
      </trkpt>
      <trkpt lat="44.52986" lon="5.98024">
        <ele>1159</ele>
        <time>2020-05-12T07:26:24Z</time>
      </trkpt>
      <trkpt lat="44.52986" lon="5.98024">
        <ele>1159</ele>
        <time>2020-05-12T07:26:31Z</time>
      </trkpt>
      <trkpt lat="44.52986" lon="5.98024">
        <ele>1159</ele>
        <time>2020-05-12T07:26:37Z</time>
      </trkpt>
      <trkpt lat="44.52986" lon="5.98024">
        <ele>1160</ele>
        <time>2020-05-12T07:26:43Z</time>
      </trkpt>
      <trkpt lat="44.52987" lon="5.98024">
        <ele>1161</ele>
        <time>2020-05-12T07:26:49Z</time>
      </trkpt>
      <trkpt lat="44.52987" lon="5.98023">
        <ele>1161</ele>
        <time>2020-05-12T07:26:54Z</time>
      </trkpt>
      <trkpt lat="44.52987" lon="5.98023">
        <ele>1161</ele>
        <time>2020-05-12T07:27:00Z</time>
      </trkpt>
      <trkpt lat="44.52987" lon="5.98023">
        <ele>1161</ele>
        <time>2020-05-12T07:27:06Z</time>
      </trkpt>
      <trkpt lat="44.52987" lon="5.98023">
        <ele>1161</ele>
        <time>2020-05-12T07:27:11Z</time>
      </trkpt>
      <trkpt lat="44.52987" lon="5.98023">
        <ele>1162</ele>
        <time>2020-05-12T07:27:17Z</time>
      </trkpt>
      <trkpt lat="44.52986" lon="5.98022">
        <ele>1161</ele>
        <time>2020-05-12T07:27:22Z</time>
      </trkpt>
      <trkpt lat="44.52985" lon="5.98021">
        <ele>1160</ele>
        <time>2020-05-12T07:27:28Z</time>
      </trkpt>
      <trkpt lat="44.52985" lon="5.98021">
        <ele>1160</ele>
        <time>2020-05-12T07:27:34Z</time>
      </trkpt>
      <trkpt lat="44.52985" lon="5.98021">
        <ele>1160</ele>
        <time>2020-05-12T07:27:39Z</time>
      </trkpt>
      <trkpt lat="44.52985" lon="5.98021">
        <ele>1160</ele>
        <time>2020-05-12T07:27:45Z</time>
      </trkpt>
      <trkpt lat="44.52985" lon="5.98021">
        <ele>1160</ele>
        <time>2020-05-12T07:27:51Z</time>
      </trkpt>
      <trkpt lat="44.52985" lon="5.98021">
        <ele>1160</ele>
        <time>2020-05-12T07:27:57Z</time>
      </trkpt>
      <trkpt lat="44.52985" lon="5.98021">
        <ele>1160</ele>
        <time>2020-05-12T07:28:02Z</time>
      </trkpt>
      <trkpt lat="44.52985" lon="5.98021">
        <ele>1160</ele>
        <time>2020-05-12T07:28:08Z</time>
      </trkpt>
      <trkpt lat="44.52985" lon="5.98021">
        <ele>1160</ele>
        <time>2020-05-12T07:28:14Z</time>
      </trkpt>
      <trkpt lat="44.52985" lon="5.98021">
        <ele>1160</ele>
        <time>2020-05-12T07:28:19Z</time>
      </trkpt>
      <trkpt lat="44.52985" lon="5.98021">
        <ele>1160</ele>
        <time>2020-05-12T07:28:24Z</time>
      </trkpt>
      <trkpt lat="44.52985" lon="5.98021">
        <ele>1160</ele>
        <time>2020-05-12T07:28:29Z</time>
      </trkpt>
      <trkpt lat="44.52985" lon="5.98021">
        <ele>1160</ele>
        <time>2020-05-12T07:28:35Z</time>
      </trkpt>
      <trkpt lat="44.52985" lon="5.98021">
        <ele>1160</ele>
        <time>2020-05-12T07:28:41Z</time>
      </trkpt>
      <trkpt lat="44.52985" lon="5.98021">
        <ele>1160</ele>
        <time>2020-05-12T07:28:47Z</time>
      </trkpt>
      <trkpt lat="44.52985" lon="5.98021">
        <ele>1160</ele>
        <time>2020-05-12T07:28:52Z</time>
      </trkpt>
      <trkpt lat="44.52985" lon="5.98021">
        <ele>1160</ele>
        <time>2020-05-12T07:28:57Z</time>
      </trkpt>
      <trkpt lat="44.52985" lon="5.98021">
        <ele>1160</ele>
        <time>2020-05-12T07:29:03Z</time>
      </trkpt>
      <trkpt lat="44.52985" lon="5.98021">
        <ele>1160</ele>
        <time>2020-05-12T07:29:08Z</time>
      </trkpt>
      <trkpt lat="44.52985" lon="5.98021">
        <ele>1160</ele>
        <time>2020-05-12T07:29:13Z</time>
      </trkpt>
      <trkpt lat="44.52985" lon="5.98021">
        <ele>1160</ele>
        <time>2020-05-12T07:29:18Z</time>
      </trkpt>
      <trkpt lat="44.52985" lon="5.98021">
        <ele>1160</ele>
        <time>2020-05-12T07:29:24Z</time>
      </trkpt>
      <trkpt lat="44.52985" lon="5.98021">
        <ele>1160</ele>
        <time>2020-05-12T07:29:29Z</time>
      </trkpt>
      <trkpt lat="44.52985" lon="5.98021">
        <ele>1160</ele>
        <time>2020-05-12T07:29:34Z</time>
      </trkpt>
      <trkpt lat="44.52985" lon="5.98021">
        <ele>1160</ele>
        <time>2020-05-12T07:29:39Z</time>
      </trkpt>
      <trkpt lat="44.52985" lon="5.98021">
        <ele>1160</ele>
        <time>2020-05-12T07:29:44Z</time>
      </trkpt>
      <trkpt lat="44.52985" lon="5.98021">
        <ele>1160</ele>
        <time>2020-05-12T07:29:49Z</time>
      </trkpt>
      <trkpt lat="44.52985" lon="5.98021">
        <ele>1160</ele>
        <time>2020-05-12T07:29:54Z</time>
      </trkpt>
      <trkpt lat="44.52985" lon="5.98021">
        <ele>1159</ele>
        <time>2020-05-12T07:29:59Z</time>
      </trkpt>
      <trkpt lat="44.52985" lon="5.98021">
        <ele>1159</ele>
        <time>2020-05-12T07:30:05Z</time>
      </trkpt>
      <trkpt lat="44.52985" lon="5.98021">
        <ele>1159</ele>
        <time>2020-05-12T07:30:11Z</time>
      </trkpt>
      <trkpt lat="44.52985" lon="5.98021">
        <ele>1159</ele>
        <time>2020-05-12T07:30:16Z</time>
      </trkpt>
      <trkpt lat="44.52985" lon="5.98021">
        <ele>1159</ele>
        <time>2020-05-12T07:30:22Z</time>
      </trkpt>
      <trkpt lat="44.52985" lon="5.98021">
        <ele>1159</ele>
        <time>2020-05-12T07:30:27Z</time>
      </trkpt>
      <trkpt lat="44.52985" lon="5.98021">
        <ele>1159</ele>
        <time>2020-05-12T07:30:32Z</time>
      </trkpt>
      <trkpt lat="44.52985" lon="5.98021">
        <ele>1159</ele>
        <time>2020-05-12T07:30:38Z</time>
      </trkpt>
      <trkpt lat="44.52987" lon="5.98021">
        <ele>1159</ele>
        <time>2020-05-12T07:30:43Z</time>
      </trkpt>
      <trkpt lat="44.52988" lon="5.98022">
        <ele>1158</ele>
        <time>2020-05-12T07:30:49Z</time>
      </trkpt>
      <trkpt lat="44.52989" lon="5.98022">
        <ele>1157</ele>
        <time>2020-05-12T07:30:58Z</time>
      </trkpt>
      <trkpt lat="44.52989" lon="5.98022">
        <ele>1157</ele>
        <time>2020-05-12T07:31:04Z</time>
      </trkpt>
      <trkpt lat="44.52987" lon="5.98024">
        <ele>1159</ele>
        <time>2020-05-12T07:31:10Z</time>
      </trkpt>
      <trkpt lat="44.52981" lon="5.98025">
        <ele>1156</ele>
        <time>2020-05-12T07:31:16Z</time>
      </trkpt>
      <trkpt lat="44.5297" lon="5.98031">
        <ele>1159</ele>
        <time>2020-05-12T07:31:22Z</time>
      </trkpt>
      <trkpt lat="44.5296" lon="5.98039">
        <ele>1160</ele>
        <time>2020-05-12T07:31:28Z</time>
      </trkpt>
      <trkpt lat="44.52953" lon="5.9804">
        <ele>1169</ele>
        <time>2020-05-12T07:31:33Z</time>
      </trkpt>
      <trkpt lat="44.52946" lon="5.98039">
        <ele>1171</ele>
        <time>2020-05-12T07:31:39Z</time>
      </trkpt>
      <trkpt lat="44.5294" lon="5.98034">
        <ele>1172</ele>
        <time>2020-05-12T07:31:45Z</time>
      </trkpt>
      <trkpt lat="44.52937" lon="5.98025">
        <ele>1173</ele>
        <time>2020-05-12T07:31:50Z</time>
      </trkpt>
      <trkpt lat="44.52937" lon="5.98014">
        <ele>1174</ele>
        <time>2020-05-12T07:31:56Z</time>
      </trkpt>
      <trkpt lat="44.52935" lon="5.98008">
        <ele>1178</ele>
        <time>2020-05-12T07:32:01Z</time>
      </trkpt>
      <trkpt lat="44.52929" lon="5.98001">
        <ele>1176</ele>
        <time>2020-05-12T07:32:07Z</time>
      </trkpt>
      <trkpt lat="44.52928" lon="5.97996">
        <ele>1177</ele>
        <time>2020-05-12T07:32:12Z</time>
      </trkpt>
      <trkpt lat="44.52927" lon="5.97991">
        <ele>1176</ele>
        <time>2020-05-12T07:32:18Z</time>
      </trkpt>
      <trkpt lat="44.5292" lon="5.9798">
        <ele>1178</ele>
        <time>2020-05-12T07:32:24Z</time>
      </trkpt>
      <trkpt lat="44.52914" lon="5.97969">
        <ele>1179</ele>
        <time>2020-05-12T07:32:30Z</time>
      </trkpt>
      <trkpt lat="44.52902" lon="5.97961">
        <ele>1176</ele>
        <time>2020-05-12T07:32:36Z</time>
      </trkpt>
      <trkpt lat="44.52891" lon="5.97957">
        <ele>1179</ele>
        <time>2020-05-12T07:32:41Z</time>
      </trkpt>
      <trkpt lat="44.52883" lon="5.97951">
        <ele>1183</ele>
        <time>2020-05-12T07:32:47Z</time>
      </trkpt>
      <trkpt lat="44.52874" lon="5.97946">
        <ele>1183</ele>
        <time>2020-05-12T07:32:52Z</time>
      </trkpt>
      <trkpt lat="44.52865" lon="5.97938">
        <ele>1184</ele>
        <time>2020-05-12T07:32:57Z</time>
      </trkpt>
      <trkpt lat="44.52857" lon="5.97935">
        <ele>1185</ele>
        <time>2020-05-12T07:33:02Z</time>
      </trkpt>
      <trkpt lat="44.52852" lon="5.97932">
        <ele>1187</ele>
        <time>2020-05-12T07:33:07Z</time>
      </trkpt>
      <trkpt lat="44.5284" lon="5.97923">
        <ele>1184</ele>
        <time>2020-05-12T07:33:12Z</time>
      </trkpt>
      <trkpt lat="44.52826" lon="5.97916">
        <ele>1181</ele>
        <time>2020-05-12T07:33:18Z</time>
      </trkpt>
      <trkpt lat="44.52808" lon="5.97918">
        <ele>1184</ele>
        <time>2020-05-12T07:33:24Z</time>
      </trkpt>
      <trkpt lat="44.52794" lon="5.97919">
        <ele>1184</ele>
        <time>2020-05-12T07:33:29Z</time>
      </trkpt>
      <trkpt lat="44.52781" lon="5.9792">
        <ele>1185</ele>
        <time>2020-05-12T07:33:35Z</time>
      </trkpt>
      <trkpt lat="44.52777" lon="5.97913">
        <ele>1185</ele>
        <time>2020-05-12T07:33:40Z</time>
      </trkpt>
      <trkpt lat="44.5278" lon="5.979">
        <ele>1192</ele>
        <time>2020-05-12T07:33:46Z</time>
      </trkpt>
      <trkpt lat="44.52772" lon="5.97884">
        <ele>1195</ele>
        <time>2020-05-12T07:33:52Z</time>
      </trkpt>
      <trkpt lat="44.52761" lon="5.97873">
        <ele>1200</ele>
        <time>2020-05-12T07:33:58Z</time>
      </trkpt>
      <trkpt lat="44.52755" lon="5.97864">
        <ele>1200</ele>
        <time>2020-05-12T07:34:03Z</time>
      </trkpt>
      <trkpt lat="44.52744" lon="5.97854">
        <ele>1200</ele>
        <time>2020-05-12T07:34:09Z</time>
      </trkpt>
      <trkpt lat="44.52727" lon="5.97853">
        <ele>1197</ele>
        <time>2020-05-12T07:34:15Z</time>
      </trkpt>
      <trkpt lat="44.52716" lon="5.97854">
        <ele>1197</ele>
        <time>2020-05-12T07:34:20Z</time>
      </trkpt>
      <trkpt lat="44.52713" lon="5.97848">
        <ele>1204</ele>
        <time>2020-05-12T07:34:26Z</time>
      </trkpt>
      <trkpt lat="44.52709" lon="5.97842">
        <ele>1206</ele>
        <time>2020-05-12T07:34:32Z</time>
      </trkpt>
      <trkpt lat="44.52699" lon="5.97843">
        <ele>1207</ele>
        <time>2020-05-12T07:34:37Z</time>
      </trkpt>
      <trkpt lat="44.5269" lon="5.97842">
        <ele>1206</ele>
        <time>2020-05-12T07:34:42Z</time>
      </trkpt>
      <trkpt lat="44.52685" lon="5.97844">
        <ele>1206</ele>
        <time>2020-05-12T07:34:47Z</time>
      </trkpt>
      <trkpt lat="44.52673" lon="5.97846">
        <ele>1199</ele>
        <time>2020-05-12T07:34:53Z</time>
      </trkpt>
      <trkpt lat="44.52662" lon="5.97847">
        <ele>1204</ele>
        <time>2020-05-12T07:34:59Z</time>
      </trkpt>
      <trkpt lat="44.52654" lon="5.97852">
        <ele>1210</ele>
        <time>2020-05-12T07:35:05Z</time>
      </trkpt>
      <trkpt lat="44.52651" lon="5.97857">
        <ele>1211</ele>
        <time>2020-05-12T07:35:11Z</time>
      </trkpt>
      <trkpt lat="44.5265" lon="5.97858">
        <ele>1213</ele>
        <time>2020-05-12T07:35:16Z</time>
      </trkpt>
      <trkpt lat="44.52644" lon="5.9786">
        <ele>1207</ele>
        <time>2020-05-12T07:35:22Z</time>
      </trkpt>
      <trkpt lat="44.52644" lon="5.9786">
        <ele>1211</ele>
        <time>2020-05-12T07:35:27Z</time>
      </trkpt>
      <trkpt lat="44.52643" lon="5.97859">
        <ele>1215</ele>
        <time>2020-05-12T07:35:33Z</time>
      </trkpt>
      <trkpt lat="44.5264" lon="5.97858">
        <ele>1214</ele>
        <time>2020-05-12T07:35:38Z</time>
      </trkpt>
      <trkpt lat="44.52641" lon="5.97859">
        <ele>1213</ele>
        <time>2020-05-12T07:35:43Z</time>
      </trkpt>
      <trkpt lat="44.52641" lon="5.97858">
        <ele>1223</ele>
        <time>2020-05-12T07:35:48Z</time>
      </trkpt>
      <trkpt lat="44.52645" lon="5.97851">
        <ele>1231</ele>
        <time>2020-05-12T07:35:53Z</time>
      </trkpt>
      <trkpt lat="44.52639" lon="5.97851">
        <ele>1230</ele>
        <time>2020-05-12T07:35:59Z</time>
      </trkpt>
      <trkpt lat="44.52632" lon="5.97848">
        <ele>1223</ele>
        <time>2020-05-12T07:36:05Z</time>
      </trkpt>
      <trkpt lat="44.52624" lon="5.9784">
        <ele>1223</ele>
        <time>2020-05-12T07:36:11Z</time>
      </trkpt>
      <trkpt lat="44.52624" lon="5.97841">
        <ele>1226</ele>
        <time>2020-05-12T07:36:17Z</time>
      </trkpt>
      <trkpt lat="44.52618" lon="5.9784">
        <ele>1225</ele>
        <time>2020-05-12T07:36:22Z</time>
      </trkpt>
      <trkpt lat="44.52608" lon="5.97827">
        <ele>1220</ele>
        <time>2020-05-12T07:36:28Z</time>
      </trkpt>
      <trkpt lat="44.52594" lon="5.97823">
        <ele>1228</ele>
        <time>2020-05-12T07:36:34Z</time>
      </trkpt>
      <trkpt lat="44.52585" lon="5.97825">
        <ele>1233</ele>
        <time>2020-05-12T07:36:39Z</time>
      </trkpt>
      <trkpt lat="44.52575" lon="5.97826">
        <ele>1230</ele>
        <time>2020-05-12T07:36:44Z</time>
      </trkpt>
      <trkpt lat="44.5256" lon="5.97835">
        <ele>1230</ele>
        <time>2020-05-12T07:36:50Z</time>
      </trkpt>
      <trkpt lat="44.52543" lon="5.97836">
        <ele>1228</ele>
        <time>2020-05-12T07:36:55Z</time>
      </trkpt>
      <trkpt lat="44.52535" lon="5.97829">
        <ele>1233</ele>
        <time>2020-05-12T07:37:01Z</time>
      </trkpt>
      <trkpt lat="44.52526" lon="5.97831">
        <ele>1238</ele>
        <time>2020-05-12T07:37:07Z</time>
      </trkpt>
      <trkpt lat="44.52519" lon="5.97827">
        <ele>1241</ele>
        <time>2020-05-12T07:37:12Z</time>
      </trkpt>
      <trkpt lat="44.5251" lon="5.97821">
        <ele>1241</ele>
        <time>2020-05-12T07:37:17Z</time>
      </trkpt>
      <trkpt lat="44.52503" lon="5.97818">
        <ele>1243</ele>
        <time>2020-05-12T07:37:22Z</time>
      </trkpt>
      <trkpt lat="44.52492" lon="5.97826">
        <ele>1246</ele>
        <time>2020-05-12T07:37:28Z</time>
      </trkpt>
      <trkpt lat="44.52484" lon="5.97833">
        <ele>1247</ele>
        <time>2020-05-12T07:37:33Z</time>
      </trkpt>
      <trkpt lat="44.52479" lon="5.97836">
        <ele>1251</ele>
        <time>2020-05-12T07:37:38Z</time>
      </trkpt>
      <trkpt lat="44.52473" lon="5.97834">
        <ele>1252</ele>
        <time>2020-05-12T07:37:43Z</time>
      </trkpt>
      <trkpt lat="44.52468" lon="5.97835">
        <ele>1252</ele>
        <time>2020-05-12T07:37:48Z</time>
      </trkpt>
      <trkpt lat="44.52462" lon="5.97838">
        <ele>1256</ele>
        <time>2020-05-12T07:37:53Z</time>
      </trkpt>
      <trkpt lat="44.52454" lon="5.97839">
        <ele>1260</ele>
        <time>2020-05-12T07:37:59Z</time>
      </trkpt>
      <trkpt lat="44.52448" lon="5.97838">
        <ele>1265</ele>
        <time>2020-05-12T07:38:05Z</time>
      </trkpt>
      <trkpt lat="44.52442" lon="5.97845">
        <ele>1265</ele>
        <time>2020-05-12T07:38:10Z</time>
      </trkpt>
      <trkpt lat="44.5243" lon="5.97859">
        <ele>1261</ele>
        <time>2020-05-12T07:38:16Z</time>
      </trkpt>
      <trkpt lat="44.52416" lon="5.97874">
        <ele>1262</ele>
        <time>2020-05-12T07:38:22Z</time>
      </trkpt>
      <trkpt lat="44.52407" lon="5.97873">
        <ele>1263</ele>
        <time>2020-05-12T07:38:27Z</time>
      </trkpt>
      <trkpt lat="44.52401" lon="5.97871">
        <ele>1265</ele>
        <time>2020-05-12T07:38:32Z</time>
      </trkpt>
      <trkpt lat="44.52393" lon="5.9787">
        <ele>1269</ele>
        <time>2020-05-12T07:38:37Z</time>
      </trkpt>
      <trkpt lat="44.52383" lon="5.97872">
        <ele>1275</ele>
        <time>2020-05-12T07:38:43Z</time>
      </trkpt>
      <trkpt lat="44.52376" lon="5.97872">
        <ele>1276</ele>
        <time>2020-05-12T07:38:49Z</time>
      </trkpt>
      <trkpt lat="44.5237" lon="5.97872">
        <ele>1278</ele>
        <time>2020-05-12T07:38:54Z</time>
      </trkpt>
      <trkpt lat="44.52358" lon="5.97871">
        <ele>1278</ele>
        <time>2020-05-12T07:38:59Z</time>
      </trkpt>
      <trkpt lat="44.52347" lon="5.97878">
        <ele>1281</ele>
        <time>2020-05-12T07:39:04Z</time>
      </trkpt>
      <trkpt lat="44.52337" lon="5.97882">
        <ele>1281</ele>
        <time>2020-05-12T07:39:09Z</time>
      </trkpt>
      <trkpt lat="44.52328" lon="5.97881">
        <ele>1280</ele>
        <time>2020-05-12T07:39:15Z</time>
      </trkpt>
      <trkpt lat="44.52319" lon="5.97878">
        <ele>1281</ele>
        <time>2020-05-12T07:39:21Z</time>
      </trkpt>
      <trkpt lat="44.52313" lon="5.97876">
        <ele>1284</ele>
        <time>2020-05-12T07:39:26Z</time>
      </trkpt>
      <trkpt lat="44.5231" lon="5.97872">
        <ele>1284</ele>
        <time>2020-05-12T07:39:31Z</time>
      </trkpt>
      <trkpt lat="44.52304" lon="5.97869">
        <ele>1283</ele>
        <time>2020-05-12T07:39:36Z</time>
      </trkpt>
      <trkpt lat="44.52298" lon="5.97861">
        <ele>1289</ele>
        <time>2020-05-12T07:39:42Z</time>
      </trkpt>
      <trkpt lat="44.52291" lon="5.97855">
        <ele>1291</ele>
        <time>2020-05-12T07:39:47Z</time>
      </trkpt>
      <trkpt lat="44.52282" lon="5.97856">
        <ele>1298</ele>
        <time>2020-05-12T07:39:53Z</time>
      </trkpt>
      <trkpt lat="44.52276" lon="5.97852">
        <ele>1298</ele>
        <time>2020-05-12T07:39:59Z</time>
      </trkpt>
      <trkpt lat="44.52265" lon="5.97852">
        <ele>1293</ele>
        <time>2020-05-12T07:40:04Z</time>
      </trkpt>
      <trkpt lat="44.52255" lon="5.97853">
        <ele>1294</ele>
        <time>2020-05-12T07:40:10Z</time>
      </trkpt>
      <trkpt lat="44.52243" lon="5.97849">
        <ele>1292</ele>
        <time>2020-05-12T07:40:15Z</time>
      </trkpt>
      <trkpt lat="44.52234" lon="5.97853">
        <ele>1292</ele>
        <time>2020-05-12T07:40:20Z</time>
      </trkpt>
      <trkpt lat="44.52224" lon="5.97865">
        <ele>1295</ele>
        <time>2020-05-12T07:40:26Z</time>
      </trkpt>
      <trkpt lat="44.52223" lon="5.97861">
        <ele>1295</ele>
        <time>2020-05-12T07:40:31Z</time>
      </trkpt>
      <trkpt lat="44.52225" lon="5.97857">
        <ele>1296</ele>
        <time>2020-05-12T07:40:37Z</time>
      </trkpt>
      <trkpt lat="44.52228" lon="5.97852">
        <ele>1299</ele>
        <time>2020-05-12T07:40:43Z</time>
      </trkpt>
      <trkpt lat="44.52231" lon="5.97847">
        <ele>1302</ele>
        <time>2020-05-12T07:40:48Z</time>
      </trkpt>
      <trkpt lat="44.52235" lon="5.97841">
        <ele>1301</ele>
        <time>2020-05-12T07:40:54Z</time>
      </trkpt>
      <trkpt lat="44.52238" lon="5.97834">
        <ele>1299</ele>
        <time>2020-05-12T07:41:00Z</time>
      </trkpt>
      <trkpt lat="44.52242" lon="5.97825">
        <ele>1302</ele>
        <time>2020-05-12T07:41:06Z</time>
      </trkpt>
      <trkpt lat="44.52242" lon="5.97808">
        <ele>1303</ele>
        <time>2020-05-12T07:41:12Z</time>
      </trkpt>
      <trkpt lat="44.52244" lon="5.97793">
        <ele>1308</ele>
        <time>2020-05-12T07:41:18Z</time>
      </trkpt>
      <trkpt lat="44.5224" lon="5.97781">
        <ele>1299</ele>
        <time>2020-05-12T07:41:23Z</time>
      </trkpt>
      <trkpt lat="44.52238" lon="5.9777">
        <ele>1301</ele>
        <time>2020-05-12T07:41:28Z</time>
      </trkpt>
      <trkpt lat="44.52237" lon="5.97764">
        <ele>1304</ele>
        <time>2020-05-12T07:41:34Z</time>
      </trkpt>
      <trkpt lat="44.52242" lon="5.97754">
        <ele>1308</ele>
        <time>2020-05-12T07:41:39Z</time>
      </trkpt>
      <trkpt lat="44.52246" lon="5.97739">
        <ele>1311</ele>
        <time>2020-05-12T07:41:44Z</time>
      </trkpt>
      <trkpt lat="44.52256" lon="5.97725">
        <ele>1313</ele>
        <time>2020-05-12T07:41:50Z</time>
      </trkpt>
      <trkpt lat="44.5226" lon="5.97721">
        <ele>1321</ele>
        <time>2020-05-12T07:41:55Z</time>
      </trkpt>
      <trkpt lat="44.5226" lon="5.9771">
        <ele>1320</ele>
        <time>2020-05-12T07:42:01Z</time>
      </trkpt>
      <trkpt lat="44.52261" lon="5.97698">
        <ele>1317</ele>
        <time>2020-05-12T07:42:06Z</time>
      </trkpt>
      <trkpt lat="44.52267" lon="5.97681">
        <ele>1315</ele>
        <time>2020-05-12T07:42:12Z</time>
      </trkpt>
      <trkpt lat="44.52266" lon="5.97666">
        <ele>1317</ele>
        <time>2020-05-12T07:42:18Z</time>
      </trkpt>
      <trkpt lat="44.52261" lon="5.9765">
        <ele>1317</ele>
        <time>2020-05-12T07:42:24Z</time>
      </trkpt>
      <trkpt lat="44.52259" lon="5.97633">
        <ele>1317</ele>
        <time>2020-05-12T07:42:30Z</time>
      </trkpt>
      <trkpt lat="44.52258" lon="5.97615">
        <ele>1317</ele>
        <time>2020-05-12T07:42:36Z</time>
      </trkpt>
      <trkpt lat="44.52256" lon="5.97601">
        <ele>1322</ele>
        <time>2020-05-12T07:42:42Z</time>
      </trkpt>
      <trkpt lat="44.52251" lon="5.97593">
        <ele>1326</ele>
        <time>2020-05-12T07:42:48Z</time>
      </trkpt>
      <trkpt lat="44.52246" lon="5.97581">
        <ele>1332</ele>
        <time>2020-05-12T07:42:53Z</time>
      </trkpt>
      <trkpt lat="44.52241" lon="5.97573">
        <ele>1337</ele>
        <time>2020-05-12T07:42:59Z</time>
      </trkpt>
      <trkpt lat="44.52239" lon="5.97574">
        <ele>1339</ele>
        <time>2020-05-12T07:43:05Z</time>
      </trkpt>
      <trkpt lat="44.52237" lon="5.97573">
        <ele>1339</ele>
        <time>2020-05-12T07:43:11Z</time>
      </trkpt>
      <trkpt lat="44.52235" lon="5.97573">
        <ele>1340</ele>
        <time>2020-05-12T07:43:16Z</time>
      </trkpt>
      <trkpt lat="44.52231" lon="5.97572">
        <ele>1343</ele>
        <time>2020-05-12T07:43:22Z</time>
      </trkpt>
      <trkpt lat="44.52231" lon="5.97568">
        <ele>1345</ele>
        <time>2020-05-12T07:43:27Z</time>
      </trkpt>
      <trkpt lat="44.52233" lon="5.97564">
        <ele>1350</ele>
        <time>2020-05-12T07:43:33Z</time>
      </trkpt>
      <trkpt lat="44.52235" lon="5.97566">
        <ele>1355</ele>
        <time>2020-05-12T07:43:38Z</time>
      </trkpt>
      <trkpt lat="44.52236" lon="5.97564">
        <ele>1353</ele>
        <time>2020-05-12T07:43:44Z</time>
      </trkpt>
      <trkpt lat="44.5224" lon="5.97561">
        <ele>1361</ele>
        <time>2020-05-12T07:43:50Z</time>
      </trkpt>
      <trkpt lat="44.52241" lon="5.9756">
        <ele>1361</ele>
        <time>2020-05-12T07:43:55Z</time>
      </trkpt>
      <trkpt lat="44.52241" lon="5.97561">
        <ele>1361</ele>
        <time>2020-05-12T07:44:01Z</time>
      </trkpt>
      <trkpt lat="44.52241" lon="5.97561">
        <ele>1361</ele>
        <time>2020-05-12T07:44:07Z</time>
      </trkpt>
      <trkpt lat="44.52241" lon="5.97561">
        <ele>1361</ele>
        <time>2020-05-12T07:44:12Z</time>
      </trkpt>
      <trkpt lat="44.52242" lon="5.97561">
        <ele>1362</ele>
        <time>2020-05-12T07:44:17Z</time>
      </trkpt>
      <trkpt lat="44.52239" lon="5.97558">
        <ele>1362</ele>
        <time>2020-05-12T07:44:23Z</time>
      </trkpt>
      <trkpt lat="44.52236" lon="5.97561">
        <ele>1362</ele>
        <time>2020-05-12T07:44:28Z</time>
      </trkpt>
      <trkpt lat="44.52235" lon="5.97561">
        <ele>1362</ele>
        <time>2020-05-12T07:44:33Z</time>
      </trkpt>
      <trkpt lat="44.52234" lon="5.97562">
        <ele>1362</ele>
        <time>2020-05-12T07:44:39Z</time>
      </trkpt>
      <trkpt lat="44.52234" lon="5.97562">
        <ele>1362</ele>
        <time>2020-05-12T07:44:45Z</time>
      </trkpt>
      <trkpt lat="44.52236" lon="5.97561">
        <ele>1362</ele>
        <time>2020-05-12T07:44:50Z</time>
      </trkpt>
      <trkpt lat="44.52236" lon="5.97562">
        <ele>1364</ele>
        <time>2020-05-12T07:44:56Z</time>
      </trkpt>
      <trkpt lat="44.52237" lon="5.97563">
        <ele>1365</ele>
        <time>2020-05-12T07:45:02Z</time>
      </trkpt>
      <trkpt lat="44.52237" lon="5.97564">
        <ele>1366</ele>
        <time>2020-05-12T07:45:07Z</time>
      </trkpt>
      <trkpt lat="44.52237" lon="5.97553">
        <ele>1361</ele>
        <time>2020-05-12T07:45:13Z</time>
      </trkpt>
      <trkpt lat="44.52239" lon="5.97549">
        <ele>1361</ele>
        <time>2020-05-12T07:45:19Z</time>
      </trkpt>
      <trkpt lat="44.52245" lon="5.97542">
        <ele>1365</ele>
        <time>2020-05-12T07:45:25Z</time>
      </trkpt>
      <trkpt lat="44.52249" lon="5.9753">
        <ele>1355</ele>
        <time>2020-05-12T07:45:30Z</time>
      </trkpt>
      <trkpt lat="44.52257" lon="5.97513">
        <ele>1350</ele>
        <time>2020-05-12T07:45:36Z</time>
      </trkpt>
      <trkpt lat="44.52256" lon="5.97493">
        <ele>1346</ele>
        <time>2020-05-12T07:45:42Z</time>
      </trkpt>
      <trkpt lat="44.52257" lon="5.9748">
        <ele>1344</ele>
        <time>2020-05-12T07:45:47Z</time>
      </trkpt>
      <trkpt lat="44.52259" lon="5.97467">
        <ele>1348</ele>
        <time>2020-05-12T07:45:53Z</time>
      </trkpt>
      <trkpt lat="44.52262" lon="5.97458">
        <ele>1350</ele>
        <time>2020-05-12T07:45:58Z</time>
      </trkpt>
      <trkpt lat="44.52268" lon="5.97445">
        <ele>1352</ele>
        <time>2020-05-12T07:46:03Z</time>
      </trkpt>
      <trkpt lat="44.52275" lon="5.97435">
        <ele>1353</ele>
        <time>2020-05-12T07:46:09Z</time>
      </trkpt>
      <trkpt lat="44.52285" lon="5.97413">
        <ele>1347</ele>
        <time>2020-05-12T07:46:15Z</time>
      </trkpt>
      <trkpt lat="44.52286" lon="5.97398">
        <ele>1351</ele>
        <time>2020-05-12T07:46:20Z</time>
      </trkpt>
      <trkpt lat="44.52285" lon="5.97386">
        <ele>1354</ele>
        <time>2020-05-12T07:46:26Z</time>
      </trkpt>
      <trkpt lat="44.52284" lon="5.97372">
        <ele>1359</ele>
        <time>2020-05-12T07:46:32Z</time>
      </trkpt>
      <trkpt lat="44.52285" lon="5.97356">
        <ele>1362</ele>
        <time>2020-05-12T07:46:38Z</time>
      </trkpt>
      <trkpt lat="44.52287" lon="5.97344">
        <ele>1365</ele>
        <time>2020-05-12T07:46:43Z</time>
      </trkpt>
      <trkpt lat="44.52293" lon="5.97339">
        <ele>1369</ele>
        <time>2020-05-12T07:46:49Z</time>
      </trkpt>
      <trkpt lat="44.52297" lon="5.97325">
        <ele>1371</ele>
        <time>2020-05-12T07:46:55Z</time>
      </trkpt>
      <trkpt lat="44.523" lon="5.97316">
        <ele>1372</ele>
        <time>2020-05-12T07:47:00Z</time>
      </trkpt>
      <trkpt lat="44.52306" lon="5.97304">
        <ele>1369</ele>
        <time>2020-05-12T07:47:06Z</time>
      </trkpt>
      <trkpt lat="44.52313" lon="5.97286">
        <ele>1364</ele>
        <time>2020-05-12T07:47:12Z</time>
      </trkpt>
      <trkpt lat="44.52314" lon="5.97276">
        <ele>1364</ele>
        <time>2020-05-12T07:47:17Z</time>
      </trkpt>
      <trkpt lat="44.52316" lon="5.97267">
        <ele>1371</ele>
        <time>2020-05-12T07:47:23Z</time>
      </trkpt>
      <trkpt lat="44.52315" lon="5.97266">
        <ele>1371</ele>
        <time>2020-05-12T07:47:28Z</time>
      </trkpt>
      <trkpt lat="44.52315" lon="5.97264">
        <ele>1370</ele>
        <time>2020-05-12T07:47:34Z</time>
      </trkpt>
      <trkpt lat="44.52315" lon="5.97263">
        <ele>1369</ele>
        <time>2020-05-12T07:47:39Z</time>
      </trkpt>
      <trkpt lat="44.52315" lon="5.97263">
        <ele>1369</ele>
        <time>2020-05-12T07:47:44Z</time>
      </trkpt>
      <trkpt lat="44.52311" lon="5.97263">
        <ele>1370</ele>
        <time>2020-05-12T07:47:50Z</time>
      </trkpt>
      <trkpt lat="44.5231" lon="5.97262">
        <ele>1371</ele>
        <time>2020-05-12T07:47:56Z</time>
      </trkpt>
      <trkpt lat="44.52311" lon="5.97262">
        <ele>1373</ele>
        <time>2020-05-12T07:48:01Z</time>
      </trkpt>
      <trkpt lat="44.52318" lon="5.97257">
        <ele>1380</ele>
        <time>2020-05-12T07:48:07Z</time>
      </trkpt>
      <trkpt lat="44.5232" lon="5.97256">
        <ele>1382</ele>
        <time>2020-05-12T07:48:12Z</time>
      </trkpt>
      <trkpt lat="44.5232" lon="5.97256">
        <ele>1383</ele>
        <time>2020-05-12T07:48:18Z</time>
      </trkpt>
      <trkpt lat="44.52321" lon="5.97255">
        <ele>1383</ele>
        <time>2020-05-12T07:48:24Z</time>
      </trkpt>
      <trkpt lat="44.52321" lon="5.97255">
        <ele>1383</ele>
        <time>2020-05-12T07:48:30Z</time>
      </trkpt>
      <trkpt lat="44.5232" lon="5.97255">
        <ele>1383</ele>
        <time>2020-05-12T07:48:36Z</time>
      </trkpt>
      <trkpt lat="44.52323" lon="5.97249">
        <ele>1384</ele>
        <time>2020-05-12T07:48:41Z</time>
      </trkpt>
      <trkpt lat="44.52327" lon="5.9724">
        <ele>1383</ele>
        <time>2020-05-12T07:48:47Z</time>
      </trkpt>
      <trkpt lat="44.52324" lon="5.97233">
        <ele>1383</ele>
        <time>2020-05-12T07:48:52Z</time>
      </trkpt>
      <trkpt lat="44.52324" lon="5.9723">
        <ele>1384</ele>
        <time>2020-05-12T07:48:58Z</time>
      </trkpt>
      <trkpt lat="44.52324" lon="5.97227">
        <ele>1383</ele>
        <time>2020-05-12T07:49:03Z</time>
      </trkpt>
      <trkpt lat="44.52323" lon="5.97224">
        <ele>1384</ele>
        <time>2020-05-12T07:49:09Z</time>
      </trkpt>
      <trkpt lat="44.52322" lon="5.9722">
        <ele>1381</ele>
        <time>2020-05-12T07:49:15Z</time>
      </trkpt>
      <trkpt lat="44.52322" lon="5.97219">
        <ele>1381</ele>
        <time>2020-05-12T07:49:21Z</time>
      </trkpt>
      <trkpt lat="44.52318" lon="5.97216">
        <ele>1380</ele>
        <time>2020-05-12T07:49:27Z</time>
      </trkpt>
      <trkpt lat="44.52318" lon="5.97215">
        <ele>1383</ele>
        <time>2020-05-12T07:49:33Z</time>
      </trkpt>
      <trkpt lat="44.5231" lon="5.97217">
        <ele>1386</ele>
        <time>2020-05-12T07:49:39Z</time>
      </trkpt>
      <trkpt lat="44.52298" lon="5.97222">
        <ele>1386</ele>
        <time>2020-05-12T07:49:44Z</time>
      </trkpt>
      <trkpt lat="44.52289" lon="5.97227">
        <ele>1391</ele>
        <time>2020-05-12T07:49:50Z</time>
      </trkpt>
      <trkpt lat="44.52283" lon="5.97231">
        <ele>1393</ele>
        <time>2020-05-12T07:49:56Z</time>
      </trkpt>
      <trkpt lat="44.52278" lon="5.97236">
        <ele>1401</ele>
        <time>2020-05-12T07:50:02Z</time>
      </trkpt>
      <trkpt lat="44.52277" lon="5.97241">
        <ele>1409</ele>
        <time>2020-05-12T07:50:07Z</time>
      </trkpt>
      <trkpt lat="44.52271" lon="5.97247">
        <ele>1410</ele>
        <time>2020-05-12T07:50:13Z</time>
      </trkpt>
      <trkpt lat="44.52264" lon="5.97255">
        <ele>1409</ele>
        <time>2020-05-12T07:50:18Z</time>
      </trkpt>
      <trkpt lat="44.52261" lon="5.97266">
        <ele>1411</ele>
        <time>2020-05-12T07:50:23Z</time>
      </trkpt>
      <trkpt lat="44.52256" lon="5.97274">
        <ele>1418</ele>
        <time>2020-05-12T07:50:29Z</time>
      </trkpt>
      <trkpt lat="44.52252" lon="5.97283">
        <ele>1417</ele>
        <time>2020-05-12T07:50:34Z</time>
      </trkpt>
      <trkpt lat="44.52248" lon="5.97293">
        <ele>1421</ele>
        <time>2020-05-12T07:50:40Z</time>
      </trkpt>
      <trkpt lat="44.52242" lon="5.97305">
        <ele>1425</ele>
        <time>2020-05-12T07:50:46Z</time>
      </trkpt>
      <trkpt lat="44.52238" lon="5.97315">
        <ele>1427</ele>
        <time>2020-05-12T07:50:51Z</time>
      </trkpt>
      <trkpt lat="44.52228" lon="5.97326">
        <ele>1428</ele>
        <time>2020-05-12T07:50:57Z</time>
      </trkpt>
      <trkpt lat="44.5222" lon="5.97334">
        <ele>1432</ele>
        <time>2020-05-12T07:51:03Z</time>
      </trkpt>
      <trkpt lat="44.52215" lon="5.97339">
        <ele>1431</ele>
        <time>2020-05-12T07:51:08Z</time>
      </trkpt>
      <trkpt lat="44.52204" lon="5.97347">
        <ele>1425</ele>
        <time>2020-05-12T07:51:14Z</time>
      </trkpt>
      <trkpt lat="44.52192" lon="5.97355">
        <ele>1423</ele>
        <time>2020-05-12T07:51:19Z</time>
      </trkpt>
      <trkpt lat="44.52183" lon="5.97357">
        <ele>1420</ele>
        <time>2020-05-12T07:51:24Z</time>
      </trkpt>
      <trkpt lat="44.52173" lon="5.97362">
        <ele>1422</ele>
        <time>2020-05-12T07:51:29Z</time>
      </trkpt>
      <trkpt lat="44.5216" lon="5.97364">
        <ele>1420</ele>
        <time>2020-05-12T07:51:35Z</time>
      </trkpt>
      <trkpt lat="44.52152" lon="5.97367">
        <ele>1426</ele>
        <time>2020-05-12T07:51:41Z</time>
      </trkpt>
      <trkpt lat="44.52146" lon="5.9737">
        <ele>1428</ele>
        <time>2020-05-12T07:51:47Z</time>
      </trkpt>
      <trkpt lat="44.52133" lon="5.97377">
        <ele>1425</ele>
        <time>2020-05-12T07:51:53Z</time>
      </trkpt>
      <trkpt lat="44.52121" lon="5.97383">
        <ele>1423</ele>
        <time>2020-05-12T07:51:58Z</time>
      </trkpt>
      <trkpt lat="44.52115" lon="5.97389">
        <ele>1423</ele>
        <time>2020-05-12T07:52:04Z</time>
      </trkpt>
      <trkpt lat="44.52113" lon="5.97392">
        <ele>1422</ele>
        <time>2020-05-12T07:52:10Z</time>
      </trkpt>
      <trkpt lat="44.52111" lon="5.97394">
        <ele>1424</ele>
        <time>2020-05-12T07:52:15Z</time>
      </trkpt>
      <trkpt lat="44.52106" lon="5.97397">
        <ele>1423</ele>
        <time>2020-05-12T07:52:21Z</time>
      </trkpt>
      <trkpt lat="44.521" lon="5.97395">
        <ele>1425</ele>
        <time>2020-05-12T07:52:26Z</time>
      </trkpt>
      <trkpt lat="44.52094" lon="5.97391">
        <ele>1430</ele>
        <time>2020-05-12T07:52:32Z</time>
      </trkpt>
      <trkpt lat="44.52087" lon="5.97389">
        <ele>1432</ele>
        <time>2020-05-12T07:52:38Z</time>
      </trkpt>
      <trkpt lat="44.5208" lon="5.9739">
        <ele>1432</ele>
        <time>2020-05-12T07:52:44Z</time>
      </trkpt>
      <trkpt lat="44.52068" lon="5.97392">
        <ele>1433</ele>
        <time>2020-05-12T07:52:49Z</time>
      </trkpt>
      <trkpt lat="44.5206" lon="5.97391">
        <ele>1438</ele>
        <time>2020-05-12T07:52:54Z</time>
      </trkpt>
      <trkpt lat="44.52051" lon="5.97386">
        <ele>1436</ele>
        <time>2020-05-12T07:52:59Z</time>
      </trkpt>
      <trkpt lat="44.52047" lon="5.97378">
        <ele>1437</ele>
        <time>2020-05-12T07:53:04Z</time>
      </trkpt>
      <trkpt lat="44.52044" lon="5.97375">
        <ele>1435</ele>
        <time>2020-05-12T07:53:10Z</time>
      </trkpt>
      <trkpt lat="44.52038" lon="5.97374">
        <ele>1430</ele>
        <time>2020-05-12T07:53:16Z</time>
      </trkpt>
      <trkpt lat="44.52036" lon="5.97374">
        <ele>1429</ele>
        <time>2020-05-12T07:53:21Z</time>
      </trkpt>
      <trkpt lat="44.52033" lon="5.97373">
        <ele>1432</ele>
        <time>2020-05-12T07:53:27Z</time>
      </trkpt>
      <trkpt lat="44.52034" lon="5.97371">
        <ele>1437</ele>
        <time>2020-05-12T07:53:33Z</time>
      </trkpt>
      <trkpt lat="44.52028" lon="5.97367">
        <ele>1439</ele>
        <time>2020-05-12T07:53:38Z</time>
      </trkpt>
      <trkpt lat="44.52017" lon="5.97364">
        <ele>1439</ele>
        <time>2020-05-12T07:53:44Z</time>
      </trkpt>
      <trkpt lat="44.52006" lon="5.97361">
        <ele>1435</ele>
        <time>2020-05-12T07:53:50Z</time>
      </trkpt>
      <trkpt lat="44.5199" lon="5.97361">
        <ele>1433</ele>
        <time>2020-05-12T07:53:56Z</time>
      </trkpt>
      <trkpt lat="44.51975" lon="5.97365">
        <ele>1430</ele>
        <time>2020-05-12T07:54:01Z</time>
      </trkpt>
      <trkpt lat="44.51958" lon="5.97372">
        <ele>1427</ele>
        <time>2020-05-12T07:54:07Z</time>
      </trkpt>
      <trkpt lat="44.51951" lon="5.97369">
        <ele>1431</ele>
        <time>2020-05-12T07:54:12Z</time>
      </trkpt>
      <trkpt lat="44.51947" lon="5.97362">
        <ele>1435</ele>
        <time>2020-05-12T07:54:18Z</time>
      </trkpt>
      <trkpt lat="44.51945" lon="5.97355">
        <ele>1437</ele>
        <time>2020-05-12T07:54:23Z</time>
      </trkpt>
      <trkpt lat="44.51939" lon="5.97346">
        <ele>1439</ele>
        <time>2020-05-12T07:54:29Z</time>
      </trkpt>
      <trkpt lat="44.51933" lon="5.97339">
        <ele>1443</ele>
        <time>2020-05-12T07:54:34Z</time>
      </trkpt>
      <trkpt lat="44.51924" lon="5.97331">
        <ele>1443</ele>
        <time>2020-05-12T07:54:39Z</time>
      </trkpt>
      <trkpt lat="44.51915" lon="5.97322">
        <ele>1447</ele>
        <time>2020-05-12T07:54:45Z</time>
      </trkpt>
      <trkpt lat="44.51906" lon="5.97311">
        <ele>1447</ele>
        <time>2020-05-12T07:54:51Z</time>
      </trkpt>
      <trkpt lat="44.51906" lon="5.97304">
        <ele>1452</ele>
        <time>2020-05-12T07:54:57Z</time>
      </trkpt>
      <trkpt lat="44.51905" lon="5.97295">
        <ele>1450</ele>
        <time>2020-05-12T07:55:02Z</time>
      </trkpt>
      <trkpt lat="44.51904" lon="5.97281">
        <ele>1454</ele>
        <time>2020-05-12T07:55:08Z</time>
      </trkpt>
      <trkpt lat="44.51897" lon="5.9727">
        <ele>1457</ele>
        <time>2020-05-12T07:55:13Z</time>
      </trkpt>
      <trkpt lat="44.51885" lon="5.97267">
        <ele>1460</ele>
        <time>2020-05-12T07:55:19Z</time>
      </trkpt>
      <trkpt lat="44.51873" lon="5.97267">
        <ele>1458</ele>
        <time>2020-05-12T07:55:24Z</time>
      </trkpt>
      <trkpt lat="44.51863" lon="5.97261">
        <ele>1458</ele>
        <time>2020-05-12T07:55:30Z</time>
      </trkpt>
      <trkpt lat="44.51855" lon="5.97257">
        <ele>1466</ele>
        <time>2020-05-12T07:55:36Z</time>
      </trkpt>
      <trkpt lat="44.51847" lon="5.97255">
        <ele>1469</ele>
        <time>2020-05-12T07:55:41Z</time>
      </trkpt>
      <trkpt lat="44.51841" lon="5.97247">
        <ele>1468</ele>
        <time>2020-05-12T07:55:47Z</time>
      </trkpt>
      <trkpt lat="44.51836" lon="5.97238">
        <ele>1466</ele>
        <time>2020-05-12T07:55:53Z</time>
      </trkpt>
      <trkpt lat="44.51833" lon="5.97227">
        <ele>1466</ele>
        <time>2020-05-12T07:55:59Z</time>
      </trkpt>
      <trkpt lat="44.51833" lon="5.9722">
        <ele>1465</ele>
        <time>2020-05-12T07:56:05Z</time>
      </trkpt>
      <trkpt lat="44.51831" lon="5.97217">
        <ele>1467</ele>
        <time>2020-05-12T07:56:11Z</time>
      </trkpt>
      <trkpt lat="44.51829" lon="5.97214">
        <ele>1468</ele>
        <time>2020-05-12T07:56:16Z</time>
      </trkpt>
      <trkpt lat="44.51827" lon="5.97207">
        <ele>1473</ele>
        <time>2020-05-12T07:56:22Z</time>
      </trkpt>
      <trkpt lat="44.51823" lon="5.97205">
        <ele>1479</ele>
        <time>2020-05-12T07:56:27Z</time>
      </trkpt>
      <trkpt lat="44.51822" lon="5.97196">
        <ele>1477</ele>
        <time>2020-05-12T07:56:32Z</time>
      </trkpt>
      <trkpt lat="44.5182" lon="5.97178">
        <ele>1476</ele>
        <time>2020-05-12T07:56:38Z</time>
      </trkpt>
      <trkpt lat="44.51814" lon="5.97168">
        <ele>1477</ele>
        <time>2020-05-12T07:56:44Z</time>
      </trkpt>
      <trkpt lat="44.5181" lon="5.9716">
        <ele>1475</ele>
        <time>2020-05-12T07:56:49Z</time>
      </trkpt>
      <trkpt lat="44.51808" lon="5.97154">
        <ele>1474</ele>
        <time>2020-05-12T07:56:55Z</time>
      </trkpt>
      <trkpt lat="44.51808" lon="5.97152">
        <ele>1476</ele>
        <time>2020-05-12T07:57:01Z</time>
      </trkpt>
      <trkpt lat="44.51806" lon="5.97143">
        <ele>1477</ele>
        <time>2020-05-12T07:57:07Z</time>
      </trkpt>
      <trkpt lat="44.51805" lon="5.9714">
        <ele>1477</ele>
        <time>2020-05-12T07:57:12Z</time>
      </trkpt>
      <trkpt lat="44.51802" lon="5.97135">
        <ele>1478</ele>
        <time>2020-05-12T07:57:18Z</time>
      </trkpt>
      <trkpt lat="44.51796" lon="5.97133">
        <ele>1479</ele>
        <time>2020-05-12T07:57:23Z</time>
      </trkpt>
      <trkpt lat="44.51794" lon="5.97132">
        <ele>1479</ele>
        <time>2020-05-12T07:57:28Z</time>
      </trkpt>
      <trkpt lat="44.51794" lon="5.97128">
        <ele>1477</ele>
        <time>2020-05-12T07:57:34Z</time>
      </trkpt>
      <trkpt lat="44.51794" lon="5.97123">
        <ele>1481</ele>
        <time>2020-05-12T07:57:40Z</time>
      </trkpt>
      <trkpt lat="44.51791" lon="5.9712">
        <ele>1480</ele>
        <time>2020-05-12T07:57:45Z</time>
      </trkpt>
      <trkpt lat="44.51784" lon="5.97119">
        <ele>1477</ele>
        <time>2020-05-12T07:57:51Z</time>
      </trkpt>
      <trkpt lat="44.51784" lon="5.9712">
        <ele>1478</ele>
        <time>2020-05-12T07:57:57Z</time>
      </trkpt>
      <trkpt lat="44.51781" lon="5.97123">
        <ele>1475</ele>
        <time>2020-05-12T07:58:02Z</time>
      </trkpt>
      <trkpt lat="44.51776" lon="5.97124">
        <ele>1477</ele>
        <time>2020-05-12T07:58:07Z</time>
      </trkpt>
      <trkpt lat="44.51775" lon="5.97124">
        <ele>1479</ele>
        <time>2020-05-12T07:58:13Z</time>
      </trkpt>
      <trkpt lat="44.51776" lon="5.9713">
        <ele>1483</ele>
        <time>2020-05-12T07:58:19Z</time>
      </trkpt>
      <trkpt lat="44.51768" lon="5.97133">
        <ele>1479</ele>
        <time>2020-05-12T07:58:24Z</time>
      </trkpt>
      <trkpt lat="44.51759" lon="5.97127">
        <ele>1481</ele>
        <time>2020-05-12T07:58:30Z</time>
      </trkpt>
      <trkpt lat="44.51755" lon="5.97123">
        <ele>1486</ele>
        <time>2020-05-12T07:58:35Z</time>
      </trkpt>
      <trkpt lat="44.51745" lon="5.97127">
        <ele>1485</ele>
        <time>2020-05-12T07:58:40Z</time>
      </trkpt>
      <trkpt lat="44.51737" lon="5.97128">
        <ele>1482</ele>
        <time>2020-05-12T07:58:45Z</time>
      </trkpt>
      <trkpt lat="44.51732" lon="5.97119">
        <ele>1485</ele>
        <time>2020-05-12T07:58:51Z</time>
      </trkpt>
      <trkpt lat="44.51729" lon="5.97117">
        <ele>1487</ele>
        <time>2020-05-12T07:58:56Z</time>
      </trkpt>
      <trkpt lat="44.51726" lon="5.97115">
        <ele>1486</ele>
        <time>2020-05-12T07:59:01Z</time>
      </trkpt>
      <trkpt lat="44.51723" lon="5.97112">
        <ele>1486</ele>
        <time>2020-05-12T07:59:07Z</time>
      </trkpt>
      <trkpt lat="44.5172" lon="5.9711">
        <ele>1486</ele>
        <time>2020-05-12T07:59:12Z</time>
      </trkpt>
      <trkpt lat="44.51716" lon="5.97107">
        <ele>1487</ele>
        <time>2020-05-12T07:59:18Z</time>
      </trkpt>
      <trkpt lat="44.51708" lon="5.97105">
        <ele>1486</ele>
        <time>2020-05-12T07:59:23Z</time>
      </trkpt>
      <trkpt lat="44.51703" lon="5.97105">
        <ele>1488</ele>
        <time>2020-05-12T07:59:29Z</time>
      </trkpt>
      <trkpt lat="44.51698" lon="5.97108">
        <ele>1491</ele>
        <time>2020-05-12T07:59:35Z</time>
      </trkpt>
      <trkpt lat="44.51689" lon="5.97105">
        <ele>1493</ele>
        <time>2020-05-12T07:59:41Z</time>
      </trkpt>
      <trkpt lat="44.5168" lon="5.97103">
        <ele>1492</ele>
        <time>2020-05-12T07:59:47Z</time>
      </trkpt>
      <trkpt lat="44.51667" lon="5.97106">
        <ele>1492</ele>
        <time>2020-05-12T07:59:53Z</time>
      </trkpt>
      <trkpt lat="44.51654" lon="5.97105">
        <ele>1487</ele>
        <time>2020-05-12T07:59:59Z</time>
      </trkpt>
      <trkpt lat="44.51643" lon="5.97101">
        <ele>1491</ele>
        <time>2020-05-12T08:00:05Z</time>
      </trkpt>
      <trkpt lat="44.51633" lon="5.971">
        <ele>1494</ele>
        <time>2020-05-12T08:00:11Z</time>
      </trkpt>
      <trkpt lat="44.51631" lon="5.97104">
        <ele>1497</ele>
        <time>2020-05-12T08:00:17Z</time>
      </trkpt>
      <trkpt lat="44.5163" lon="5.97101">
        <ele>1496</ele>
        <time>2020-05-12T08:00:22Z</time>
      </trkpt>
      <trkpt lat="44.5163" lon="5.971">
        <ele>1496</ele>
        <time>2020-05-12T08:00:28Z</time>
      </trkpt>
      <trkpt lat="44.5163" lon="5.971">
        <ele>1496</ele>
        <time>2020-05-12T08:00:34Z</time>
      </trkpt>
      <trkpt lat="44.5163" lon="5.971">
        <ele>1496</ele>
        <time>2020-05-12T08:00:40Z</time>
      </trkpt>
      <trkpt lat="44.51628" lon="5.97098">
        <ele>1497</ele>
        <time>2020-05-12T08:00:46Z</time>
      </trkpt>
      <trkpt lat="44.51622" lon="5.97091">
        <ele>1501</ele>
        <time>2020-05-12T08:00:51Z</time>
      </trkpt>
      <trkpt lat="44.51617" lon="5.97087">
        <ele>1500</ele>
        <time>2020-05-12T08:00:56Z</time>
      </trkpt>
      <trkpt lat="44.51614" lon="5.97083">
        <ele>1499</ele>
        <time>2020-05-12T08:01:02Z</time>
      </trkpt>
      <trkpt lat="44.51614" lon="5.97083">
        <ele>1500</ele>
        <time>2020-05-12T08:01:07Z</time>
      </trkpt>
      <trkpt lat="44.51613" lon="5.97083">
        <ele>1500</ele>
        <time>2020-05-12T08:01:13Z</time>
      </trkpt>
      <trkpt lat="44.51613" lon="5.97083">
        <ele>1500</ele>
        <time>2020-05-12T08:01:19Z</time>
      </trkpt>
      <trkpt lat="44.51613" lon="5.97083">
        <ele>1500</ele>
        <time>2020-05-12T08:01:24Z</time>
      </trkpt>
      <trkpt lat="44.51613" lon="5.97083">
        <ele>1500</ele>
        <time>2020-05-12T08:01:29Z</time>
      </trkpt>
      <trkpt lat="44.51611" lon="5.97079">
        <ele>1497</ele>
        <time>2020-05-12T08:01:35Z</time>
      </trkpt>
      <trkpt lat="44.51611" lon="5.97076">
        <ele>1497</ele>
        <time>2020-05-12T08:01:41Z</time>
      </trkpt>
      <trkpt lat="44.51612" lon="5.97075">
        <ele>1498</ele>
        <time>2020-05-12T08:01:46Z</time>
      </trkpt>
      <trkpt lat="44.5161" lon="5.97073">
        <ele>1497</ele>
        <time>2020-05-12T08:01:52Z</time>
      </trkpt>
      <trkpt lat="44.5161" lon="5.97073">
        <ele>1498</ele>
        <time>2020-05-12T08:01:58Z</time>
      </trkpt>
      <trkpt lat="44.51606" lon="5.97075">
        <ele>1499</ele>
        <time>2020-05-12T08:02:04Z</time>
      </trkpt>
      <trkpt lat="44.51606" lon="5.97073">
        <ele>1498</ele>
        <time>2020-05-12T08:02:09Z</time>
      </trkpt>
      <trkpt lat="44.51605" lon="5.97073">
        <ele>1498</ele>
        <time>2020-05-12T08:02:15Z</time>
      </trkpt>
      <trkpt lat="44.51605" lon="5.97073">
        <ele>1498</ele>
        <time>2020-05-12T08:02:20Z</time>
      </trkpt>
      <trkpt lat="44.51605" lon="5.97073">
        <ele>1498</ele>
        <time>2020-05-12T08:02:26Z</time>
      </trkpt>
      <trkpt lat="44.51605" lon="5.97074">
        <ele>1499</ele>
        <time>2020-05-12T08:02:31Z</time>
      </trkpt>
      <trkpt lat="44.51601" lon="5.97078">
        <ele>1496</ele>
        <time>2020-05-12T08:02:37Z</time>
      </trkpt>
      <trkpt lat="44.51598" lon="5.97076">
        <ele>1496</ele>
        <time>2020-05-12T08:02:43Z</time>
      </trkpt>
      <trkpt lat="44.51599" lon="5.97076">
        <ele>1496</ele>
        <time>2020-05-12T08:02:49Z</time>
      </trkpt>
      <trkpt lat="44.51598" lon="5.97076">
        <ele>1497</ele>
        <time>2020-05-12T08:02:54Z</time>
      </trkpt>
      <trkpt lat="44.51598" lon="5.97075">
        <ele>1497</ele>
        <time>2020-05-12T08:02:59Z</time>
      </trkpt>
      <trkpt lat="44.51601" lon="5.9708">
        <ele>1502</ele>
        <time>2020-05-12T08:03:05Z</time>
      </trkpt>
      <trkpt lat="44.5159" lon="5.97091">
        <ele>1506</ele>
        <time>2020-05-12T08:03:11Z</time>
      </trkpt>
      <trkpt lat="44.51577" lon="5.97097">
        <ele>1508</ele>
        <time>2020-05-12T08:03:17Z</time>
      </trkpt>
      <trkpt lat="44.5157" lon="5.97103">
        <ele>1513</ele>
        <time>2020-05-12T08:03:23Z</time>
      </trkpt>
      <trkpt lat="44.51558" lon="5.97108">
        <ele>1512</ele>
        <time>2020-05-12T08:03:29Z</time>
      </trkpt>
      <trkpt lat="44.51547" lon="5.97105">
        <ele>1516</ele>
        <time>2020-05-12T08:03:35Z</time>
      </trkpt>
      <trkpt lat="44.51539" lon="5.97102">
        <ele>1515</ele>
        <time>2020-05-12T08:03:40Z</time>
      </trkpt>
      <trkpt lat="44.5153" lon="5.97097">
        <ele>1515</ele>
        <time>2020-05-12T08:03:45Z</time>
      </trkpt>
      <trkpt lat="44.5152" lon="5.97096">
        <ele>1517</ele>
        <time>2020-05-12T08:03:50Z</time>
      </trkpt>
      <trkpt lat="44.51506" lon="5.97092">
        <ele>1514</ele>
        <time>2020-05-12T08:03:56Z</time>
      </trkpt>
      <trkpt lat="44.51495" lon="5.97081">
        <ele>1515</ele>
        <time>2020-05-12T08:04:02Z</time>
      </trkpt>
      <trkpt lat="44.51486" lon="5.97071">
        <ele>1516</ele>
        <time>2020-05-12T08:04:08Z</time>
      </trkpt>
      <trkpt lat="44.51475" lon="5.97069">
        <ele>1517</ele>
        <time>2020-05-12T08:04:13Z</time>
      </trkpt>
      <trkpt lat="44.5147" lon="5.97071">
        <ele>1519</ele>
        <time>2020-05-12T08:04:19Z</time>
      </trkpt>
      <trkpt lat="44.51464" lon="5.9707">
        <ele>1521</ele>
        <time>2020-05-12T08:04:24Z</time>
      </trkpt>
      <trkpt lat="44.51457" lon="5.97068">
        <ele>1520</ele>
        <time>2020-05-12T08:04:29Z</time>
      </trkpt>
      <trkpt lat="44.51447" lon="5.9707">
        <ele>1523</ele>
        <time>2020-05-12T08:04:35Z</time>
      </trkpt>
      <trkpt lat="44.51436" lon="5.97068">
        <ele>1526</ele>
        <time>2020-05-12T08:04:41Z</time>
      </trkpt>
      <trkpt lat="44.5143" lon="5.9707">
        <ele>1532</ele>
        <time>2020-05-12T08:04:46Z</time>
      </trkpt>
      <trkpt lat="44.51419" lon="5.9707">
        <ele>1536</ele>
        <time>2020-05-12T08:04:52Z</time>
      </trkpt>
      <trkpt lat="44.51408" lon="5.97073">
        <ele>1540</ele>
        <time>2020-05-12T08:04:57Z</time>
      </trkpt>
      <trkpt lat="44.51395" lon="5.97074">
        <ele>1539</ele>
        <time>2020-05-12T08:05:02Z</time>
      </trkpt>
      <trkpt lat="44.51385" lon="5.97076">
        <ele>1540</ele>
        <time>2020-05-12T08:05:07Z</time>
      </trkpt>
      <trkpt lat="44.51373" lon="5.97077">
        <ele>1539</ele>
        <time>2020-05-12T08:05:12Z</time>
      </trkpt>
      <trkpt lat="44.51358" lon="5.97076">
        <ele>1534</ele>
        <time>2020-05-12T08:05:17Z</time>
      </trkpt>
      <trkpt lat="44.5134" lon="5.97075">
        <ele>1538</ele>
        <time>2020-05-12T08:05:23Z</time>
      </trkpt>
      <trkpt lat="44.51326" lon="5.97077">
        <ele>1539</ele>
        <time>2020-05-12T08:05:29Z</time>
      </trkpt>
      <trkpt lat="44.51313" lon="5.97085">
        <ele>1545</ele>
        <time>2020-05-12T08:05:34Z</time>
      </trkpt>
      <trkpt lat="44.51302" lon="5.97077">
        <ele>1537</ele>
        <time>2020-05-12T08:05:40Z</time>
      </trkpt>
      <trkpt lat="44.51292" lon="5.9707">
        <ele>1539</ele>
        <time>2020-05-12T08:05:45Z</time>
      </trkpt>
      <trkpt lat="44.51288" lon="5.97063">
        <ele>1541</ele>
        <time>2020-05-12T08:05:50Z</time>
      </trkpt>
      <trkpt lat="44.51279" lon="5.97055">
        <ele>1542</ele>
        <time>2020-05-12T08:05:56Z</time>
      </trkpt>
      <trkpt lat="44.51268" lon="5.97054">
        <ele>1544</ele>
        <time>2020-05-12T08:06:02Z</time>
      </trkpt>
      <trkpt lat="44.51262" lon="5.97054">
        <ele>1548</ele>
        <time>2020-05-12T08:06:07Z</time>
      </trkpt>
      <trkpt lat="44.51252" lon="5.97049">
        <ele>1549</ele>
        <time>2020-05-12T08:06:13Z</time>
      </trkpt>
      <trkpt lat="44.51237" lon="5.97044">
        <ele>1550</ele>
        <time>2020-05-12T08:06:19Z</time>
      </trkpt>
      <trkpt lat="44.51221" lon="5.97044">
        <ele>1549</ele>
        <time>2020-05-12T08:06:24Z</time>
      </trkpt>
      <trkpt lat="44.51189" lon="5.97053">
        <ele>1548</ele>
        <time>2020-05-12T08:06:30Z</time>
      </trkpt>
      <trkpt lat="44.51177" lon="5.97056">
        <ele>1545</ele>
        <time>2020-05-12T08:06:35Z</time>
      </trkpt>
      <trkpt lat="44.51173" lon="5.97056">
        <ele>1544</ele>
        <time>2020-05-12T08:06:41Z</time>
      </trkpt>
      <trkpt lat="44.51174" lon="5.97056">
        <ele>1545</ele>
        <time>2020-05-12T08:06:46Z</time>
      </trkpt>
      <trkpt lat="44.5117" lon="5.97056">
        <ele>1543</ele>
        <time>2020-05-12T08:06:52Z</time>
      </trkpt>
      <trkpt lat="44.51162" lon="5.97055">
        <ele>1546</ele>
        <time>2020-05-12T08:06:57Z</time>
      </trkpt>
      <trkpt lat="44.51154" lon="5.97052">
        <ele>1548</ele>
        <time>2020-05-12T08:07:03Z</time>
      </trkpt>
      <trkpt lat="44.51145" lon="5.97049">
        <ele>1547</ele>
        <time>2020-05-12T08:07:08Z</time>
      </trkpt>
      <trkpt lat="44.51136" lon="5.97047">
        <ele>1548</ele>
        <time>2020-05-12T08:07:14Z</time>
      </trkpt>
      <trkpt lat="44.51128" lon="5.97043">
        <ele>1546</ele>
        <time>2020-05-12T08:07:19Z</time>
      </trkpt>
      <trkpt lat="44.51118" lon="5.97044">
        <ele>1549</ele>
        <time>2020-05-12T08:07:25Z</time>
      </trkpt>
      <trkpt lat="44.51108" lon="5.97045">
        <ele>1552</ele>
        <time>2020-05-12T08:07:31Z</time>
      </trkpt>
      <trkpt lat="44.51107" lon="5.97048">
        <ele>1553</ele>
        <time>2020-05-12T08:07:36Z</time>
      </trkpt>
      <trkpt lat="44.51106" lon="5.97047">
        <ele>1557</ele>
        <time>2020-05-12T08:07:41Z</time>
      </trkpt>
      <trkpt lat="44.51107" lon="5.97046">
        <ele>1559</ele>
        <time>2020-05-12T08:07:47Z</time>
      </trkpt>
      <trkpt lat="44.51105" lon="5.97046">
        <ele>1562</ele>
        <time>2020-05-12T08:07:52Z</time>
      </trkpt>
      <trkpt lat="44.51097" lon="5.97048">
        <ele>1565</ele>
        <time>2020-05-12T08:07:57Z</time>
      </trkpt>
      <trkpt lat="44.51088" lon="5.97056">
        <ele>1567</ele>
        <time>2020-05-12T08:08:02Z</time>
      </trkpt>
      <trkpt lat="44.51075" lon="5.97071">
        <ele>1567</ele>
        <time>2020-05-12T08:08:08Z</time>
      </trkpt>
      <trkpt lat="44.51065" lon="5.97086">
        <ele>1568</ele>
        <time>2020-05-12T08:08:14Z</time>
      </trkpt>
      <trkpt lat="44.51049" lon="5.97092">
        <ele>1569</ele>
        <time>2020-05-12T08:08:20Z</time>
      </trkpt>
      <trkpt lat="44.51036" lon="5.97106">
        <ele>1573</ele>
        <time>2020-05-12T08:08:26Z</time>
      </trkpt>
      <trkpt lat="44.51024" lon="5.97117">
        <ele>1573</ele>
        <time>2020-05-12T08:08:31Z</time>
      </trkpt>
      <trkpt lat="44.51007" lon="5.97123">
        <ele>1563</ele>
        <time>2020-05-12T08:08:36Z</time>
      </trkpt>
      <trkpt lat="44.50986" lon="5.97121">
        <ele>1564</ele>
        <time>2020-05-12T08:08:42Z</time>
      </trkpt>
      <trkpt lat="44.50967" lon="5.97117">
        <ele>1567</ele>
        <time>2020-05-12T08:08:48Z</time>
      </trkpt>
      <trkpt lat="44.50946" lon="5.97107">
        <ele>1563</ele>
        <time>2020-05-12T08:08:54Z</time>
      </trkpt>
      <trkpt lat="44.5093" lon="5.97103">
        <ele>1564</ele>
        <time>2020-05-12T08:08:59Z</time>
      </trkpt>
      <trkpt lat="44.50922" lon="5.97101">
        <ele>1570</ele>
        <time>2020-05-12T08:09:04Z</time>
      </trkpt>
      <trkpt lat="44.50913" lon="5.971">
        <ele>1572</ele>
        <time>2020-05-12T08:09:09Z</time>
      </trkpt>
      <trkpt lat="44.50901" lon="5.97094">
        <ele>1572</ele>
        <time>2020-05-12T08:09:15Z</time>
      </trkpt>
      <trkpt lat="44.5089" lon="5.97087">
        <ele>1572</ele>
        <time>2020-05-12T08:09:21Z</time>
      </trkpt>
      <trkpt lat="44.50868" lon="5.97076">
        <ele>1563</ele>
        <time>2020-05-12T08:09:27Z</time>
      </trkpt>
      <trkpt lat="44.50854" lon="5.97066">
        <ele>1561</ele>
        <time>2020-05-12T08:09:32Z</time>
      </trkpt>
      <trkpt lat="44.50838" lon="5.97056">
        <ele>1561</ele>
        <time>2020-05-12T08:09:37Z</time>
      </trkpt>
      <trkpt lat="44.50819" lon="5.97047">
        <ele>1564</ele>
        <time>2020-05-12T08:09:43Z</time>
      </trkpt>
      <trkpt lat="44.508" lon="5.97043">
        <ele>1563</ele>
        <time>2020-05-12T08:09:49Z</time>
      </trkpt>
      <trkpt lat="44.50781" lon="5.97042">
        <ele>1561</ele>
        <time>2020-05-12T08:09:55Z</time>
      </trkpt>
      <trkpt lat="44.50756" lon="5.97039">
        <ele>1556</ele>
        <time>2020-05-12T08:10:01Z</time>
      </trkpt>
      <trkpt lat="44.50738" lon="5.97034">
        <ele>1556</ele>
        <time>2020-05-12T08:10:06Z</time>
      </trkpt>
      <trkpt lat="44.5072" lon="5.97023">
        <ele>1556</ele>
        <time>2020-05-12T08:10:12Z</time>
      </trkpt>
      <trkpt lat="44.50705" lon="5.97018">
        <ele>1559</ele>
        <time>2020-05-12T08:10:17Z</time>
      </trkpt>
      <trkpt lat="44.50686" lon="5.97013">
        <ele>1554</ele>
        <time>2020-05-12T08:10:23Z</time>
      </trkpt>
      <trkpt lat="44.50662" lon="5.97">
        <ele>1556</ele>
        <time>2020-05-12T08:10:29Z</time>
      </trkpt>
      <trkpt lat="44.50635" lon="5.96993">
        <ele>1553</ele>
        <time>2020-05-12T08:10:35Z</time>
      </trkpt>
      <trkpt lat="44.50617" lon="5.96979">
        <ele>1546</ele>
        <time>2020-05-12T08:10:40Z</time>
      </trkpt>
      <trkpt lat="44.50607" lon="5.96958">
        <ele>1547</ele>
        <time>2020-05-12T08:10:45Z</time>
      </trkpt>
      <trkpt lat="44.50592" lon="5.96936">
        <ele>1547</ele>
        <time>2020-05-12T08:10:51Z</time>
      </trkpt>
      <trkpt lat="44.50578" lon="5.96925">
        <ele>1550</ele>
        <time>2020-05-12T08:10:56Z</time>
      </trkpt>
      <trkpt lat="44.50565" lon="5.96915">
        <ele>1548</ele>
        <time>2020-05-12T08:11:02Z</time>
      </trkpt>
      <trkpt lat="44.50556" lon="5.969">
        <ele>1549</ele>
        <time>2020-05-12T08:11:07Z</time>
      </trkpt>
      <trkpt lat="44.50544" lon="5.96899">
        <ele>1548</ele>
        <time>2020-05-12T08:11:12Z</time>
      </trkpt>
      <trkpt lat="44.50531" lon="5.96901">
        <ele>1547</ele>
        <time>2020-05-12T08:11:17Z</time>
      </trkpt>
      <trkpt lat="44.50514" lon="5.96904">
        <ele>1548</ele>
        <time>2020-05-12T08:11:23Z</time>
      </trkpt>
      <trkpt lat="44.50499" lon="5.96902">
        <ele>1547</ele>
        <time>2020-05-12T08:11:28Z</time>
      </trkpt>
      <trkpt lat="44.50475" lon="5.96903">
        <ele>1547</ele>
        <time>2020-05-12T08:11:34Z</time>
      </trkpt>
      <trkpt lat="44.50446" lon="5.96916">
        <ele>1547</ele>
        <time>2020-05-12T08:11:40Z</time>
      </trkpt>
      <trkpt lat="44.50426" lon="5.96922">
        <ele>1547</ele>
        <time>2020-05-12T08:11:45Z</time>
      </trkpt>
      <trkpt lat="44.504" lon="5.96921">
        <ele>1546</ele>
        <time>2020-05-12T08:11:50Z</time>
      </trkpt>
      <trkpt lat="44.50365" lon="5.96909">
        <ele>1538</ele>
        <time>2020-05-12T08:11:56Z</time>
      </trkpt>
      <trkpt lat="44.5034" lon="5.96894">
        <ele>1540</ele>
        <time>2020-05-12T08:12:02Z</time>
      </trkpt>
      <trkpt lat="44.50313" lon="5.96879">
        <ele>1540</ele>
        <time>2020-05-12T08:12:08Z</time>
      </trkpt>
      <trkpt lat="44.50286" lon="5.96871">
        <ele>1536</ele>
        <time>2020-05-12T08:12:13Z</time>
      </trkpt>
      <trkpt lat="44.50255" lon="5.9686">
        <ele>1533</ele>
        <time>2020-05-12T08:12:18Z</time>
      </trkpt>
      <trkpt lat="44.50218" lon="5.96842">
        <ele>1525</ele>
        <time>2020-05-12T08:12:24Z</time>
      </trkpt>
      <trkpt lat="44.50183" lon="5.96828">
        <ele>1523</ele>
        <time>2020-05-12T08:12:30Z</time>
      </trkpt>
      <trkpt lat="44.50145" lon="5.96819">
        <ele>1520</ele>
        <time>2020-05-12T08:12:36Z</time>
      </trkpt>
      <trkpt lat="44.5011" lon="5.96802">
        <ele>1516</ele>
        <time>2020-05-12T08:12:42Z</time>
      </trkpt>
      <trkpt lat="44.50083" lon="5.96792">
        <ele>1517</ele>
        <time>2020-05-12T08:12:47Z</time>
      </trkpt>
      <trkpt lat="44.50043" lon="5.96801">
        <ele>1512</ele>
        <time>2020-05-12T08:12:53Z</time>
      </trkpt>
      <trkpt lat="44.50002" lon="5.96811">
        <ele>1510</ele>
        <time>2020-05-12T08:12:59Z</time>
      </trkpt>
      <trkpt lat="44.49964" lon="5.96795">
        <ele>1500</ele>
        <time>2020-05-12T08:13:04Z</time>
      </trkpt>
      <trkpt lat="44.49943" lon="5.96757">
        <ele>1495</ele>
        <time>2020-05-12T08:13:10Z</time>
      </trkpt>
      <trkpt lat="44.49939" lon="5.96727">
        <ele>1496</ele>
        <time>2020-05-12T08:13:15Z</time>
      </trkpt>
      <trkpt lat="44.49939" lon="5.96689">
        <ele>1495</ele>
        <time>2020-05-12T08:13:21Z</time>
      </trkpt>
      <trkpt lat="44.49931" lon="5.9665">
        <ele>1493</ele>
        <time>2020-05-12T08:13:27Z</time>
      </trkpt>
      <trkpt lat="44.49911" lon="5.96625">
        <ele>1491</ele>
        <time>2020-05-12T08:13:33Z</time>
      </trkpt>
      <trkpt lat="44.49894" lon="5.96596">
        <ele>1492</ele>
        <time>2020-05-12T08:13:39Z</time>
      </trkpt>
      <trkpt lat="44.49875" lon="5.96571">
        <ele>1495</ele>
        <time>2020-05-12T08:13:45Z</time>
      </trkpt>
      <trkpt lat="44.49864" lon="5.96552">
        <ele>1498</ele>
        <time>2020-05-12T08:13:50Z</time>
      </trkpt>
      <trkpt lat="44.49849" lon="5.96533">
        <ele>1501</ele>
        <time>2020-05-12T08:13:56Z</time>
      </trkpt>
      <trkpt lat="44.49837" lon="5.96519">
        <ele>1502</ele>
        <time>2020-05-12T08:14:01Z</time>
      </trkpt>
      <trkpt lat="44.49825" lon="5.96499">
        <ele>1506</ele>
        <time>2020-05-12T08:14:07Z</time>
      </trkpt>
      <trkpt lat="44.49817" lon="5.96479">
        <ele>1506</ele>
        <time>2020-05-12T08:14:12Z</time>
      </trkpt>
      <trkpt lat="44.49809" lon="5.96455">
        <ele>1507</ele>
        <time>2020-05-12T08:14:18Z</time>
      </trkpt>
      <trkpt lat="44.498" lon="5.96437">
        <ele>1507</ele>
        <time>2020-05-12T08:14:24Z</time>
      </trkpt>
      <trkpt lat="44.49793" lon="5.96414">
        <ele>1509</ele>
        <time>2020-05-12T08:14:30Z</time>
      </trkpt>
      <trkpt lat="44.49784" lon="5.96395">
        <ele>1509</ele>
        <time>2020-05-12T08:14:36Z</time>
      </trkpt>
      <trkpt lat="44.49776" lon="5.96385">
        <ele>1508</ele>
        <time>2020-05-12T08:14:41Z</time>
      </trkpt>
      <trkpt lat="44.49765" lon="5.96366">
        <ele>1509</ele>
        <time>2020-05-12T08:14:47Z</time>
      </trkpt>
      <trkpt lat="44.49751" lon="5.9635">
        <ele>1513</ele>
        <time>2020-05-12T08:14:53Z</time>
      </trkpt>
      <trkpt lat="44.49739" lon="5.96336">
        <ele>1516</ele>
        <time>2020-05-12T08:14:58Z</time>
      </trkpt>
      <trkpt lat="44.49728" lon="5.96323">
        <ele>1516</ele>
        <time>2020-05-12T08:15:03Z</time>
      </trkpt>
      <trkpt lat="44.49711" lon="5.96311">
        <ele>1519</ele>
        <time>2020-05-12T08:15:09Z</time>
      </trkpt>
      <trkpt lat="44.49696" lon="5.96288">
        <ele>1520</ele>
        <time>2020-05-12T08:15:15Z</time>
      </trkpt>
      <trkpt lat="44.49685" lon="5.96268">
        <ele>1529</ele>
        <time>2020-05-12T08:15:21Z</time>
      </trkpt>
      <trkpt lat="44.49667" lon="5.96261">
        <ele>1529</ele>
        <time>2020-05-12T08:15:26Z</time>
      </trkpt>
      <trkpt lat="44.49652" lon="5.96251">
        <ele>1530</ele>
        <time>2020-05-12T08:15:31Z</time>
      </trkpt>
      <trkpt lat="44.49636" lon="5.96229">
        <ele>1528</ele>
        <time>2020-05-12T08:15:37Z</time>
      </trkpt>
      <trkpt lat="44.49623" lon="5.96217">
        <ele>1531</ele>
        <time>2020-05-12T08:15:42Z</time>
      </trkpt>
      <trkpt lat="44.496" lon="5.96213">
        <ele>1527</ele>
        <time>2020-05-12T08:15:48Z</time>
      </trkpt>
      <trkpt lat="44.49578" lon="5.96196">
        <ele>1525</ele>
        <time>2020-05-12T08:15:54Z</time>
      </trkpt>
      <trkpt lat="44.4956" lon="5.96183">
        <ele>1527</ele>
        <time>2020-05-12T08:16:00Z</time>
      </trkpt>
      <trkpt lat="44.49545" lon="5.96168">
        <ele>1527</ele>
        <time>2020-05-12T08:16:05Z</time>
      </trkpt>
      <trkpt lat="44.49525" lon="5.96157">
        <ele>1525</ele>
        <time>2020-05-12T08:16:11Z</time>
      </trkpt>
      <trkpt lat="44.49504" lon="5.9615">
        <ele>1526</ele>
        <time>2020-05-12T08:16:16Z</time>
      </trkpt>
      <trkpt lat="44.49489" lon="5.96137">
        <ele>1522</ele>
        <time>2020-05-12T08:16:21Z</time>
      </trkpt>
      <trkpt lat="44.49467" lon="5.96119">
        <ele>1519</ele>
        <time>2020-05-12T08:16:27Z</time>
      </trkpt>
      <trkpt lat="44.49444" lon="5.9611">
        <ele>1520</ele>
        <time>2020-05-12T08:16:33Z</time>
      </trkpt>
      <trkpt lat="44.49427" lon="5.96105">
        <ele>1519</ele>
        <time>2020-05-12T08:16:38Z</time>
      </trkpt>
      <trkpt lat="44.49412" lon="5.96084">
        <ele>1517</ele>
        <time>2020-05-12T08:16:44Z</time>
      </trkpt>
      <trkpt lat="44.49407" lon="5.96051">
        <ele>1516</ele>
        <time>2020-05-12T08:16:50Z</time>
      </trkpt>
      <trkpt lat="44.49399" lon="5.96024">
        <ele>1515</ele>
        <time>2020-05-12T08:16:55Z</time>
      </trkpt>
      <trkpt lat="44.49394" lon="5.95991">
        <ele>1516</ele>
        <time>2020-05-12T08:17:01Z</time>
      </trkpt>
      <trkpt lat="44.49394" lon="5.95953">
        <ele>1516</ele>
        <time>2020-05-12T08:17:07Z</time>
      </trkpt>
      <trkpt lat="44.49397" lon="5.95924">
        <ele>1517</ele>
        <time>2020-05-12T08:17:12Z</time>
      </trkpt>
      <trkpt lat="44.49391" lon="5.95898">
        <ele>1519</ele>
        <time>2020-05-12T08:17:17Z</time>
      </trkpt>
      <trkpt lat="44.49377" lon="5.95858">
        <ele>1515</ele>
        <time>2020-05-12T08:17:23Z</time>
      </trkpt>
      <trkpt lat="44.49366" lon="5.95825">
        <ele>1515</ele>
        <time>2020-05-12T08:17:29Z</time>
      </trkpt>
      <trkpt lat="44.49355" lon="5.95797">
        <ele>1515</ele>
        <time>2020-05-12T08:17:34Z</time>
      </trkpt>
      <trkpt lat="44.49339" lon="5.95765">
        <ele>1513</ele>
        <time>2020-05-12T08:17:40Z</time>
      </trkpt>
      <trkpt lat="44.4933" lon="5.95733">
        <ele>1513</ele>
        <time>2020-05-12T08:17:46Z</time>
      </trkpt>
      <trkpt lat="44.49334" lon="5.95711">
        <ele>1516</ele>
        <time>2020-05-12T08:17:51Z</time>
      </trkpt>
      <trkpt lat="44.49348" lon="5.95674">
        <ele>1516</ele>
        <time>2020-05-12T08:17:57Z</time>
      </trkpt>
      <trkpt lat="44.4936" lon="5.95631">
        <ele>1513</ele>
        <time>2020-05-12T08:18:02Z</time>
      </trkpt>
      <trkpt lat="44.49368" lon="5.95583">
        <ele>1510</ele>
        <time>2020-05-12T08:18:07Z</time>
      </trkpt>
      <trkpt lat="44.49382" lon="5.95545">
        <ele>1504</ele>
        <time>2020-05-12T08:18:12Z</time>
      </trkpt>
      <trkpt lat="44.49377" lon="5.95509">
        <ele>1504</ele>
        <time>2020-05-12T08:18:18Z</time>
      </trkpt>
      <trkpt lat="44.49374" lon="5.95467">
        <ele>1503</ele>
        <time>2020-05-12T08:18:24Z</time>
      </trkpt>
      <trkpt lat="44.49375" lon="5.95419">
        <ele>1502</ele>
        <time>2020-05-12T08:18:30Z</time>
      </trkpt>
      <trkpt lat="44.49377" lon="5.95373">
        <ele>1498</ele>
        <time>2020-05-12T08:18:35Z</time>
      </trkpt>
      <trkpt lat="44.49373" lon="5.95311">
        <ele>1496</ele>
        <time>2020-05-12T08:18:41Z</time>
      </trkpt>
      <trkpt lat="44.49356" lon="5.95248">
        <ele>1495</ele>
        <time>2020-05-12T08:18:47Z</time>
      </trkpt>
      <trkpt lat="44.4934" lon="5.95192">
        <ele>1493</ele>
        <time>2020-05-12T08:18:52Z</time>
      </trkpt>
      <trkpt lat="44.49309" lon="5.95136">
        <ele>1487</ele>
        <time>2020-05-12T08:18:58Z</time>
      </trkpt>
      <trkpt lat="44.49273" lon="5.95092">
        <ele>1481</ele>
        <time>2020-05-12T08:19:04Z</time>
      </trkpt>
      <trkpt lat="44.49245" lon="5.95034">
        <ele>1473</ele>
        <time>2020-05-12T08:19:10Z</time>
      </trkpt>
      <trkpt lat="44.49227" lon="5.94999">
        <ele>1472</ele>
        <time>2020-05-12T08:19:15Z</time>
      </trkpt>
      <trkpt lat="44.4921" lon="5.94963">
        <ele>1474</ele>
        <time>2020-05-12T08:19:21Z</time>
      </trkpt>
      <trkpt lat="44.49198" lon="5.9494">
        <ele>1474</ele>
        <time>2020-05-12T08:19:27Z</time>
      </trkpt>
      <trkpt lat="44.49187" lon="5.94923">
        <ele>1478</ele>
        <time>2020-05-12T08:19:32Z</time>
      </trkpt>
      <trkpt lat="44.49178" lon="5.94909">
        <ele>1481</ele>
        <time>2020-05-12T08:19:37Z</time>
      </trkpt>
      <trkpt lat="44.49165" lon="5.94889">
        <ele>1478</ele>
        <time>2020-05-12T08:19:43Z</time>
      </trkpt>
      <trkpt lat="44.49152" lon="5.94868">
        <ele>1478</ele>
        <time>2020-05-12T08:19:48Z</time>
      </trkpt>
      <trkpt lat="44.49142" lon="5.94843">
        <ele>1480</ele>
        <time>2020-05-12T08:19:54Z</time>
      </trkpt>
      <trkpt lat="44.49132" lon="5.94831">
        <ele>1479</ele>
        <time>2020-05-12T08:19:59Z</time>
      </trkpt>
      <trkpt lat="44.49118" lon="5.94827">
        <ele>1483</ele>
        <time>2020-05-12T08:20:04Z</time>
      </trkpt>
      <trkpt lat="44.49101" lon="5.94828">
        <ele>1483</ele>
        <time>2020-05-12T08:20:10Z</time>
      </trkpt>
      <trkpt lat="44.49087" lon="5.94837">
        <ele>1487</ele>
        <time>2020-05-12T08:20:16Z</time>
      </trkpt>
      <trkpt lat="44.49075" lon="5.94843">
        <ele>1492</ele>
        <time>2020-05-12T08:20:21Z</time>
      </trkpt>
      <trkpt lat="44.4906" lon="5.94847">
        <ele>1495</ele>
        <time>2020-05-12T08:20:27Z</time>
      </trkpt>
      <trkpt lat="44.4905" lon="5.94845">
        <ele>1496</ele>
        <time>2020-05-12T08:20:32Z</time>
      </trkpt>
      <trkpt lat="44.49041" lon="5.94842">
        <ele>1502</ele>
        <time>2020-05-12T08:20:37Z</time>
      </trkpt>
      <trkpt lat="44.49032" lon="5.94824">
        <ele>1495</ele>
        <time>2020-05-12T08:20:43Z</time>
      </trkpt>
      <trkpt lat="44.49035" lon="5.94806">
        <ele>1495</ele>
        <time>2020-05-12T08:20:48Z</time>
      </trkpt>
      <trkpt lat="44.49038" lon="5.94785">
        <ele>1495</ele>
        <time>2020-05-12T08:20:54Z</time>
      </trkpt>
      <trkpt lat="44.49047" lon="5.94769">
        <ele>1493</ele>
        <time>2020-05-12T08:20:59Z</time>
      </trkpt>
      <trkpt lat="44.49062" lon="5.94761">
        <ele>1498</ele>
        <time>2020-05-12T08:21:05Z</time>
      </trkpt>
      <trkpt lat="44.4907" lon="5.94743">
        <ele>1501</ele>
        <time>2020-05-12T08:21:11Z</time>
      </trkpt>
      <trkpt lat="44.49082" lon="5.94708">
        <ele>1503</ele>
        <time>2020-05-12T08:21:19Z</time>
      </trkpt>
      <trkpt lat="44.49085" lon="5.9469">
        <ele>1504</ele>
        <time>2020-05-12T08:21:24Z</time>
      </trkpt>
      <trkpt lat="44.49089" lon="5.94677">
        <ele>1510</ele>
        <time>2020-05-12T08:21:30Z</time>
      </trkpt>
      <trkpt lat="44.49089" lon="5.94657">
        <ele>1511</ele>
        <time>2020-05-12T08:21:35Z</time>
      </trkpt>
      <trkpt lat="44.49093" lon="5.9464">
        <ele>1512</ele>
        <time>2020-05-12T08:21:40Z</time>
      </trkpt>
      <trkpt lat="44.49096" lon="5.94619">
        <ele>1516</ele>
        <time>2020-05-12T08:21:46Z</time>
      </trkpt>
      <trkpt lat="44.49099" lon="5.94601">
        <ele>1518</ele>
        <time>2020-05-12T08:21:51Z</time>
      </trkpt>
      <trkpt lat="44.49105" lon="5.9458">
        <ele>1522</ele>
        <time>2020-05-12T08:21:57Z</time>
      </trkpt>
      <trkpt lat="44.49108" lon="5.94562">
        <ele>1524</ele>
        <time>2020-05-12T08:22:02Z</time>
      </trkpt>
      <trkpt lat="44.49109" lon="5.94549">
        <ele>1524</ele>
        <time>2020-05-12T08:22:07Z</time>
      </trkpt>
      <trkpt lat="44.4911" lon="5.9453">
        <ele>1526</ele>
        <time>2020-05-12T08:22:12Z</time>
      </trkpt>
      <trkpt lat="44.49117" lon="5.94508">
        <ele>1521</ele>
        <time>2020-05-12T08:22:17Z</time>
      </trkpt>
      <trkpt lat="44.49125" lon="5.94488">
        <ele>1522</ele>
        <time>2020-05-12T08:22:23Z</time>
      </trkpt>
      <trkpt lat="44.4914" lon="5.94476">
        <ele>1520</ele>
        <time>2020-05-12T08:22:29Z</time>
      </trkpt>
      <trkpt lat="44.49153" lon="5.94467">
        <ele>1519</ele>
        <time>2020-05-12T08:22:34Z</time>
      </trkpt>
      <trkpt lat="44.49166" lon="5.94461">
        <ele>1520</ele>
        <time>2020-05-12T08:22:39Z</time>
      </trkpt>
      <trkpt lat="44.4918" lon="5.94452">
        <ele>1521</ele>
        <time>2020-05-12T08:22:45Z</time>
      </trkpt>
      <trkpt lat="44.49191" lon="5.94446">
        <ele>1522</ele>
        <time>2020-05-12T08:22:50Z</time>
      </trkpt>
      <trkpt lat="44.49204" lon="5.94436">
        <ele>1523</ele>
        <time>2020-05-12T08:22:55Z</time>
      </trkpt>
      <trkpt lat="44.4922" lon="5.9443">
        <ele>1520</ele>
        <time>2020-05-12T08:23:00Z</time>
      </trkpt>
      <trkpt lat="44.49234" lon="5.94424">
        <ele>1521</ele>
        <time>2020-05-12T08:23:06Z</time>
      </trkpt>
      <trkpt lat="44.49242" lon="5.94409">
        <ele>1518</ele>
        <time>2020-05-12T08:23:11Z</time>
      </trkpt>
      <trkpt lat="44.49249" lon="5.94394">
        <ele>1521</ele>
        <time>2020-05-12T08:23:17Z</time>
      </trkpt>
      <trkpt lat="44.49259" lon="5.94376">
        <ele>1530</ele>
        <time>2020-05-12T08:23:23Z</time>
      </trkpt>
      <trkpt lat="44.49262" lon="5.94353">
        <ele>1534</ele>
        <time>2020-05-12T08:23:28Z</time>
      </trkpt>
      <trkpt lat="44.49267" lon="5.94327">
        <ele>1534</ele>
        <time>2020-05-12T08:23:34Z</time>
      </trkpt>
      <trkpt lat="44.49269" lon="5.94303">
        <ele>1536</ele>
        <time>2020-05-12T08:23:39Z</time>
      </trkpt>
      <trkpt lat="44.49271" lon="5.9428">
        <ele>1536</ele>
        <time>2020-05-12T08:23:45Z</time>
      </trkpt>
      <trkpt lat="44.49271" lon="5.9426">
        <ele>1539</ele>
        <time>2020-05-12T08:23:51Z</time>
      </trkpt>
      <trkpt lat="44.49271" lon="5.94242">
        <ele>1539</ele>
        <time>2020-05-12T08:23:56Z</time>
      </trkpt>
      <trkpt lat="44.49268" lon="5.94219">
        <ele>1538</ele>
        <time>2020-05-12T08:24:01Z</time>
      </trkpt>
      <trkpt lat="44.4927" lon="5.94195">
        <ele>1543</ele>
        <time>2020-05-12T08:24:07Z</time>
      </trkpt>
      <trkpt lat="44.49272" lon="5.9418">
        <ele>1547</ele>
        <time>2020-05-12T08:24:12Z</time>
      </trkpt>
      <trkpt lat="44.49274" lon="5.94159">
        <ele>1550</ele>
        <time>2020-05-12T08:24:18Z</time>
      </trkpt>
      <trkpt lat="44.49276" lon="5.9414">
        <ele>1552</ele>
        <time>2020-05-12T08:24:24Z</time>
      </trkpt>
      <trkpt lat="44.49279" lon="5.94114">
        <ele>1552</ele>
        <time>2020-05-12T08:24:30Z</time>
      </trkpt>
      <trkpt lat="44.49281" lon="5.94095">
        <ele>1556</ele>
        <time>2020-05-12T08:24:35Z</time>
      </trkpt>
      <trkpt lat="44.49286" lon="5.94074">
        <ele>1557</ele>
        <time>2020-05-12T08:24:41Z</time>
      </trkpt>
      <trkpt lat="44.49288" lon="5.94054">
        <ele>1558</ele>
        <time>2020-05-12T08:24:46Z</time>
      </trkpt>
      <trkpt lat="44.49288" lon="5.94037">
        <ele>1560</ele>
        <time>2020-05-12T08:24:51Z</time>
      </trkpt>
      <trkpt lat="44.49291" lon="5.94022">
        <ele>1560</ele>
        <time>2020-05-12T08:24:57Z</time>
      </trkpt>
      <trkpt lat="44.49294" lon="5.94003">
        <ele>1563</ele>
        <time>2020-05-12T08:25:03Z</time>
      </trkpt>
      <trkpt lat="44.49291" lon="5.93983">
        <ele>1563</ele>
        <time>2020-05-12T08:25:08Z</time>
      </trkpt>
      <trkpt lat="44.49289" lon="5.93967">
        <ele>1561</ele>
        <time>2020-05-12T08:25:14Z</time>
      </trkpt>
      <trkpt lat="44.49287" lon="5.93949">
        <ele>1565</ele>
        <time>2020-05-12T08:25:19Z</time>
      </trkpt>
      <trkpt lat="44.49283" lon="5.93927">
        <ele>1564</ele>
        <time>2020-05-12T08:25:24Z</time>
      </trkpt>
      <trkpt lat="44.49279" lon="5.93905">
        <ele>1563</ele>
        <time>2020-05-12T08:25:30Z</time>
      </trkpt>
      <trkpt lat="44.49278" lon="5.93877">
        <ele>1561</ele>
        <time>2020-05-12T08:25:35Z</time>
      </trkpt>
      <trkpt lat="44.49282" lon="5.93854">
        <ele>1561</ele>
        <time>2020-05-12T08:25:41Z</time>
      </trkpt>
      <trkpt lat="44.49286" lon="5.93832">
        <ele>1562</ele>
        <time>2020-05-12T08:25:46Z</time>
      </trkpt>
      <trkpt lat="44.49288" lon="5.93815">
        <ele>1561</ele>
        <time>2020-05-12T08:25:52Z</time>
      </trkpt>
      <trkpt lat="44.49295" lon="5.93796">
        <ele>1561</ele>
        <time>2020-05-12T08:25:57Z</time>
      </trkpt>
      <trkpt lat="44.49308" lon="5.93777">
        <ele>1555</ele>
        <time>2020-05-12T08:26:03Z</time>
      </trkpt>
      <trkpt lat="44.49325" lon="5.93762">
        <ele>1552</ele>
        <time>2020-05-12T08:26:08Z</time>
      </trkpt>
      <trkpt lat="44.49338" lon="5.93742">
        <ele>1553</ele>
        <time>2020-05-12T08:26:14Z</time>
      </trkpt>
      <trkpt lat="44.49352" lon="5.93724">
        <ele>1551</ele>
        <time>2020-05-12T08:26:19Z</time>
      </trkpt>
      <trkpt lat="44.49373" lon="5.93709">
        <ele>1546</ele>
        <time>2020-05-12T08:26:25Z</time>
      </trkpt>
      <trkpt lat="44.49386" lon="5.93698">
        <ele>1546</ele>
        <time>2020-05-12T08:26:30Z</time>
      </trkpt>
      <trkpt lat="44.49401" lon="5.93677">
        <ele>1550</ele>
        <time>2020-05-12T08:26:36Z</time>
      </trkpt>
      <trkpt lat="44.49414" lon="5.9365">
        <ele>1550</ele>
        <time>2020-05-12T08:26:41Z</time>
      </trkpt>
      <trkpt lat="44.4943" lon="5.93625">
        <ele>1551</ele>
        <time>2020-05-12T08:26:47Z</time>
      </trkpt>
      <trkpt lat="44.49448" lon="5.93612">
        <ele>1554</ele>
        <time>2020-05-12T08:26:52Z</time>
      </trkpt>
      <trkpt lat="44.49469" lon="5.936">
        <ele>1554</ele>
        <time>2020-05-12T08:26:58Z</time>
      </trkpt>
      <trkpt lat="44.49491" lon="5.93588">
        <ele>1553</ele>
        <time>2020-05-12T08:27:04Z</time>
      </trkpt>
      <trkpt lat="44.49506" lon="5.93574">
        <ele>1552</ele>
        <time>2020-05-12T08:27:09Z</time>
      </trkpt>
      <trkpt lat="44.4952" lon="5.93552">
        <ele>1554</ele>
        <time>2020-05-12T08:27:14Z</time>
      </trkpt>
      <trkpt lat="44.49538" lon="5.93529">
        <ele>1552</ele>
        <time>2020-05-12T08:27:20Z</time>
      </trkpt>
      <trkpt lat="44.49558" lon="5.93512">
        <ele>1554</ele>
        <time>2020-05-12T08:27:26Z</time>
      </trkpt>
      <trkpt lat="44.49575" lon="5.93506">
        <ele>1555</ele>
        <time>2020-05-12T08:27:31Z</time>
      </trkpt>
      <trkpt lat="44.4959" lon="5.93501">
        <ele>1561</ele>
        <time>2020-05-12T08:27:37Z</time>
      </trkpt>
      <trkpt lat="44.496" lon="5.9349">
        <ele>1566</ele>
        <time>2020-05-12T08:27:43Z</time>
      </trkpt>
      <trkpt lat="44.49606" lon="5.93469">
        <ele>1566</ele>
        <time>2020-05-12T08:27:49Z</time>
      </trkpt>
      <trkpt lat="44.49602" lon="5.93447">
        <ele>1565</ele>
        <time>2020-05-12T08:27:55Z</time>
      </trkpt>
      <trkpt lat="44.49602" lon="5.93421">
        <ele>1567</ele>
        <time>2020-05-12T08:28:00Z</time>
      </trkpt>
      <trkpt lat="44.49603" lon="5.93383">
        <ele>1566</ele>
        <time>2020-05-12T08:28:06Z</time>
      </trkpt>
      <trkpt lat="44.49602" lon="5.93355">
        <ele>1565</ele>
        <time>2020-05-12T08:28:11Z</time>
      </trkpt>
      <trkpt lat="44.496" lon="5.93327">
        <ele>1566</ele>
        <time>2020-05-12T08:28:16Z</time>
      </trkpt>
      <trkpt lat="44.49604" lon="5.93281">
        <ele>1566</ele>
        <time>2020-05-12T08:28:22Z</time>
      </trkpt>
      <trkpt lat="44.49605" lon="5.93252">
        <ele>1566</ele>
        <time>2020-05-12T08:28:28Z</time>
      </trkpt>
      <trkpt lat="44.49605" lon="5.93222">
        <ele>1565</ele>
        <time>2020-05-12T08:28:34Z</time>
      </trkpt>
      <trkpt lat="44.49599" lon="5.93193">
        <ele>1564</ele>
        <time>2020-05-12T08:28:39Z</time>
      </trkpt>
      <trkpt lat="44.49595" lon="5.93153">
        <ele>1563</ele>
        <time>2020-05-12T08:28:45Z</time>
      </trkpt>
      <trkpt lat="44.496" lon="5.93115">
        <ele>1558</ele>
        <time>2020-05-12T08:28:50Z</time>
      </trkpt>
      <trkpt lat="44.49615" lon="5.93086">
        <ele>1559</ele>
        <time>2020-05-12T08:28:55Z</time>
      </trkpt>
      <trkpt lat="44.49641" lon="5.93072">
        <ele>1553</ele>
        <time>2020-05-12T08:29:01Z</time>
      </trkpt>
      <trkpt lat="44.49656" lon="5.93049">
        <ele>1556</ele>
        <time>2020-05-12T08:29:07Z</time>
      </trkpt>
      <trkpt lat="44.49665" lon="5.93025">
        <ele>1560</ele>
        <time>2020-05-12T08:29:12Z</time>
      </trkpt>
      <trkpt lat="44.49671" lon="5.92993">
        <ele>1560</ele>
        <time>2020-05-12T08:29:18Z</time>
      </trkpt>
      <trkpt lat="44.49681" lon="5.92966">
        <ele>1563</ele>
        <time>2020-05-12T08:29:24Z</time>
      </trkpt>
      <trkpt lat="44.49691" lon="5.92944">
        <ele>1562</ele>
        <time>2020-05-12T08:29:29Z</time>
      </trkpt>
      <trkpt lat="44.49702" lon="5.92927">
        <ele>1564</ele>
        <time>2020-05-12T08:29:34Z</time>
      </trkpt>
      <trkpt lat="44.49715" lon="5.92911">
        <ele>1566</ele>
        <time>2020-05-12T08:29:40Z</time>
      </trkpt>
      <trkpt lat="44.4973" lon="5.92902">
        <ele>1565</ele>
        <time>2020-05-12T08:29:46Z</time>
      </trkpt>
      <trkpt lat="44.49743" lon="5.92891">
        <ele>1562</ele>
        <time>2020-05-12T08:29:51Z</time>
      </trkpt>
      <trkpt lat="44.49759" lon="5.92876">
        <ele>1561</ele>
        <time>2020-05-12T08:29:57Z</time>
      </trkpt>
      <trkpt lat="44.4977" lon="5.9286">
        <ele>1565</ele>
        <time>2020-05-12T08:30:03Z</time>
      </trkpt>
      <trkpt lat="44.49778" lon="5.92842">
        <ele>1573</ele>
        <time>2020-05-12T08:30:09Z</time>
      </trkpt>
      <trkpt lat="44.49791" lon="5.92825">
        <ele>1574</ele>
        <time>2020-05-12T08:30:15Z</time>
      </trkpt>
      <trkpt lat="44.49804" lon="5.92811">
        <ele>1571</ele>
        <time>2020-05-12T08:30:21Z</time>
      </trkpt>
      <trkpt lat="44.49817" lon="5.92799">
        <ele>1571</ele>
        <time>2020-05-12T08:30:27Z</time>
      </trkpt>
      <trkpt lat="44.49824" lon="5.92791">
        <ele>1576</ele>
        <time>2020-05-12T08:30:32Z</time>
      </trkpt>
      <trkpt lat="44.49829" lon="5.92785">
        <ele>1574</ele>
        <time>2020-05-12T08:30:38Z</time>
      </trkpt>
      <trkpt lat="44.49828" lon="5.92785">
        <ele>1576</ele>
        <time>2020-05-12T08:30:44Z</time>
      </trkpt>
      <trkpt lat="44.49828" lon="5.92784">
        <ele>1576</ele>
        <time>2020-05-12T08:30:49Z</time>
      </trkpt>
      <trkpt lat="44.49828" lon="5.92784">
        <ele>1576</ele>
        <time>2020-05-12T08:30:55Z</time>
      </trkpt>
      <trkpt lat="44.49828" lon="5.92784">
        <ele>1576</ele>
        <time>2020-05-12T08:31:00Z</time>
      </trkpt>
      <trkpt lat="44.49828" lon="5.92784">
        <ele>1576</ele>
        <time>2020-05-12T08:31:05Z</time>
      </trkpt>
      <trkpt lat="44.49828" lon="5.92784">
        <ele>1576</ele>
        <time>2020-05-12T08:31:11Z</time>
      </trkpt>
      <trkpt lat="44.49828" lon="5.92784">
        <ele>1576</ele>
        <time>2020-05-12T08:31:16Z</time>
      </trkpt>
      <trkpt lat="44.49828" lon="5.92784">
        <ele>1576</ele>
        <time>2020-05-12T08:31:22Z</time>
      </trkpt>
      <trkpt lat="44.49828" lon="5.92784">
        <ele>1576</ele>
        <time>2020-05-12T08:31:28Z</time>
      </trkpt>
      <trkpt lat="44.49828" lon="5.92784">
        <ele>1576</ele>
        <time>2020-05-12T08:31:34Z</time>
      </trkpt>
      <trkpt lat="44.49828" lon="5.92784">
        <ele>1576</ele>
        <time>2020-05-12T08:31:39Z</time>
      </trkpt>
      <trkpt lat="44.49829" lon="5.92783">
        <ele>1578</ele>
        <time>2020-05-12T08:31:44Z</time>
      </trkpt>
      <trkpt lat="44.4984" lon="5.92773">
        <ele>1584</ele>
        <time>2020-05-12T08:31:50Z</time>
      </trkpt>
      <trkpt lat="44.49853" lon="5.92764">
        <ele>1584</ele>
        <time>2020-05-12T08:31:56Z</time>
      </trkpt>
      <trkpt lat="44.49859" lon="5.92752">
        <ele>1582</ele>
        <time>2020-05-12T08:32:02Z</time>
      </trkpt>
      <trkpt lat="44.4986" lon="5.92731">
        <ele>1590</ele>
        <time>2020-05-12T08:32:08Z</time>
      </trkpt>
      <trkpt lat="44.49861" lon="5.92706">
        <ele>1595</ele>
        <time>2020-05-12T08:32:14Z</time>
      </trkpt>
      <trkpt lat="44.49863" lon="5.92688">
        <ele>1600</ele>
        <time>2020-05-12T08:32:19Z</time>
      </trkpt>
      <trkpt lat="44.49864" lon="5.92662">
        <ele>1594</ele>
        <time>2020-05-12T08:32:25Z</time>
      </trkpt>
      <trkpt lat="44.49862" lon="5.92638">
        <ele>1593</ele>
        <time>2020-05-12T08:32:31Z</time>
      </trkpt>
      <trkpt lat="44.49864" lon="5.92618">
        <ele>1590</ele>
        <time>2020-05-12T08:32:36Z</time>
      </trkpt>
      <trkpt lat="44.49867" lon="5.92604">
        <ele>1590</ele>
        <time>2020-05-12T08:32:41Z</time>
      </trkpt>
      <trkpt lat="44.49872" lon="5.92587">
        <ele>1588</ele>
        <time>2020-05-12T08:32:46Z</time>
      </trkpt>
      <trkpt lat="44.49876" lon="5.9257">
        <ele>1586</ele>
        <time>2020-05-12T08:32:51Z</time>
      </trkpt>
      <trkpt lat="44.49876" lon="5.92563">
        <ele>1589</ele>
        <time>2020-05-12T08:32:56Z</time>
      </trkpt>
      <trkpt lat="44.49874" lon="5.92562">
        <ele>1589</ele>
        <time>2020-05-12T08:33:02Z</time>
      </trkpt>
      <trkpt lat="44.49873" lon="5.92562">
        <ele>1589</ele>
        <time>2020-05-12T08:33:08Z</time>
      </trkpt>
      <trkpt lat="44.49874" lon="5.92562">
        <ele>1588</ele>
        <time>2020-05-12T08:33:13Z</time>
      </trkpt>
      <trkpt lat="44.49873" lon="5.92561">
        <ele>1590</ele>
        <time>2020-05-12T08:33:19Z</time>
      </trkpt>
      <trkpt lat="44.49877" lon="5.92547">
        <ele>1589</ele>
        <time>2020-05-12T08:33:24Z</time>
      </trkpt>
      <trkpt lat="44.49886" lon="5.92525">
        <ele>1589</ele>
        <time>2020-05-12T08:33:30Z</time>
      </trkpt>
      <trkpt lat="44.49891" lon="5.92511">
        <ele>1590</ele>
        <time>2020-05-12T08:33:36Z</time>
      </trkpt>
      <trkpt lat="44.49897" lon="5.92506">
        <ele>1593</ele>
        <time>2020-05-12T08:33:41Z</time>
      </trkpt>
      <trkpt lat="44.49904" lon="5.92495">
        <ele>1592</ele>
        <time>2020-05-12T08:33:47Z</time>
      </trkpt>
      <trkpt lat="44.49911" lon="5.92487">
        <ele>1592</ele>
        <time>2020-05-12T08:33:53Z</time>
      </trkpt>
      <trkpt lat="44.49915" lon="5.92485">
        <ele>1596</ele>
        <time>2020-05-12T08:33:58Z</time>
      </trkpt>
      <trkpt lat="44.49917" lon="5.92498">
        <ele>1594</ele>
        <time>2020-05-12T08:34:04Z</time>
      </trkpt>
      <trkpt lat="44.4992" lon="5.92507">
        <ele>1595</ele>
        <time>2020-05-12T08:34:09Z</time>
      </trkpt>
      <trkpt lat="44.4992" lon="5.9252">
        <ele>1597</ele>
        <time>2020-05-12T08:34:15Z</time>
      </trkpt>
      <trkpt lat="44.4992" lon="5.92532">
        <ele>1599</ele>
        <time>2020-05-12T08:34:21Z</time>
      </trkpt>
      <trkpt lat="44.49919" lon="5.92542">
        <ele>1601</ele>
        <time>2020-05-12T08:34:26Z</time>
      </trkpt>
      <trkpt lat="44.4992" lon="5.92555">
        <ele>1606</ele>
        <time>2020-05-12T08:34:32Z</time>
      </trkpt>
      <trkpt lat="44.49919" lon="5.9257">
        <ele>1606</ele>
        <time>2020-05-12T08:34:37Z</time>
      </trkpt>
      <trkpt lat="44.49918" lon="5.92581">
        <ele>1605</ele>
        <time>2020-05-12T08:34:42Z</time>
      </trkpt>
      <trkpt lat="44.4992" lon="5.92593">
        <ele>1607</ele>
        <time>2020-05-12T08:34:48Z</time>
      </trkpt>
      <trkpt lat="44.49918" lon="5.92602">
        <ele>1605</ele>
        <time>2020-05-12T08:34:53Z</time>
      </trkpt>
      <trkpt lat="44.49916" lon="5.92615">
        <ele>1607</ele>
        <time>2020-05-12T08:34:59Z</time>
      </trkpt>
      <trkpt lat="44.49921" lon="5.9262">
        <ele>1609</ele>
        <time>2020-05-12T08:35:05Z</time>
      </trkpt>
      <trkpt lat="44.49923" lon="5.92621">
        <ele>1608</ele>
        <time>2020-05-12T08:35:10Z</time>
      </trkpt>
      <trkpt lat="44.49929" lon="5.92617">
        <ele>1610</ele>
        <time>2020-05-12T08:35:15Z</time>
      </trkpt>
      <trkpt lat="44.49932" lon="5.92615">
        <ele>1617</ele>
        <time>2020-05-12T08:35:21Z</time>
      </trkpt>
      <trkpt lat="44.49934" lon="5.92605">
        <ele>1622</ele>
        <time>2020-05-12T08:35:27Z</time>
      </trkpt>
      <trkpt lat="44.4994" lon="5.92596">
        <ele>1627</ele>
        <time>2020-05-12T08:35:33Z</time>
      </trkpt>
      <trkpt lat="44.49945" lon="5.92587">
        <ele>1624</ele>
        <time>2020-05-12T08:35:38Z</time>
      </trkpt>
      <trkpt lat="44.49947" lon="5.92581">
        <ele>1625</ele>
        <time>2020-05-12T08:35:43Z</time>
      </trkpt>
      <trkpt lat="44.49945" lon="5.92582">
        <ele>1625</ele>
        <time>2020-05-12T08:35:49Z</time>
      </trkpt>
      <trkpt lat="44.49945" lon="5.92586">
        <ele>1625</ele>
        <time>2020-05-12T08:35:54Z</time>
      </trkpt>
      <trkpt lat="44.49946" lon="5.92599">
        <ele>1624</ele>
        <time>2020-05-12T08:35:59Z</time>
      </trkpt>
      <trkpt lat="44.49943" lon="5.92614">
        <ele>1622</ele>
        <time>2020-05-12T08:36:05Z</time>
      </trkpt>
      <trkpt lat="44.49941" lon="5.92628">
        <ele>1621</ele>
        <time>2020-05-12T08:36:10Z</time>
      </trkpt>
      <trkpt lat="44.4994" lon="5.92645">
        <ele>1620</ele>
        <time>2020-05-12T08:36:15Z</time>
      </trkpt>
      <trkpt lat="44.49945" lon="5.92665">
        <ele>1622</ele>
        <time>2020-05-12T08:36:21Z</time>
      </trkpt>
      <trkpt lat="44.49956" lon="5.92675">
        <ele>1621</ele>
        <time>2020-05-12T08:36:26Z</time>
      </trkpt>
      <trkpt lat="44.49963" lon="5.92693">
        <ele>1620</ele>
        <time>2020-05-12T08:36:32Z</time>
      </trkpt>
      <trkpt lat="44.49965" lon="5.92701">
        <ele>1621</ele>
        <time>2020-05-12T08:36:37Z</time>
      </trkpt>
      <trkpt lat="44.49965" lon="5.92714">
        <ele>1618</ele>
        <time>2020-05-12T08:36:43Z</time>
      </trkpt>
      <trkpt lat="44.49961" lon="5.9272">
        <ele>1615</ele>
        <time>2020-05-12T08:36:50Z</time>
      </trkpt>
      <trkpt lat="44.49954" lon="5.92734">
        <ele>1611</ele>
        <time>2020-05-12T08:36:56Z</time>
      </trkpt>
      <trkpt lat="44.4995" lon="5.92748">
        <ele>1613</ele>
        <time>2020-05-12T08:37:02Z</time>
      </trkpt>
      <trkpt lat="44.49948" lon="5.92749">
        <ele>1614</ele>
        <time>2020-05-12T08:37:08Z</time>
      </trkpt>
      <trkpt lat="44.49947" lon="5.92753">
        <ele>1614</ele>
        <time>2020-05-12T08:37:13Z</time>
      </trkpt>
      <trkpt lat="44.49946" lon="5.92756">
        <ele>1614</ele>
        <time>2020-05-12T08:37:19Z</time>
      </trkpt>
      <trkpt lat="44.49944" lon="5.92758">
        <ele>1614</ele>
        <time>2020-05-12T08:37:25Z</time>
      </trkpt>
      <trkpt lat="44.49943" lon="5.9276">
        <ele>1619</ele>
        <time>2020-05-12T08:37:30Z</time>
      </trkpt>
      <trkpt lat="44.49944" lon="5.92761">
        <ele>1618</ele>
        <time>2020-05-12T08:37:36Z</time>
      </trkpt>
      <trkpt lat="44.49944" lon="5.92761">
        <ele>1619</ele>
        <time>2020-05-12T08:37:42Z</time>
      </trkpt>
      <trkpt lat="44.49944" lon="5.92761">
        <ele>1619</ele>
        <time>2020-05-12T08:37:48Z</time>
      </trkpt>
      <trkpt lat="44.49947" lon="5.92756">
        <ele>1621</ele>
        <time>2020-05-12T08:37:54Z</time>
      </trkpt>
      <trkpt lat="44.49955" lon="5.92756">
        <ele>1622</ele>
        <time>2020-05-12T08:38:00Z</time>
      </trkpt>
      <trkpt lat="44.49955" lon="5.92758">
        <ele>1624</ele>
        <time>2020-05-12T08:38:05Z</time>
      </trkpt>
      <trkpt lat="44.49955" lon="5.92761">
        <ele>1622</ele>
        <time>2020-05-12T08:38:10Z</time>
      </trkpt>
      <trkpt lat="44.49954" lon="5.92762">
        <ele>1623</ele>
        <time>2020-05-12T08:38:16Z</time>
      </trkpt>
      <trkpt lat="44.4995" lon="5.92766">
        <ele>1620</ele>
        <time>2020-05-12T08:38:22Z</time>
      </trkpt>
      <trkpt lat="44.49947" lon="5.92774">
        <ele>1619</ele>
        <time>2020-05-12T08:38:27Z</time>
      </trkpt>
      <trkpt lat="44.49947" lon="5.92778">
        <ele>1618</ele>
        <time>2020-05-12T08:38:32Z</time>
      </trkpt>
      <trkpt lat="44.49948" lon="5.92781">
        <ele>1621</ele>
        <time>2020-05-12T08:38:37Z</time>
      </trkpt>
      <trkpt lat="44.49945" lon="5.92791">
        <ele>1624</ele>
        <time>2020-05-12T08:38:43Z</time>
      </trkpt>
      <trkpt lat="44.49945" lon="5.92796">
        <ele>1625</ele>
        <time>2020-05-12T08:38:49Z</time>
      </trkpt>
      <trkpt lat="44.49946" lon="5.92801">
        <ele>1626</ele>
        <time>2020-05-12T08:38:55Z</time>
      </trkpt>
      <trkpt lat="44.49945" lon="5.92809">
        <ele>1626</ele>
        <time>2020-05-12T08:39:00Z</time>
      </trkpt>
      <trkpt lat="44.49946" lon="5.92811">
        <ele>1628</ele>
        <time>2020-05-12T08:39:06Z</time>
      </trkpt>
      <trkpt lat="44.49946" lon="5.92808">
        <ele>1633</ele>
        <time>2020-05-12T08:39:11Z</time>
      </trkpt>
      <trkpt lat="44.49948" lon="5.9281">
        <ele>1630</ele>
        <time>2020-05-12T08:39:17Z</time>
      </trkpt>
      <trkpt lat="44.4995" lon="5.92812">
        <ele>1628</ele>
        <time>2020-05-12T08:39:22Z</time>
      </trkpt>
      <trkpt lat="44.49951" lon="5.92811">
        <ele>1627</ele>
        <time>2020-05-12T08:39:28Z</time>
      </trkpt>
      <trkpt lat="44.49957" lon="5.92813">
        <ele>1628</ele>
        <time>2020-05-12T08:39:33Z</time>
      </trkpt>
      <trkpt lat="44.4996" lon="5.92806">
        <ele>1635</ele>
        <time>2020-05-12T08:39:40Z</time>
      </trkpt>
      <trkpt lat="44.49962" lon="5.92801">
        <ele>1634</ele>
        <time>2020-05-12T08:39:45Z</time>
      </trkpt>
      <trkpt lat="44.49962" lon="5.92803">
        <ele>1636</ele>
        <time>2020-05-12T08:39:51Z</time>
      </trkpt>
      <trkpt lat="44.49961" lon="5.92804">
        <ele>1635</ele>
        <time>2020-05-12T08:39:56Z</time>
      </trkpt>
      <trkpt lat="44.49962" lon="5.92803">
        <ele>1636</ele>
        <time>2020-05-12T08:40:02Z</time>
      </trkpt>
      <trkpt lat="44.4996" lon="5.92803">
        <ele>1636</ele>
        <time>2020-05-12T08:40:07Z</time>
      </trkpt>
      <trkpt lat="44.49958" lon="5.92803">
        <ele>1638</ele>
        <time>2020-05-12T08:40:12Z</time>
      </trkpt>
      <trkpt lat="44.49959" lon="5.92804">
        <ele>1638</ele>
        <time>2020-05-12T08:40:18Z</time>
      </trkpt>
      <trkpt lat="44.49959" lon="5.92809">
        <ele>1640</ele>
        <time>2020-05-12T08:40:24Z</time>
      </trkpt>
      <trkpt lat="44.49959" lon="5.92809">
        <ele>1638</ele>
        <time>2020-05-12T08:40:29Z</time>
      </trkpt>
      <trkpt lat="44.49959" lon="5.92808">
        <ele>1640</ele>
        <time>2020-05-12T08:40:35Z</time>
      </trkpt>
      <trkpt lat="44.49958" lon="5.92819">
        <ele>1636</ele>
        <time>2020-05-12T08:40:40Z</time>
      </trkpt>
      <trkpt lat="44.49956" lon="5.92829">
        <ele>1639</ele>
        <time>2020-05-12T08:40:46Z</time>
      </trkpt>
      <trkpt lat="44.49957" lon="5.92834">
        <ele>1642</ele>
        <time>2020-05-12T08:40:51Z</time>
      </trkpt>
      <trkpt lat="44.49958" lon="5.92841">
        <ele>1644</ele>
        <time>2020-05-12T08:40:58Z</time>
      </trkpt>
      <trkpt lat="44.49957" lon="5.92847">
        <ele>1644</ele>
        <time>2020-05-12T08:41:03Z</time>
      </trkpt>
      <trkpt lat="44.49955" lon="5.9285">
        <ele>1646</ele>
        <time>2020-05-12T08:41:09Z</time>
      </trkpt>
      <trkpt lat="44.49954" lon="5.92851">
        <ele>1648</ele>
        <time>2020-05-12T08:41:14Z</time>
      </trkpt>
      <trkpt lat="44.49951" lon="5.92856">
        <ele>1647</ele>
        <time>2020-05-12T08:41:20Z</time>
      </trkpt>
      <trkpt lat="44.4995" lon="5.92859">
        <ele>1646</ele>
        <time>2020-05-12T08:41:26Z</time>
      </trkpt>
      <trkpt lat="44.4995" lon="5.92863">
        <ele>1649</ele>
        <time>2020-05-12T08:41:31Z</time>
      </trkpt>
      <trkpt lat="44.49948" lon="5.92865">
        <ele>1649</ele>
        <time>2020-05-12T08:41:36Z</time>
      </trkpt>
      <trkpt lat="44.4994" lon="5.92869">
        <ele>1650</ele>
        <time>2020-05-12T08:41:42Z</time>
      </trkpt>
      <trkpt lat="44.49932" lon="5.9288">
        <ele>1648</ele>
        <time>2020-05-12T08:41:48Z</time>
      </trkpt>
      <trkpt lat="44.49924" lon="5.9289">
        <ele>1651</ele>
        <time>2020-05-12T08:41:54Z</time>
      </trkpt>
      <trkpt lat="44.49918" lon="5.92899">
        <ele>1653</ele>
        <time>2020-05-12T08:42:00Z</time>
      </trkpt>
      <trkpt lat="44.49909" lon="5.9291">
        <ele>1653</ele>
        <time>2020-05-12T08:42:05Z</time>
      </trkpt>
      <trkpt lat="44.49904" lon="5.92923">
        <ele>1654</ele>
        <time>2020-05-12T08:42:10Z</time>
      </trkpt>
      <trkpt lat="44.49896" lon="5.92938">
        <ele>1655</ele>
        <time>2020-05-12T08:42:16Z</time>
      </trkpt>
      <trkpt lat="44.4989" lon="5.9295">
        <ele>1655</ele>
        <time>2020-05-12T08:42:22Z</time>
      </trkpt>
      <trkpt lat="44.49885" lon="5.92963">
        <ele>1657</ele>
        <time>2020-05-12T08:42:27Z</time>
      </trkpt>
      <trkpt lat="44.49879" lon="5.92976">
        <ele>1660</ele>
        <time>2020-05-12T08:42:33Z</time>
      </trkpt>
      <trkpt lat="44.49871" lon="5.92987">
        <ele>1660</ele>
        <time>2020-05-12T08:42:40Z</time>
      </trkpt>
      <trkpt lat="44.49865" lon="5.92997">
        <ele>1660</ele>
        <time>2020-05-12T08:42:45Z</time>
      </trkpt>
      <trkpt lat="44.49858" lon="5.9301">
        <ele>1661</ele>
        <time>2020-05-12T08:42:50Z</time>
      </trkpt>
      <trkpt lat="44.4985" lon="5.93023">
        <ele>1662</ele>
        <time>2020-05-12T08:42:56Z</time>
      </trkpt>
      <trkpt lat="44.49844" lon="5.93036">
        <ele>1664</ele>
        <time>2020-05-12T08:43:02Z</time>
      </trkpt>
      <trkpt lat="44.49841" lon="5.93051">
        <ele>1664</ele>
        <time>2020-05-12T08:43:07Z</time>
      </trkpt>
      <trkpt lat="44.49837" lon="5.93066">
        <ele>1665</ele>
        <time>2020-05-12T08:43:12Z</time>
      </trkpt>
      <trkpt lat="44.49833" lon="5.93085">
        <ele>1664</ele>
        <time>2020-05-12T08:43:18Z</time>
      </trkpt>
      <trkpt lat="44.49829" lon="5.93099">
        <ele>1665</ele>
        <time>2020-05-12T08:43:23Z</time>
      </trkpt>
      <trkpt lat="44.49831" lon="5.9311">
        <ele>1664</ele>
        <time>2020-05-12T08:43:29Z</time>
      </trkpt>
      <trkpt lat="44.49831" lon="5.93116">
        <ele>1662</ele>
        <time>2020-05-12T08:43:35Z</time>
      </trkpt>
      <trkpt lat="44.49824" lon="5.93131">
        <ele>1662</ele>
        <time>2020-05-12T08:43:41Z</time>
      </trkpt>
      <trkpt lat="44.4982" lon="5.93147">
        <ele>1662</ele>
        <time>2020-05-12T08:43:46Z</time>
      </trkpt>
      <trkpt lat="44.49813" lon="5.93167">
        <ele>1663</ele>
        <time>2020-05-12T08:43:52Z</time>
      </trkpt>
      <trkpt lat="44.49803" lon="5.93189">
        <ele>1664</ele>
        <time>2020-05-12T08:43:58Z</time>
      </trkpt>
      <trkpt lat="44.49792" lon="5.93213">
        <ele>1667</ele>
        <time>2020-05-12T08:44:04Z</time>
      </trkpt>
      <trkpt lat="44.49786" lon="5.93231">
        <ele>1669</ele>
        <time>2020-05-12T08:44:10Z</time>
      </trkpt>
      <trkpt lat="44.49785" lon="5.93232">
        <ele>1670</ele>
        <time>2020-05-12T08:44:16Z</time>
      </trkpt>
      <trkpt lat="44.49786" lon="5.93233">
        <ele>1670</ele>
        <time>2020-05-12T08:44:22Z</time>
      </trkpt>
      <trkpt lat="44.49786" lon="5.93233">
        <ele>1670</ele>
        <time>2020-05-12T08:44:28Z</time>
      </trkpt>
      <trkpt lat="44.49786" lon="5.93233">
        <ele>1669</ele>
        <time>2020-05-12T08:44:33Z</time>
      </trkpt>
      <trkpt lat="44.49786" lon="5.93233">
        <ele>1670</ele>
        <time>2020-05-12T08:44:39Z</time>
      </trkpt>
      <trkpt lat="44.49786" lon="5.93233">
        <ele>1670</ele>
        <time>2020-05-12T08:44:45Z</time>
      </trkpt>
      <trkpt lat="44.49786" lon="5.93233">
        <ele>1670</ele>
        <time>2020-05-12T08:44:50Z</time>
      </trkpt>
      <trkpt lat="44.49786" lon="5.93233">
        <ele>1670</ele>
        <time>2020-05-12T08:44:55Z</time>
      </trkpt>
      <trkpt lat="44.49786" lon="5.93233">
        <ele>1670</ele>
        <time>2020-05-12T08:45:00Z</time>
      </trkpt>
      <trkpt lat="44.49786" lon="5.93233">
        <ele>1670</ele>
        <time>2020-05-12T08:45:05Z</time>
      </trkpt>
      <trkpt lat="44.49786" lon="5.93233">
        <ele>1670</ele>
        <time>2020-05-12T08:45:11Z</time>
      </trkpt>
      <trkpt lat="44.49786" lon="5.93233">
        <ele>1670</ele>
        <time>2020-05-12T08:45:17Z</time>
      </trkpt>
      <trkpt lat="44.49786" lon="5.93233">
        <ele>1670</ele>
        <time>2020-05-12T08:45:22Z</time>
      </trkpt>
      <trkpt lat="44.49786" lon="5.93233">
        <ele>1670</ele>
        <time>2020-05-12T08:45:27Z</time>
      </trkpt>
      <trkpt lat="44.49786" lon="5.93233">
        <ele>1670</ele>
        <time>2020-05-12T08:45:33Z</time>
      </trkpt>
      <trkpt lat="44.49786" lon="5.93233">
        <ele>1670</ele>
        <time>2020-05-12T08:45:38Z</time>
      </trkpt>
      <trkpt lat="44.49786" lon="5.93233">
        <ele>1670</ele>
        <time>2020-05-12T08:45:44Z</time>
      </trkpt>
      <trkpt lat="44.49786" lon="5.93233">
        <ele>1670</ele>
        <time>2020-05-12T08:45:50Z</time>
      </trkpt>
      <trkpt lat="44.49786" lon="5.93233">
        <ele>1670</ele>
        <time>2020-05-12T08:45:56Z</time>
      </trkpt>
      <trkpt lat="44.49786" lon="5.93233">
        <ele>1670</ele>
        <time>2020-05-12T08:46:01Z</time>
      </trkpt>
      <trkpt lat="44.49786" lon="5.93233">
        <ele>1670</ele>
        <time>2020-05-12T08:46:07Z</time>
      </trkpt>
      <trkpt lat="44.49786" lon="5.93233">
        <ele>1669</ele>
        <time>2020-05-12T08:46:12Z</time>
      </trkpt>
      <trkpt lat="44.49783" lon="5.93241">
        <ele>1670</ele>
        <time>2020-05-12T08:46:17Z</time>
      </trkpt>
      <trkpt lat="44.4978" lon="5.93257">
        <ele>1670</ele>
        <time>2020-05-12T08:46:22Z</time>
      </trkpt>
      <trkpt lat="44.49777" lon="5.93279">
        <ele>1673</ele>
        <time>2020-05-12T08:46:28Z</time>
      </trkpt>
      <trkpt lat="44.49776" lon="5.93294">
        <ele>1674</ele>
        <time>2020-05-12T08:46:33Z</time>
      </trkpt>
      <trkpt lat="44.49774" lon="5.93316">
        <ele>1673</ele>
        <time>2020-05-12T08:46:39Z</time>
      </trkpt>
      <trkpt lat="44.49774" lon="5.93342">
        <ele>1673</ele>
        <time>2020-05-12T08:46:45Z</time>
      </trkpt>
      <trkpt lat="44.49776" lon="5.93361">
        <ele>1671</ele>
        <time>2020-05-12T08:46:50Z</time>
      </trkpt>
      <trkpt lat="44.49777" lon="5.93391">
        <ele>1669</ele>
        <time>2020-05-12T08:46:56Z</time>
      </trkpt>
      <trkpt lat="44.49776" lon="5.93413">
        <ele>1668</ele>
        <time>2020-05-12T08:47:01Z</time>
      </trkpt>
      <trkpt lat="44.49778" lon="5.93426">
        <ele>1665</ele>
        <time>2020-05-12T08:47:07Z</time>
      </trkpt>
      <trkpt lat="44.49778" lon="5.93445">
        <ele>1662</ele>
        <time>2020-05-12T08:47:13Z</time>
      </trkpt>
      <trkpt lat="44.49787" lon="5.93477">
        <ele>1656</ele>
        <time>2020-05-12T08:47:19Z</time>
      </trkpt>
      <trkpt lat="44.4979" lon="5.93505">
        <ele>1659</ele>
        <time>2020-05-12T08:47:25Z</time>
      </trkpt>
      <trkpt lat="44.49786" lon="5.93533">
        <ele>1664</ele>
        <time>2020-05-12T08:47:30Z</time>
      </trkpt>
      <trkpt lat="44.49783" lon="5.93553">
        <ele>1669</ele>
        <time>2020-05-12T08:47:36Z</time>
      </trkpt>
      <trkpt lat="44.49781" lon="5.9356">
        <ele>1676</ele>
        <time>2020-05-12T08:47:41Z</time>
      </trkpt>
      <trkpt lat="44.49777" lon="5.93568">
        <ele>1676</ele>
        <time>2020-05-12T08:47:46Z</time>
      </trkpt>
      <trkpt lat="44.49774" lon="5.93582">
        <ele>1678</ele>
        <time>2020-05-12T08:47:51Z</time>
      </trkpt>
      <trkpt lat="44.49769" lon="5.936">
        <ele>1679</ele>
        <time>2020-05-12T08:47:57Z</time>
      </trkpt>
      <trkpt lat="44.49768" lon="5.93608">
        <ele>1680</ele>
        <time>2020-05-12T08:48:02Z</time>
      </trkpt>
      <trkpt lat="44.49767" lon="5.93615">
        <ele>1679</ele>
        <time>2020-05-12T08:48:08Z</time>
      </trkpt>
      <trkpt lat="44.49762" lon="5.93622">
        <ele>1677</ele>
        <time>2020-05-12T08:48:13Z</time>
      </trkpt>
      <trkpt lat="44.49745" lon="5.93632">
        <ele>1675</ele>
        <time>2020-05-12T08:48:18Z</time>
      </trkpt>
      <trkpt lat="44.49726" lon="5.93662">
        <ele>1670</ele>
        <time>2020-05-12T08:48:24Z</time>
      </trkpt>
      <trkpt lat="44.49707" lon="5.93683">
        <ele>1667</ele>
        <time>2020-05-12T08:48:29Z</time>
      </trkpt>
      <trkpt lat="44.4969" lon="5.93701">
        <ele>1664</ele>
        <time>2020-05-12T08:48:34Z</time>
      </trkpt>
      <trkpt lat="44.49668" lon="5.93717">
        <ele>1660</ele>
        <time>2020-05-12T08:48:40Z</time>
      </trkpt>
      <trkpt lat="44.49654" lon="5.93733">
        <ele>1661</ele>
        <time>2020-05-12T08:48:46Z</time>
      </trkpt>
      <trkpt lat="44.49643" lon="5.93746">
        <ele>1665</ele>
        <time>2020-05-12T08:48:51Z</time>
      </trkpt>
      <trkpt lat="44.49629" lon="5.93755">
        <ele>1670</ele>
        <time>2020-05-12T08:48:57Z</time>
      </trkpt>
      <trkpt lat="44.49619" lon="5.93766">
        <ele>1674</ele>
        <time>2020-05-12T08:49:02Z</time>
      </trkpt>
      <trkpt lat="44.49604" lon="5.93782">
        <ele>1673</ele>
        <time>2020-05-12T08:49:08Z</time>
      </trkpt>
      <trkpt lat="44.4959" lon="5.93796">
        <ele>1677</ele>
        <time>2020-05-12T08:49:14Z</time>
      </trkpt>
      <trkpt lat="44.49578" lon="5.9381">
        <ele>1679</ele>
        <time>2020-05-12T08:49:20Z</time>
      </trkpt>
      <trkpt lat="44.49571" lon="5.93826">
        <ele>1680</ele>
        <time>2020-05-12T08:49:25Z</time>
      </trkpt>
      <trkpt lat="44.49563" lon="5.93845">
        <ele>1678</ele>
        <time>2020-05-12T08:49:30Z</time>
      </trkpt>
      <trkpt lat="44.49554" lon="5.93863">
        <ele>1682</ele>
        <time>2020-05-12T08:49:36Z</time>
      </trkpt>
      <trkpt lat="44.49547" lon="5.93879">
        <ele>1682</ele>
        <time>2020-05-12T08:49:41Z</time>
      </trkpt>
      <trkpt lat="44.49539" lon="5.93904">
        <ele>1683</ele>
        <time>2020-05-12T08:49:47Z</time>
      </trkpt>
      <trkpt lat="44.49535" lon="5.93924">
        <ele>1685</ele>
        <time>2020-05-12T08:49:52Z</time>
      </trkpt>
      <trkpt lat="44.49534" lon="5.93947">
        <ele>1682</ele>
        <time>2020-05-12T08:49:58Z</time>
      </trkpt>
      <trkpt lat="44.49534" lon="5.93948">
        <ele>1682</ele>
        <time>2020-05-12T08:50:03Z</time>
      </trkpt>
      <trkpt lat="44.49535" lon="5.93949">
        <ele>1683</ele>
        <time>2020-05-12T08:50:08Z</time>
      </trkpt>
      <trkpt lat="44.49536" lon="5.93953">
        <ele>1681</ele>
        <time>2020-05-12T08:50:14Z</time>
      </trkpt>
      <trkpt lat="44.49536" lon="5.93957">
        <ele>1679</ele>
        <time>2020-05-12T08:50:19Z</time>
      </trkpt>
      <trkpt lat="44.49537" lon="5.93961">
        <ele>1678</ele>
        <time>2020-05-12T08:50:24Z</time>
      </trkpt>
      <trkpt lat="44.49537" lon="5.93963">
        <ele>1677</ele>
        <time>2020-05-12T08:50:30Z</time>
      </trkpt>
      <trkpt lat="44.49534" lon="5.93964">
        <ele>1677</ele>
        <time>2020-05-12T08:50:36Z</time>
      </trkpt>
      <trkpt lat="44.49527" lon="5.93978">
        <ele>1676</ele>
        <time>2020-05-12T08:50:42Z</time>
      </trkpt>
      <trkpt lat="44.49529" lon="5.93989">
        <ele>1678</ele>
        <time>2020-05-12T08:50:47Z</time>
      </trkpt>
      <trkpt lat="44.4953" lon="5.94008">
        <ele>1681</ele>
        <time>2020-05-12T08:50:52Z</time>
      </trkpt>
      <trkpt lat="44.49525" lon="5.94041">
        <ele>1686</ele>
        <time>2020-05-12T08:50:58Z</time>
      </trkpt>
      <trkpt lat="44.49528" lon="5.94052">
        <ele>1689</ele>
        <time>2020-05-12T08:51:03Z</time>
      </trkpt>
      <trkpt lat="44.49534" lon="5.94072">
        <ele>1692</ele>
        <time>2020-05-12T08:51:09Z</time>
      </trkpt>
      <trkpt lat="44.49532" lon="5.94093">
        <ele>1691</ele>
        <time>2020-05-12T08:51:14Z</time>
      </trkpt>
      <trkpt lat="44.49524" lon="5.9412">
        <ele>1693</ele>
        <time>2020-05-12T08:51:20Z</time>
      </trkpt>
      <trkpt lat="44.49522" lon="5.94147">
        <ele>1696</ele>
        <time>2020-05-12T08:51:26Z</time>
      </trkpt>
      <trkpt lat="44.4952" lon="5.94169">
        <ele>1697</ele>
        <time>2020-05-12T08:51:32Z</time>
      </trkpt>
      <trkpt lat="44.49518" lon="5.94186">
        <ele>1700</ele>
        <time>2020-05-12T08:51:38Z</time>
      </trkpt>
      <trkpt lat="44.49518" lon="5.94204">
        <ele>1701</ele>
        <time>2020-05-12T08:51:43Z</time>
      </trkpt>
      <trkpt lat="44.49519" lon="5.94225">
        <ele>1702</ele>
        <time>2020-05-12T08:51:49Z</time>
      </trkpt>
      <trkpt lat="44.49528" lon="5.94245">
        <ele>1700</ele>
        <time>2020-05-12T08:51:54Z</time>
      </trkpt>
      <trkpt lat="44.49533" lon="5.94257">
        <ele>1704</ele>
        <time>2020-05-12T08:52:00Z</time>
      </trkpt>
      <trkpt lat="44.49536" lon="5.9426">
        <ele>1702</ele>
        <time>2020-05-12T08:52:05Z</time>
      </trkpt>
      <trkpt lat="44.4954" lon="5.94267">
        <ele>1705</ele>
        <time>2020-05-12T08:52:11Z</time>
      </trkpt>
      <trkpt lat="44.49547" lon="5.94274">
        <ele>1706</ele>
        <time>2020-05-12T08:52:16Z</time>
      </trkpt>
      <trkpt lat="44.49546" lon="5.94275">
        <ele>1705</ele>
        <time>2020-05-12T08:52:22Z</time>
      </trkpt>
      <trkpt lat="44.49545" lon="5.94278">
        <ele>1704</ele>
        <time>2020-05-12T08:52:27Z</time>
      </trkpt>
      <trkpt lat="44.49545" lon="5.94289">
        <ele>1701</ele>
        <time>2020-05-12T08:52:33Z</time>
      </trkpt>
      <trkpt lat="44.49544" lon="5.94289">
        <ele>1700</ele>
        <time>2020-05-12T08:52:38Z</time>
      </trkpt>
      <trkpt lat="44.49544" lon="5.94293">
        <ele>1700</ele>
        <time>2020-05-12T08:52:44Z</time>
      </trkpt>
      <trkpt lat="44.49543" lon="5.94294">
        <ele>1703</ele>
        <time>2020-05-12T08:52:50Z</time>
      </trkpt>
      <trkpt lat="44.49544" lon="5.94297">
        <ele>1702</ele>
        <time>2020-05-12T08:52:55Z</time>
      </trkpt>
      <trkpt lat="44.49541" lon="5.94315">
        <ele>1698</ele>
        <time>2020-05-12T08:53:00Z</time>
      </trkpt>
      <trkpt lat="44.49534" lon="5.94331">
        <ele>1700</ele>
        <time>2020-05-12T08:53:06Z</time>
      </trkpt>
      <trkpt lat="44.49534" lon="5.94353">
        <ele>1701</ele>
        <time>2020-05-12T08:53:11Z</time>
      </trkpt>
      <trkpt lat="44.49534" lon="5.94381">
        <ele>1701</ele>
        <time>2020-05-12T08:53:16Z</time>
      </trkpt>
      <trkpt lat="44.49533" lon="5.94414">
        <ele>1700</ele>
        <time>2020-05-12T08:53:22Z</time>
      </trkpt>
      <trkpt lat="44.49535" lon="5.9444">
        <ele>1690</ele>
        <time>2020-05-12T08:53:28Z</time>
      </trkpt>
      <trkpt lat="44.49536" lon="5.94462">
        <ele>1693</ele>
        <time>2020-05-12T08:53:33Z</time>
      </trkpt>
      <trkpt lat="44.49535" lon="5.94478">
        <ele>1693</ele>
        <time>2020-05-12T08:53:38Z</time>
      </trkpt>
      <trkpt lat="44.4953" lon="5.9451">
        <ele>1695</ele>
        <time>2020-05-12T08:53:44Z</time>
      </trkpt>
      <trkpt lat="44.49519" lon="5.94533">
        <ele>1696</ele>
        <time>2020-05-12T08:53:50Z</time>
      </trkpt>
      <trkpt lat="44.49516" lon="5.94558">
        <ele>1694</ele>
        <time>2020-05-12T08:53:55Z</time>
      </trkpt>
      <trkpt lat="44.49523" lon="5.94582">
        <ele>1693</ele>
        <time>2020-05-12T08:54:01Z</time>
      </trkpt>
      <trkpt lat="44.49529" lon="5.94602">
        <ele>1694</ele>
        <time>2020-05-12T08:54:06Z</time>
      </trkpt>
      <trkpt lat="44.4954" lon="5.94629">
        <ele>1692</ele>
        <time>2020-05-12T08:54:12Z</time>
      </trkpt>
      <trkpt lat="44.49552" lon="5.94645">
        <ele>1690</ele>
        <time>2020-05-12T08:54:17Z</time>
      </trkpt>
      <trkpt lat="44.49569" lon="5.94665">
        <ele>1694</ele>
        <time>2020-05-12T08:54:23Z</time>
      </trkpt>
      <trkpt lat="44.49578" lon="5.94684">
        <ele>1695</ele>
        <time>2020-05-12T08:54:28Z</time>
      </trkpt>
      <trkpt lat="44.49585" lon="5.9471">
        <ele>1696</ele>
        <time>2020-05-12T08:54:34Z</time>
      </trkpt>
      <trkpt lat="44.4959" lon="5.94741">
        <ele>1699</ele>
        <time>2020-05-12T08:54:40Z</time>
      </trkpt>
      <trkpt lat="44.49597" lon="5.94775">
        <ele>1697</ele>
        <time>2020-05-12T08:54:46Z</time>
      </trkpt>
      <trkpt lat="44.49603" lon="5.94792">
        <ele>1701</ele>
        <time>2020-05-12T08:54:51Z</time>
      </trkpt>
      <trkpt lat="44.49606" lon="5.9481">
        <ele>1704</ele>
        <time>2020-05-12T08:54:56Z</time>
      </trkpt>
      <trkpt lat="44.49613" lon="5.94831">
        <ele>1701</ele>
        <time>2020-05-12T08:55:01Z</time>
      </trkpt>
      <trkpt lat="44.49621" lon="5.94854">
        <ele>1702</ele>
        <time>2020-05-12T08:55:06Z</time>
      </trkpt>
      <trkpt lat="44.49632" lon="5.94882">
        <ele>1703</ele>
        <time>2020-05-12T08:55:12Z</time>
      </trkpt>
      <trkpt lat="44.49639" lon="5.94903">
        <ele>1705</ele>
        <time>2020-05-12T08:55:17Z</time>
      </trkpt>
      <trkpt lat="44.49647" lon="5.94934">
        <ele>1706</ele>
        <time>2020-05-12T08:55:23Z</time>
      </trkpt>
      <trkpt lat="44.49654" lon="5.94951">
        <ele>1706</ele>
        <time>2020-05-12T08:55:29Z</time>
      </trkpt>
      <trkpt lat="44.4966" lon="5.94968">
        <ele>1705</ele>
        <time>2020-05-12T08:55:35Z</time>
      </trkpt>
      <trkpt lat="44.49662" lon="5.94987">
        <ele>1704</ele>
        <time>2020-05-12T08:55:41Z</time>
      </trkpt>
      <trkpt lat="44.49662" lon="5.94995">
        <ele>1709</ele>
        <time>2020-05-12T08:55:46Z</time>
      </trkpt>
      <trkpt lat="44.49665" lon="5.9501">
        <ele>1711</ele>
        <time>2020-05-12T08:55:52Z</time>
      </trkpt>
      <trkpt lat="44.49666" lon="5.95025">
        <ele>1715</ele>
        <time>2020-05-12T08:55:58Z</time>
      </trkpt>
      <trkpt lat="44.49669" lon="5.9504">
        <ele>1711</ele>
        <time>2020-05-12T08:56:03Z</time>
      </trkpt>
      <trkpt lat="44.49672" lon="5.95062">
        <ele>1712</ele>
        <time>2020-05-12T08:56:08Z</time>
      </trkpt>
      <trkpt lat="44.49675" lon="5.95083">
        <ele>1712</ele>
        <time>2020-05-12T08:56:14Z</time>
      </trkpt>
      <trkpt lat="44.49679" lon="5.95097">
        <ele>1715</ele>
        <time>2020-05-12T08:56:19Z</time>
      </trkpt>
      <trkpt lat="44.49684" lon="5.95107">
        <ele>1712</ele>
        <time>2020-05-12T08:56:24Z</time>
      </trkpt>
      <trkpt lat="44.49687" lon="5.95112">
        <ele>1713</ele>
        <time>2020-05-12T08:56:29Z</time>
      </trkpt>
      <trkpt lat="44.4969" lon="5.9512">
        <ele>1713</ele>
        <time>2020-05-12T08:56:35Z</time>
      </trkpt>
      <trkpt lat="44.49691" lon="5.95122">
        <ele>1714</ele>
        <time>2020-05-12T08:56:40Z</time>
      </trkpt>
      <trkpt lat="44.49691" lon="5.95124">
        <ele>1713</ele>
        <time>2020-05-12T08:56:46Z</time>
      </trkpt>
      <trkpt lat="44.49691" lon="5.95124">
        <ele>1713</ele>
        <time>2020-05-12T08:56:52Z</time>
      </trkpt>
      <trkpt lat="44.49691" lon="5.95124">
        <ele>1713</ele>
        <time>2020-05-12T08:56:57Z</time>
      </trkpt>
      <trkpt lat="44.49691" lon="5.95124">
        <ele>1713</ele>
        <time>2020-05-12T08:57:02Z</time>
      </trkpt>
      <trkpt lat="44.49691" lon="5.95124">
        <ele>1713</ele>
        <time>2020-05-12T08:57:08Z</time>
      </trkpt>
      <trkpt lat="44.49691" lon="5.95124">
        <ele>1713</ele>
        <time>2020-05-12T08:57:14Z</time>
      </trkpt>
      <trkpt lat="44.49691" lon="5.95124">
        <ele>1713</ele>
        <time>2020-05-12T08:57:19Z</time>
      </trkpt>
      <trkpt lat="44.49691" lon="5.95124">
        <ele>1713</ele>
        <time>2020-05-12T08:57:24Z</time>
      </trkpt>
      <trkpt lat="44.49696" lon="5.95137">
        <ele>1707</ele>
        <time>2020-05-12T08:57:30Z</time>
      </trkpt>
      <trkpt lat="44.49697" lon="5.95138">
        <ele>1705</ele>
        <time>2020-05-12T08:57:36Z</time>
      </trkpt>
      <trkpt lat="44.49696" lon="5.95138">
        <ele>1704</ele>
        <time>2020-05-12T08:57:42Z</time>
      </trkpt>
      <trkpt lat="44.49698" lon="5.95141">
        <ele>1704</ele>
        <time>2020-05-12T08:57:48Z</time>
      </trkpt>
      <trkpt lat="44.49699" lon="5.95141">
        <ele>1704</ele>
        <time>2020-05-12T08:57:53Z</time>
      </trkpt>
      <trkpt lat="44.49699" lon="5.95142">
        <ele>1704</ele>
        <time>2020-05-12T08:57:58Z</time>
      </trkpt>
      <trkpt lat="44.49699" lon="5.95141">
        <ele>1704</ele>
        <time>2020-05-12T08:58:03Z</time>
      </trkpt>
      <trkpt lat="44.49699" lon="5.95141">
        <ele>1704</ele>
        <time>2020-05-12T08:58:09Z</time>
      </trkpt>
      <trkpt lat="44.49699" lon="5.95141">
        <ele>1704</ele>
        <time>2020-05-12T08:58:15Z</time>
      </trkpt>
      <trkpt lat="44.49699" lon="5.95141">
        <ele>1704</ele>
        <time>2020-05-12T08:58:21Z</time>
      </trkpt>
      <trkpt lat="44.49699" lon="5.95141">
        <ele>1704</ele>
        <time>2020-05-12T08:58:27Z</time>
      </trkpt>
      <trkpt lat="44.49699" lon="5.95141">
        <ele>1705</ele>
        <time>2020-05-12T08:58:32Z</time>
      </trkpt>
      <trkpt lat="44.49701" lon="5.9514">
        <ele>1708</ele>
        <time>2020-05-12T08:58:38Z</time>
      </trkpt>
      <trkpt lat="44.49701" lon="5.9514">
        <ele>1709</ele>
        <time>2020-05-12T08:58:44Z</time>
      </trkpt>
      <trkpt lat="44.49701" lon="5.9514">
        <ele>1709</ele>
        <time>2020-05-12T08:58:49Z</time>
      </trkpt>
      <trkpt lat="44.49701" lon="5.9514">
        <ele>1709</ele>
        <time>2020-05-12T08:58:54Z</time>
      </trkpt>
      <trkpt lat="44.49701" lon="5.9514">
        <ele>1709</ele>
        <time>2020-05-12T08:58:59Z</time>
      </trkpt>
      <trkpt lat="44.497" lon="5.95141">
        <ele>1709</ele>
        <time>2020-05-12T08:59:05Z</time>
      </trkpt>
      <trkpt lat="44.49699" lon="5.95144">
        <ele>1709</ele>
        <time>2020-05-12T08:59:11Z</time>
      </trkpt>
      <trkpt lat="44.49697" lon="5.95158">
        <ele>1711</ele>
        <time>2020-05-12T08:59:17Z</time>
      </trkpt>
      <trkpt lat="44.497" lon="5.95175">
        <ele>1707</ele>
        <time>2020-05-12T08:59:22Z</time>
      </trkpt>
      <trkpt lat="44.49704" lon="5.95193">
        <ele>1706</ele>
        <time>2020-05-12T08:59:28Z</time>
      </trkpt>
      <trkpt lat="44.49708" lon="5.95211">
        <ele>1711</ele>
        <time>2020-05-12T08:59:33Z</time>
      </trkpt>
      <trkpt lat="44.49717" lon="5.95227">
        <ele>1706</ele>
        <time>2020-05-12T08:59:38Z</time>
      </trkpt>
      <trkpt lat="44.49724" lon="5.95251">
        <ele>1709</ele>
        <time>2020-05-12T08:59:44Z</time>
      </trkpt>
      <trkpt lat="44.49726" lon="5.95273">
        <ele>1712</ele>
        <time>2020-05-12T08:59:50Z</time>
      </trkpt>
      <trkpt lat="44.49732" lon="5.95303">
        <ele>1714</ele>
        <time>2020-05-12T08:59:56Z</time>
      </trkpt>
      <trkpt lat="44.49737" lon="5.95324">
        <ele>1712</ele>
        <time>2020-05-12T09:00:01Z</time>
      </trkpt>
      <trkpt lat="44.49739" lon="5.95347">
        <ele>1713</ele>
        <time>2020-05-12T09:00:06Z</time>
      </trkpt>
      <trkpt lat="44.49748" lon="5.9538">
        <ele>1709</ele>
        <time>2020-05-12T09:00:12Z</time>
      </trkpt>
      <trkpt lat="44.49757" lon="5.95412">
        <ele>1706</ele>
        <time>2020-05-12T09:00:18Z</time>
      </trkpt>
      <trkpt lat="44.4976" lon="5.95443">
        <ele>1703</ele>
        <time>2020-05-12T09:00:23Z</time>
      </trkpt>
      <trkpt lat="44.49763" lon="5.95487">
        <ele>1701</ele>
        <time>2020-05-12T09:00:29Z</time>
      </trkpt>
      <trkpt lat="44.49757" lon="5.95513">
        <ele>1702</ele>
        <time>2020-05-12T09:00:34Z</time>
      </trkpt>
      <trkpt lat="44.49749" lon="5.95537">
        <ele>1700</ele>
        <time>2020-05-12T09:00:40Z</time>
      </trkpt>
      <trkpt lat="44.49743" lon="5.95562">
        <ele>1702</ele>
        <time>2020-05-12T09:00:46Z</time>
      </trkpt>
      <trkpt lat="44.49733" lon="5.95594">
        <ele>1700</ele>
        <time>2020-05-12T09:00:52Z</time>
      </trkpt>
      <trkpt lat="44.49723" lon="5.95616">
        <ele>1701</ele>
        <time>2020-05-12T09:00:57Z</time>
      </trkpt>
      <trkpt lat="44.49707" lon="5.95645">
        <ele>1700</ele>
        <time>2020-05-12T09:01:02Z</time>
      </trkpt>
      <trkpt lat="44.49697" lon="5.95673">
        <ele>1698</ele>
        <time>2020-05-12T09:01:07Z</time>
      </trkpt>
      <trkpt lat="44.49705" lon="5.9571">
        <ele>1698</ele>
        <time>2020-05-12T09:01:13Z</time>
      </trkpt>
      <trkpt lat="44.49706" lon="5.95729">
        <ele>1691</ele>
        <time>2020-05-12T09:01:18Z</time>
      </trkpt>
      <trkpt lat="44.49704" lon="5.95746">
        <ele>1693</ele>
        <time>2020-05-12T09:01:23Z</time>
      </trkpt>
      <trkpt lat="44.49698" lon="5.95776">
        <ele>1692</ele>
        <time>2020-05-12T09:01:29Z</time>
      </trkpt>
      <trkpt lat="44.49699" lon="5.95822">
        <ele>1692</ele>
        <time>2020-05-12T09:01:35Z</time>
      </trkpt>
      <trkpt lat="44.49716" lon="5.95851">
        <ele>1692</ele>
        <time>2020-05-12T09:01:41Z</time>
      </trkpt>
      <trkpt lat="44.4974" lon="5.95863">
        <ele>1688</ele>
        <time>2020-05-12T09:01:47Z</time>
      </trkpt>
      <trkpt lat="44.49762" lon="5.95882">
        <ele>1685</ele>
        <time>2020-05-12T09:01:53Z</time>
      </trkpt>
      <trkpt lat="44.49782" lon="5.95902">
        <ele>1689</ele>
        <time>2020-05-12T09:01:59Z</time>
      </trkpt>
      <trkpt lat="44.49803" lon="5.95924">
        <ele>1686</ele>
        <time>2020-05-12T09:02:05Z</time>
      </trkpt>
      <trkpt lat="44.49832" lon="5.95946">
        <ele>1681</ele>
        <time>2020-05-12T09:02:11Z</time>
      </trkpt>
      <trkpt lat="44.49853" lon="5.95979">
        <ele>1680</ele>
        <time>2020-05-12T09:02:16Z</time>
      </trkpt>
      <trkpt lat="44.49865" lon="5.96">
        <ele>1681</ele>
        <time>2020-05-12T09:02:21Z</time>
      </trkpt>
      <trkpt lat="44.49889" lon="5.96035">
        <ele>1679</ele>
        <time>2020-05-12T09:02:27Z</time>
      </trkpt>
      <trkpt lat="44.49916" lon="5.96078">
        <ele>1671</ele>
        <time>2020-05-12T09:02:33Z</time>
      </trkpt>
      <trkpt lat="44.49942" lon="5.96109">
        <ele>1665</ele>
        <time>2020-05-12T09:02:39Z</time>
      </trkpt>
      <trkpt lat="44.49958" lon="5.96135">
        <ele>1660</ele>
        <time>2020-05-12T09:02:44Z</time>
      </trkpt>
      <trkpt lat="44.49974" lon="5.96153">
        <ele>1659</ele>
        <time>2020-05-12T09:02:50Z</time>
      </trkpt>
      <trkpt lat="44.49983" lon="5.96183">
        <ele>1658</ele>
        <time>2020-05-12T09:02:56Z</time>
      </trkpt>
      <trkpt lat="44.49995" lon="5.96221">
        <ele>1653</ele>
        <time>2020-05-12T09:03:02Z</time>
      </trkpt>
      <trkpt lat="44.50004" lon="5.96262">
        <ele>1654</ele>
        <time>2020-05-12T09:03:08Z</time>
      </trkpt>
      <trkpt lat="44.50019" lon="5.96302">
        <ele>1646</ele>
        <time>2020-05-12T09:03:14Z</time>
      </trkpt>
      <trkpt lat="44.50034" lon="5.96334">
        <ele>1645</ele>
        <time>2020-05-12T09:03:19Z</time>
      </trkpt>
      <trkpt lat="44.50039" lon="5.96348">
        <ele>1644</ele>
        <time>2020-05-12T09:03:25Z</time>
      </trkpt>
      <trkpt lat="44.50036" lon="5.96348">
        <ele>1647</ele>
        <time>2020-05-12T09:03:30Z</time>
      </trkpt>
      <trkpt lat="44.50038" lon="5.96348">
        <ele>1647</ele>
        <time>2020-05-12T09:03:35Z</time>
      </trkpt>
      <trkpt lat="44.50039" lon="5.96348">
        <ele>1645</ele>
        <time>2020-05-12T09:03:40Z</time>
      </trkpt>
      <trkpt lat="44.5004" lon="5.96348">
        <ele>1643</ele>
        <time>2020-05-12T09:03:46Z</time>
      </trkpt>
      <trkpt lat="44.50042" lon="5.96349">
        <ele>1641</ele>
        <time>2020-05-12T09:03:51Z</time>
      </trkpt>
      <trkpt lat="44.50044" lon="5.9636">
        <ele>1639</ele>
        <time>2020-05-12T09:03:57Z</time>
      </trkpt>
      <trkpt lat="44.50051" lon="5.96377">
        <ele>1640</ele>
        <time>2020-05-12T09:04:03Z</time>
      </trkpt>
      <trkpt lat="44.5007" lon="5.96401">
        <ele>1640</ele>
        <time>2020-05-12T09:04:09Z</time>
      </trkpt>
      <trkpt lat="44.50081" lon="5.96413">
        <ele>1637</ele>
        <time>2020-05-12T09:04:14Z</time>
      </trkpt>
      <trkpt lat="44.50088" lon="5.96448">
        <ele>1643</ele>
        <time>2020-05-12T09:04:20Z</time>
      </trkpt>
      <trkpt lat="44.50099" lon="5.96485">
        <ele>1642</ele>
        <time>2020-05-12T09:04:26Z</time>
      </trkpt>
      <trkpt lat="44.50112" lon="5.96506">
        <ele>1642</ele>
        <time>2020-05-12T09:04:31Z</time>
      </trkpt>
      <trkpt lat="44.50139" lon="5.96506">
        <ele>1639</ele>
        <time>2020-05-12T09:04:36Z</time>
      </trkpt>
      <trkpt lat="44.50156" lon="5.96509">
        <ele>1631</ele>
        <time>2020-05-12T09:04:42Z</time>
      </trkpt>
      <trkpt lat="44.50169" lon="5.96515">
        <ele>1629</ele>
        <time>2020-05-12T09:04:47Z</time>
      </trkpt>
      <trkpt lat="44.50182" lon="5.96528">
        <ele>1627</ele>
        <time>2020-05-12T09:04:53Z</time>
      </trkpt>
      <trkpt lat="44.50201" lon="5.96548">
        <ele>1623</ele>
        <time>2020-05-12T09:04:59Z</time>
      </trkpt>
      <trkpt lat="44.50219" lon="5.96563">
        <ele>1620</ele>
        <time>2020-05-12T09:05:04Z</time>
      </trkpt>
      <trkpt lat="44.50245" lon="5.96597">
        <ele>1616</ele>
        <time>2020-05-12T09:05:10Z</time>
      </trkpt>
      <trkpt lat="44.50275" lon="5.96616">
        <ele>1612</ele>
        <time>2020-05-12T09:05:16Z</time>
      </trkpt>
      <trkpt lat="44.50294" lon="5.96636">
        <ele>1610</ele>
        <time>2020-05-12T09:05:22Z</time>
      </trkpt>
      <trkpt lat="44.50297" lon="5.96657">
        <ele>1609</ele>
        <time>2020-05-12T09:05:27Z</time>
      </trkpt>
      <trkpt lat="44.50316" lon="5.96674">
        <ele>1605</ele>
        <time>2020-05-12T09:05:33Z</time>
      </trkpt>
      <trkpt lat="44.50327" lon="5.9669">
        <ele>1607</ele>
        <time>2020-05-12T09:05:38Z</time>
      </trkpt>
      <trkpt lat="44.50337" lon="5.96694">
        <ele>1608</ele>
        <time>2020-05-12T09:05:43Z</time>
      </trkpt>
      <trkpt lat="44.50351" lon="5.96695">
        <ele>1608</ele>
        <time>2020-05-12T09:05:48Z</time>
      </trkpt>
      <trkpt lat="44.50369" lon="5.96701">
        <ele>1606</ele>
        <time>2020-05-12T09:05:54Z</time>
      </trkpt>
      <trkpt lat="44.50382" lon="5.96707">
        <ele>1610</ele>
        <time>2020-05-12T09:05:59Z</time>
      </trkpt>
      <trkpt lat="44.504" lon="5.96718">
        <ele>1611</ele>
        <time>2020-05-12T09:06:05Z</time>
      </trkpt>
      <trkpt lat="44.50417" lon="5.96726">
        <ele>1610</ele>
        <time>2020-05-12T09:06:10Z</time>
      </trkpt>
      <trkpt lat="44.50437" lon="5.96741">
        <ele>1608</ele>
        <time>2020-05-12T09:06:16Z</time>
      </trkpt>
      <trkpt lat="44.50454" lon="5.96765">
        <ele>1613</ele>
        <time>2020-05-12T09:06:22Z</time>
      </trkpt>
      <trkpt lat="44.50477" lon="5.96781">
        <ele>1612</ele>
        <time>2020-05-12T09:06:27Z</time>
      </trkpt>
      <trkpt lat="44.50508" lon="5.96784">
        <ele>1610</ele>
        <time>2020-05-12T09:06:33Z</time>
      </trkpt>
      <trkpt lat="44.50528" lon="5.9678">
        <ele>1606</ele>
        <time>2020-05-12T09:06:38Z</time>
      </trkpt>
      <trkpt lat="44.50551" lon="5.96777">
        <ele>1600</ele>
        <time>2020-05-12T09:06:44Z</time>
      </trkpt>
      <trkpt lat="44.50568" lon="5.96788">
        <ele>1601</ele>
        <time>2020-05-12T09:06:50Z</time>
      </trkpt>
      <trkpt lat="44.50585" lon="5.96784">
        <ele>1600</ele>
        <time>2020-05-12T09:06:56Z</time>
      </trkpt>
      <trkpt lat="44.50589" lon="5.96781">
        <ele>1600</ele>
        <time>2020-05-12T09:07:02Z</time>
      </trkpt>
      <trkpt lat="44.50589" lon="5.9678">
        <ele>1599</ele>
        <time>2020-05-12T09:07:08Z</time>
      </trkpt>
      <trkpt lat="44.5059" lon="5.96777">
        <ele>1599</ele>
        <time>2020-05-12T09:07:13Z</time>
      </trkpt>
      <trkpt lat="44.50598" lon="5.96776">
        <ele>1598</ele>
        <time>2020-05-12T09:07:18Z</time>
      </trkpt>
      <trkpt lat="44.50602" lon="5.96774">
        <ele>1596</ele>
        <time>2020-05-12T09:07:24Z</time>
      </trkpt>
      <trkpt lat="44.50606" lon="5.96775">
        <ele>1593</ele>
        <time>2020-05-12T09:07:29Z</time>
      </trkpt>
      <trkpt lat="44.50617" lon="5.96783">
        <ele>1593</ele>
        <time>2020-05-12T09:07:34Z</time>
      </trkpt>
      <trkpt lat="44.50629" lon="5.96803">
        <ele>1594</ele>
        <time>2020-05-12T09:07:40Z</time>
      </trkpt>
      <trkpt lat="44.50637" lon="5.96838">
        <ele>1592</ele>
        <time>2020-05-12T09:07:46Z</time>
      </trkpt>
      <trkpt lat="44.50643" lon="5.96874">
        <ele>1591</ele>
        <time>2020-05-12T09:07:52Z</time>
      </trkpt>
      <trkpt lat="44.50656" lon="5.96894">
        <ele>1592</ele>
        <time>2020-05-12T09:07:58Z</time>
      </trkpt>
      <trkpt lat="44.50678" lon="5.96907">
        <ele>1587</ele>
        <time>2020-05-12T09:08:04Z</time>
      </trkpt>
      <trkpt lat="44.50692" lon="5.96927">
        <ele>1589</ele>
        <time>2020-05-12T09:08:10Z</time>
      </trkpt>
      <trkpt lat="44.50702" lon="5.96927">
        <ele>1585</ele>
        <time>2020-05-12T09:08:16Z</time>
      </trkpt>
      <trkpt lat="44.50704" lon="5.96924">
        <ele>1586</ele>
        <time>2020-05-12T09:08:22Z</time>
      </trkpt>
      <trkpt lat="44.50705" lon="5.96924">
        <ele>1586</ele>
        <time>2020-05-12T09:08:28Z</time>
      </trkpt>
      <trkpt lat="44.50705" lon="5.96924">
        <ele>1586</ele>
        <time>2020-05-12T09:08:34Z</time>
      </trkpt>
      <trkpt lat="44.50705" lon="5.96924">
        <ele>1586</ele>
        <time>2020-05-12T09:08:39Z</time>
      </trkpt>
      <trkpt lat="44.50705" lon="5.96924">
        <ele>1585</ele>
        <time>2020-05-12T09:08:44Z</time>
      </trkpt>
      <trkpt lat="44.50705" lon="5.96924">
        <ele>1585</ele>
        <time>2020-05-12T09:08:50Z</time>
      </trkpt>
      <trkpt lat="44.50705" lon="5.96924">
        <ele>1585</ele>
        <time>2020-05-12T09:08:55Z</time>
      </trkpt>
      <trkpt lat="44.50705" lon="5.96924">
        <ele>1585</ele>
        <time>2020-05-12T09:09:01Z</time>
      </trkpt>
      <trkpt lat="44.50705" lon="5.96924">
        <ele>1585</ele>
        <time>2020-05-12T09:09:07Z</time>
      </trkpt>
      <trkpt lat="44.50705" lon="5.96924">
        <ele>1585</ele>
        <time>2020-05-12T09:09:13Z</time>
      </trkpt>
      <trkpt lat="44.50705" lon="5.96925">
        <ele>1586</ele>
        <time>2020-05-12T09:09:18Z</time>
      </trkpt>
      <trkpt lat="44.50705" lon="5.96927">
        <ele>1588</ele>
        <time>2020-05-12T09:09:24Z</time>
      </trkpt>
      <trkpt lat="44.50707" lon="5.96927">
        <ele>1589</ele>
        <time>2020-05-12T09:09:29Z</time>
      </trkpt>
      <trkpt lat="44.50705" lon="5.96925">
        <ele>1588</ele>
        <time>2020-05-12T09:09:34Z</time>
      </trkpt>
      <trkpt lat="44.50705" lon="5.96924">
        <ele>1590</ele>
        <time>2020-05-12T09:09:40Z</time>
      </trkpt>
      <trkpt lat="44.50705" lon="5.96925">
        <ele>1592</ele>
        <time>2020-05-12T09:09:46Z</time>
      </trkpt>
      <trkpt lat="44.50705" lon="5.96924">
        <ele>1591</ele>
        <time>2020-05-12T09:09:51Z</time>
      </trkpt>
      <trkpt lat="44.50705" lon="5.96924">
        <ele>1591</ele>
        <time>2020-05-12T09:09:57Z</time>
      </trkpt>
      <trkpt lat="44.50705" lon="5.96924">
        <ele>1591</ele>
        <time>2020-05-12T09:10:03Z</time>
      </trkpt>
      <trkpt lat="44.50705" lon="5.96924">
        <ele>1591</ele>
        <time>2020-05-12T09:10:09Z</time>
      </trkpt>
      <trkpt lat="44.50705" lon="5.96924">
        <ele>1591</ele>
        <time>2020-05-12T09:10:14Z</time>
      </trkpt>
      <trkpt lat="44.50705" lon="5.96924">
        <ele>1590</ele>
        <time>2020-05-12T09:10:20Z</time>
      </trkpt>
      <trkpt lat="44.50705" lon="5.96924">
        <ele>1591</ele>
        <time>2020-05-12T09:10:26Z</time>
      </trkpt>
      <trkpt lat="44.50704" lon="5.9692">
        <ele>1586</ele>
        <time>2020-05-12T09:10:31Z</time>
      </trkpt>
      <trkpt lat="44.50703" lon="5.96918">
        <ele>1584</ele>
        <time>2020-05-12T09:10:36Z</time>
      </trkpt>
      <trkpt lat="44.50703" lon="5.96922">
        <ele>1582</ele>
        <time>2020-05-12T09:10:42Z</time>
      </trkpt>
      <trkpt lat="44.50702" lon="5.96924">
        <ele>1583</ele>
        <time>2020-05-12T09:10:47Z</time>
      </trkpt>
      <trkpt lat="44.50702" lon="5.96926">
        <ele>1586</ele>
        <time>2020-05-12T09:10:52Z</time>
      </trkpt>
      <trkpt lat="44.50701" lon="5.96927">
        <ele>1586</ele>
        <time>2020-05-12T09:10:58Z</time>
      </trkpt>
      <trkpt lat="44.50701" lon="5.96927">
        <ele>1586</ele>
        <time>2020-05-12T09:11:03Z</time>
      </trkpt>
      <trkpt lat="44.50701" lon="5.96927">
        <ele>1586</ele>
        <time>2020-05-12T09:11:09Z</time>
      </trkpt>
      <trkpt lat="44.50702" lon="5.96927">
        <ele>1586</ele>
        <time>2020-05-12T09:11:16Z</time>
      </trkpt>
      <trkpt lat="44.50702" lon="5.96927">
        <ele>1586</ele>
        <time>2020-05-12T09:11:22Z</time>
      </trkpt>
      <trkpt lat="44.50702" lon="5.96927">
        <ele>1586</ele>
        <time>2020-05-12T09:11:27Z</time>
      </trkpt>
      <trkpt lat="44.50702" lon="5.96928">
        <ele>1586</ele>
        <time>2020-05-12T09:11:32Z</time>
      </trkpt>
      <trkpt lat="44.50702" lon="5.96928">
        <ele>1586</ele>
        <time>2020-05-12T09:11:37Z</time>
      </trkpt>
      <trkpt lat="44.50702" lon="5.96928">
        <ele>1583</ele>
        <time>2020-05-12T09:11:43Z</time>
      </trkpt>
      <trkpt lat="44.50702" lon="5.9693">
        <ele>1582</ele>
        <time>2020-05-12T09:11:49Z</time>
      </trkpt>
      <trkpt lat="44.50703" lon="5.96931">
        <ele>1582</ele>
        <time>2020-05-12T09:11:54Z</time>
      </trkpt>
      <trkpt lat="44.50704" lon="5.9693">
        <ele>1583</ele>
        <time>2020-05-12T09:11:59Z</time>
      </trkpt>
      <trkpt lat="44.50704" lon="5.96929">
        <ele>1583</ele>
        <time>2020-05-12T09:12:06Z</time>
      </trkpt>
      <trkpt lat="44.50704" lon="5.96929">
        <ele>1583</ele>
        <time>2020-05-12T09:12:11Z</time>
      </trkpt>
      <trkpt lat="44.50704" lon="5.96929">
        <ele>1583</ele>
        <time>2020-05-12T09:12:16Z</time>
      </trkpt>
      <trkpt lat="44.50704" lon="5.96929">
        <ele>1583</ele>
        <time>2020-05-12T09:12:22Z</time>
      </trkpt>
      <trkpt lat="44.50704" lon="5.96929">
        <ele>1583</ele>
        <time>2020-05-12T09:12:27Z</time>
      </trkpt>
      <trkpt lat="44.50704" lon="5.96929">
        <ele>1583</ele>
        <time>2020-05-12T09:12:33Z</time>
      </trkpt>
      <trkpt lat="44.50704" lon="5.96929">
        <ele>1583</ele>
        <time>2020-05-12T09:12:38Z</time>
      </trkpt>
      <trkpt lat="44.50704" lon="5.96929">
        <ele>1583</ele>
        <time>2020-05-12T09:12:44Z</time>
      </trkpt>
      <trkpt lat="44.50704" lon="5.96929">
        <ele>1583</ele>
        <time>2020-05-12T09:12:49Z</time>
      </trkpt>
      <trkpt lat="44.50704" lon="5.96929">
        <ele>1583</ele>
        <time>2020-05-12T09:12:54Z</time>
      </trkpt>
      <trkpt lat="44.50704" lon="5.96929">
        <ele>1583</ele>
        <time>2020-05-12T09:13:00Z</time>
      </trkpt>
      <trkpt lat="44.50702" lon="5.9693">
        <ele>1585</ele>
        <time>2020-05-12T09:13:06Z</time>
      </trkpt>
      <trkpt lat="44.50701" lon="5.96931">
        <ele>1587</ele>
        <time>2020-05-12T09:13:11Z</time>
      </trkpt>
      <trkpt lat="44.50701" lon="5.96931">
        <ele>1588</ele>
        <time>2020-05-12T09:13:17Z</time>
      </trkpt>
      <trkpt lat="44.50701" lon="5.96931">
        <ele>1588</ele>
        <time>2020-05-12T09:13:22Z</time>
      </trkpt>
      <trkpt lat="44.50701" lon="5.96931">
        <ele>1588</ele>
        <time>2020-05-12T09:13:27Z</time>
      </trkpt>
      <trkpt lat="44.50701" lon="5.96931">
        <ele>1588</ele>
        <time>2020-05-12T09:13:32Z</time>
      </trkpt>
      <trkpt lat="44.50701" lon="5.96931">
        <ele>1588</ele>
        <time>2020-05-12T09:13:37Z</time>
      </trkpt>
      <trkpt lat="44.50701" lon="5.96931">
        <ele>1588</ele>
        <time>2020-05-12T09:13:42Z</time>
      </trkpt>
      <trkpt lat="44.50701" lon="5.96931">
        <ele>1588</ele>
        <time>2020-05-12T09:13:48Z</time>
      </trkpt>
      <trkpt lat="44.50701" lon="5.96931">
        <ele>1588</ele>
        <time>2020-05-12T09:13:54Z</time>
      </trkpt>
      <trkpt lat="44.50701" lon="5.96931">
        <ele>1588</ele>
        <time>2020-05-12T09:14:00Z</time>
      </trkpt>
      <trkpt lat="44.50701" lon="5.96932">
        <ele>1588</ele>
        <time>2020-05-12T09:14:05Z</time>
      </trkpt>
      <trkpt lat="44.50701" lon="5.96932">
        <ele>1588</ele>
        <time>2020-05-12T09:14:10Z</time>
      </trkpt>
      <trkpt lat="44.50701" lon="5.96932">
        <ele>1588</ele>
        <time>2020-05-12T09:14:16Z</time>
      </trkpt>
      <trkpt lat="44.50701" lon="5.96932">
        <ele>1588</ele>
        <time>2020-05-12T09:14:22Z</time>
      </trkpt>
      <trkpt lat="44.50701" lon="5.96932">
        <ele>1588</ele>
        <time>2020-05-12T09:14:28Z</time>
      </trkpt>
      <trkpt lat="44.50701" lon="5.96932">
        <ele>1588</ele>
        <time>2020-05-12T09:14:33Z</time>
      </trkpt>
      <trkpt lat="44.50701" lon="5.96932">
        <ele>1588</ele>
        <time>2020-05-12T09:14:38Z</time>
      </trkpt>
      <trkpt lat="44.50701" lon="5.96932">
        <ele>1588</ele>
        <time>2020-05-12T09:14:44Z</time>
      </trkpt>
      <trkpt lat="44.50701" lon="5.96932">
        <ele>1587</ele>
        <time>2020-05-12T09:14:49Z</time>
      </trkpt>
      <trkpt lat="44.50701" lon="5.96933">
        <ele>1587</ele>
        <time>2020-05-12T09:14:55Z</time>
      </trkpt>
      <trkpt lat="44.50702" lon="5.96934">
        <ele>1587</ele>
        <time>2020-05-12T09:15:01Z</time>
      </trkpt>
      <trkpt lat="44.50702" lon="5.96934">
        <ele>1588</ele>
        <time>2020-05-12T09:15:06Z</time>
      </trkpt>
      <trkpt lat="44.50702" lon="5.96934">
        <ele>1588</ele>
        <time>2020-05-12T09:15:12Z</time>
      </trkpt>
      <trkpt lat="44.50702" lon="5.96934">
        <ele>1588</ele>
        <time>2020-05-12T09:15:18Z</time>
      </trkpt>
      <trkpt lat="44.50702" lon="5.96934">
        <ele>1588</ele>
        <time>2020-05-12T09:15:24Z</time>
      </trkpt>
      <trkpt lat="44.50702" lon="5.96934">
        <ele>1588</ele>
        <time>2020-05-12T09:15:29Z</time>
      </trkpt>
      <trkpt lat="44.50702" lon="5.96934">
        <ele>1588</ele>
        <time>2020-05-12T09:15:35Z</time>
      </trkpt>
      <trkpt lat="44.50702" lon="5.96934">
        <ele>1588</ele>
        <time>2020-05-12T09:15:40Z</time>
      </trkpt>
      <trkpt lat="44.50702" lon="5.96934">
        <ele>1588</ele>
        <time>2020-05-12T09:15:45Z</time>
      </trkpt>
      <trkpt lat="44.50702" lon="5.96934">
        <ele>1588</ele>
        <time>2020-05-12T09:15:51Z</time>
      </trkpt>
      <trkpt lat="44.50702" lon="5.96934">
        <ele>1588</ele>
        <time>2020-05-12T09:15:57Z</time>
      </trkpt>
      <trkpt lat="44.50702" lon="5.96934">
        <ele>1588</ele>
        <time>2020-05-12T09:16:02Z</time>
      </trkpt>
      <trkpt lat="44.50702" lon="5.96934">
        <ele>1588</ele>
        <time>2020-05-12T09:16:08Z</time>
      </trkpt>
      <trkpt lat="44.50702" lon="5.96934">
        <ele>1588</ele>
        <time>2020-05-12T09:16:14Z</time>
      </trkpt>
      <trkpt lat="44.50702" lon="5.96934">
        <ele>1588</ele>
        <time>2020-05-12T09:16:20Z</time>
      </trkpt>
      <trkpt lat="44.50703" lon="5.9693">
        <ele>1588</ele>
        <time>2020-05-12T09:16:26Z</time>
      </trkpt>
      <trkpt lat="44.50703" lon="5.96929">
        <ele>1588</ele>
        <time>2020-05-12T09:16:32Z</time>
      </trkpt>
      <trkpt lat="44.50703" lon="5.96929">
        <ele>1589</ele>
        <time>2020-05-12T09:16:37Z</time>
      </trkpt>
      <trkpt lat="44.50703" lon="5.96929">
        <ele>1589</ele>
        <time>2020-05-12T09:16:43Z</time>
      </trkpt>
      <trkpt lat="44.50703" lon="5.96929">
        <ele>1589</ele>
        <time>2020-05-12T09:16:48Z</time>
      </trkpt>
      <trkpt lat="44.50703" lon="5.96929">
        <ele>1589</ele>
        <time>2020-05-12T09:16:53Z</time>
      </trkpt>
      <trkpt lat="44.50703" lon="5.96929">
        <ele>1589</ele>
        <time>2020-05-12T09:16:59Z</time>
      </trkpt>
      <trkpt lat="44.50703" lon="5.96929">
        <ele>1589</ele>
        <time>2020-05-12T09:17:05Z</time>
      </trkpt>
      <trkpt lat="44.50703" lon="5.96929">
        <ele>1589</ele>
        <time>2020-05-12T09:17:10Z</time>
      </trkpt>
      <trkpt lat="44.50703" lon="5.96929">
        <ele>1589</ele>
        <time>2020-05-12T09:17:16Z</time>
      </trkpt>
      <trkpt lat="44.50702" lon="5.96929">
        <ele>1590</ele>
        <time>2020-05-12T09:17:22Z</time>
      </trkpt>
      <trkpt lat="44.50705" lon="5.96925">
        <ele>1592</ele>
        <time>2020-05-12T09:17:28Z</time>
      </trkpt>
      <trkpt lat="44.50697" lon="5.96917">
        <ele>1593</ele>
        <time>2020-05-12T09:17:33Z</time>
      </trkpt>
      <trkpt lat="44.50692" lon="5.96916">
        <ele>1594</ele>
        <time>2020-05-12T09:17:39Z</time>
      </trkpt>
      <trkpt lat="44.50685" lon="5.96915">
        <ele>1593</ele>
        <time>2020-05-12T09:17:45Z</time>
      </trkpt>
      <trkpt lat="44.50678" lon="5.96919">
        <ele>1593</ele>
        <time>2020-05-12T09:17:50Z</time>
      </trkpt>
      <trkpt lat="44.50662" lon="5.96914">
        <ele>1594</ele>
        <time>2020-05-12T09:17:56Z</time>
      </trkpt>
      <trkpt lat="44.50645" lon="5.96903">
        <ele>1593</ele>
        <time>2020-05-12T09:18:01Z</time>
      </trkpt>
      <trkpt lat="44.50626" lon="5.96889">
        <ele>1590</ele>
        <time>2020-05-12T09:18:07Z</time>
      </trkpt>
      <trkpt lat="44.50616" lon="5.96873">
        <ele>1586</ele>
        <time>2020-05-12T09:18:12Z</time>
      </trkpt>
      <trkpt lat="44.50605" lon="5.96869">
        <ele>1583</ele>
        <time>2020-05-12T09:18:18Z</time>
      </trkpt>
      <trkpt lat="44.50596" lon="5.96861">
        <ele>1578</ele>
        <time>2020-05-12T09:18:24Z</time>
      </trkpt>
      <trkpt lat="44.50587" lon="5.96855">
        <ele>1576</ele>
        <time>2020-05-12T09:18:29Z</time>
      </trkpt>
      <trkpt lat="44.50584" lon="5.96852">
        <ele>1577</ele>
        <time>2020-05-12T09:18:34Z</time>
      </trkpt>
      <trkpt lat="44.50584" lon="5.96851">
        <ele>1577</ele>
        <time>2020-05-12T09:18:40Z</time>
      </trkpt>
      <trkpt lat="44.5058" lon="5.96846">
        <ele>1570</ele>
        <time>2020-05-12T09:18:46Z</time>
      </trkpt>
      <trkpt lat="44.5057" lon="5.96851">
        <ele>1570</ele>
        <time>2020-05-12T09:18:51Z</time>
      </trkpt>
      <trkpt lat="44.50561" lon="5.96854">
        <ele>1570</ele>
        <time>2020-05-12T09:18:56Z</time>
      </trkpt>
      <trkpt lat="44.50559" lon="5.96861">
        <ele>1569</ele>
        <time>2020-05-12T09:19:01Z</time>
      </trkpt>
      <trkpt lat="44.5055" lon="5.9687">
        <ele>1574</ele>
        <time>2020-05-12T09:19:07Z</time>
      </trkpt>
      <trkpt lat="44.50533" lon="5.96876">
        <ele>1567</ele>
        <time>2020-05-12T09:19:12Z</time>
      </trkpt>
      <trkpt lat="44.50513" lon="5.96872">
        <ele>1565</ele>
        <time>2020-05-12T09:19:17Z</time>
      </trkpt>
      <trkpt lat="44.50499" lon="5.96875">
        <ele>1561</ele>
        <time>2020-05-12T09:19:22Z</time>
      </trkpt>
      <trkpt lat="44.50463" lon="5.96894">
        <ele>1557</ele>
        <time>2020-05-12T09:19:28Z</time>
      </trkpt>
      <trkpt lat="44.50428" lon="5.96901">
        <ele>1548</ele>
        <time>2020-05-12T09:19:34Z</time>
      </trkpt>
      <trkpt lat="44.5041" lon="5.96907">
        <ele>1544</ele>
        <time>2020-05-12T09:19:39Z</time>
      </trkpt>
      <trkpt lat="44.50391" lon="5.9691">
        <ele>1545</ele>
        <time>2020-05-12T09:19:44Z</time>
      </trkpt>
      <trkpt lat="44.5036" lon="5.96911">
        <ele>1543</ele>
        <time>2020-05-12T09:19:49Z</time>
      </trkpt>
      <trkpt lat="44.50346" lon="5.96901">
        <ele>1535</ele>
        <time>2020-05-12T09:19:54Z</time>
      </trkpt>
      <trkpt lat="44.50343" lon="5.969">
        <ele>1532</ele>
        <time>2020-05-12T09:20:00Z</time>
      </trkpt>
      <trkpt lat="44.50343" lon="5.969">
        <ele>1530</ele>
        <time>2020-05-12T09:20:06Z</time>
      </trkpt>
      <trkpt lat="44.50343" lon="5.969">
        <ele>1530</ele>
        <time>2020-05-12T09:20:12Z</time>
      </trkpt>
      <trkpt lat="44.50343" lon="5.969">
        <ele>1530</ele>
        <time>2020-05-12T09:20:17Z</time>
      </trkpt>
      <trkpt lat="44.50343" lon="5.969">
        <ele>1530</ele>
        <time>2020-05-12T09:20:22Z</time>
      </trkpt>
      <trkpt lat="44.50343" lon="5.969">
        <ele>1530</ele>
        <time>2020-05-12T09:20:27Z</time>
      </trkpt>
      <trkpt lat="44.50343" lon="5.969">
        <ele>1530</ele>
        <time>2020-05-12T09:20:33Z</time>
      </trkpt>
      <trkpt lat="44.50343" lon="5.969">
        <ele>1530</ele>
        <time>2020-05-12T09:20:38Z</time>
      </trkpt>
      <trkpt lat="44.50341" lon="5.969">
        <ele>1530</ele>
        <time>2020-05-12T09:20:44Z</time>
      </trkpt>
      <trkpt lat="44.50333" lon="5.96896">
        <ele>1527</ele>
        <time>2020-05-12T09:20:50Z</time>
      </trkpt>
      <trkpt lat="44.5033" lon="5.96893">
        <ele>1525</ele>
        <time>2020-05-12T09:20:55Z</time>
      </trkpt>
      <trkpt lat="44.5032" lon="5.96893">
        <ele>1526</ele>
        <time>2020-05-12T09:21:01Z</time>
      </trkpt>
      <trkpt lat="44.50311" lon="5.96894">
        <ele>1528</ele>
        <time>2020-05-12T09:21:06Z</time>
      </trkpt>
      <trkpt lat="44.50305" lon="5.96895">
        <ele>1524</ele>
        <time>2020-05-12T09:21:12Z</time>
      </trkpt>
      <trkpt lat="44.50303" lon="5.96896">
        <ele>1524</ele>
        <time>2020-05-12T09:21:17Z</time>
      </trkpt>
      <trkpt lat="44.503" lon="5.96896">
        <ele>1520</ele>
        <time>2020-05-12T09:21:22Z</time>
      </trkpt>
      <trkpt lat="44.50298" lon="5.96896">
        <ele>1520</ele>
        <time>2020-05-12T09:21:28Z</time>
      </trkpt>
      <trkpt lat="44.50291" lon="5.96893">
        <ele>1514</ele>
        <time>2020-05-12T09:21:33Z</time>
      </trkpt>
      <trkpt lat="44.50287" lon="5.96892">
        <ele>1514</ele>
        <time>2020-05-12T09:21:38Z</time>
      </trkpt>
      <trkpt lat="44.50274" lon="5.96895">
        <ele>1517</ele>
        <time>2020-05-12T09:21:44Z</time>
      </trkpt>
      <trkpt lat="44.50269" lon="5.96898">
        <ele>1517</ele>
        <time>2020-05-12T09:21:49Z</time>
      </trkpt>
      <trkpt lat="44.50263" lon="5.96892">
        <ele>1511</ele>
        <time>2020-05-12T09:21:55Z</time>
      </trkpt>
      <trkpt lat="44.50259" lon="5.96889">
        <ele>1510</ele>
        <time>2020-05-12T09:22:00Z</time>
      </trkpt>
      <trkpt lat="44.50255" lon="5.96886">
        <ele>1506</ele>
        <time>2020-05-12T09:22:06Z</time>
      </trkpt>
      <trkpt lat="44.50249" lon="5.96884">
        <ele>1508</ele>
        <time>2020-05-12T09:22:12Z</time>
      </trkpt>
      <trkpt lat="44.50241" lon="5.96887">
        <ele>1511</ele>
        <time>2020-05-12T09:22:18Z</time>
      </trkpt>
      <trkpt lat="44.50237" lon="5.96889">
        <ele>1508</ele>
        <time>2020-05-12T09:22:24Z</time>
      </trkpt>
      <trkpt lat="44.50235" lon="5.96887">
        <ele>1505</ele>
        <time>2020-05-12T09:22:29Z</time>
      </trkpt>
      <trkpt lat="44.50233" lon="5.9689">
        <ele>1504</ele>
        <time>2020-05-12T09:22:35Z</time>
      </trkpt>
      <trkpt lat="44.50235" lon="5.96891">
        <ele>1498</ele>
        <time>2020-05-12T09:22:41Z</time>
      </trkpt>
      <trkpt lat="44.50235" lon="5.96892">
        <ele>1500</ele>
        <time>2020-05-12T09:22:47Z</time>
      </trkpt>
      <trkpt lat="44.50236" lon="5.96895">
        <ele>1501</ele>
        <time>2020-05-12T09:22:53Z</time>
      </trkpt>
      <trkpt lat="44.50238" lon="5.96902">
        <ele>1503</ele>
        <time>2020-05-12T09:22:59Z</time>
      </trkpt>
      <trkpt lat="44.50244" lon="5.96918">
        <ele>1502</ele>
        <time>2020-05-12T09:23:05Z</time>
      </trkpt>
      <trkpt lat="44.50247" lon="5.96925">
        <ele>1501</ele>
        <time>2020-05-12T09:23:11Z</time>
      </trkpt>
      <trkpt lat="44.50252" lon="5.96932">
        <ele>1500</ele>
        <time>2020-05-12T09:23:16Z</time>
      </trkpt>
      <trkpt lat="44.50268" lon="5.96954">
        <ele>1498</ele>
        <time>2020-05-12T09:23:22Z</time>
      </trkpt>
      <trkpt lat="44.50279" lon="5.9697">
        <ele>1501</ele>
        <time>2020-05-12T09:23:27Z</time>
      </trkpt>
      <trkpt lat="44.50282" lon="5.96989">
        <ele>1500</ele>
        <time>2020-05-12T09:23:32Z</time>
      </trkpt>
      <trkpt lat="44.50294" lon="5.97007">
        <ele>1499</ele>
        <time>2020-05-12T09:23:38Z</time>
      </trkpt>
      <trkpt lat="44.50309" lon="5.97028">
        <ele>1492</ele>
        <time>2020-05-12T09:23:43Z</time>
      </trkpt>
      <trkpt lat="44.50324" lon="5.9704">
        <ele>1481</ele>
        <time>2020-05-12T09:23:48Z</time>
      </trkpt>
      <trkpt lat="44.50352" lon="5.97049">
        <ele>1473</ele>
        <time>2020-05-12T09:23:54Z</time>
      </trkpt>
      <trkpt lat="44.50364" lon="5.97057">
        <ele>1469</ele>
        <time>2020-05-12T09:24:00Z</time>
      </trkpt>
      <trkpt lat="44.50373" lon="5.97069">
        <ele>1475</ele>
        <time>2020-05-12T09:24:05Z</time>
      </trkpt>
      <trkpt lat="44.50382" lon="5.97075">
        <ele>1474</ele>
        <time>2020-05-12T09:24:11Z</time>
      </trkpt>
      <trkpt lat="44.50396" lon="5.97078">
        <ele>1468</ele>
        <time>2020-05-12T09:24:17Z</time>
      </trkpt>
      <trkpt lat="44.50407" lon="5.97079">
        <ele>1468</ele>
        <time>2020-05-12T09:24:22Z</time>
      </trkpt>
      <trkpt lat="44.50413" lon="5.97083">
        <ele>1468</ele>
        <time>2020-05-12T09:24:28Z</time>
      </trkpt>
      <trkpt lat="44.50414" lon="5.97083">
        <ele>1467</ele>
        <time>2020-05-12T09:24:33Z</time>
      </trkpt>
      <trkpt lat="44.50415" lon="5.97082">
        <ele>1466</ele>
        <time>2020-05-12T09:24:39Z</time>
      </trkpt>
      <trkpt lat="44.50415" lon="5.97082">
        <ele>1466</ele>
        <time>2020-05-12T09:24:44Z</time>
      </trkpt>
      <trkpt lat="44.50417" lon="5.97084">
        <ele>1464</ele>
        <time>2020-05-12T09:24:50Z</time>
      </trkpt>
      <trkpt lat="44.50419" lon="5.97084">
        <ele>1463</ele>
        <time>2020-05-12T09:24:55Z</time>
      </trkpt>
      <trkpt lat="44.50421" lon="5.97086">
        <ele>1462</ele>
        <time>2020-05-12T09:25:01Z</time>
      </trkpt>
      <trkpt lat="44.50422" lon="5.97086">
        <ele>1460</ele>
        <time>2020-05-12T09:25:07Z</time>
      </trkpt>
      <trkpt lat="44.50426" lon="5.97091">
        <ele>1462</ele>
        <time>2020-05-12T09:25:13Z</time>
      </trkpt>
      <trkpt lat="44.50434" lon="5.97099">
        <ele>1460</ele>
        <time>2020-05-12T09:25:19Z</time>
      </trkpt>
      <trkpt lat="44.50446" lon="5.97104">
        <ele>1458</ele>
        <time>2020-05-12T09:25:25Z</time>
      </trkpt>
      <trkpt lat="44.50454" lon="5.97106">
        <ele>1454</ele>
        <time>2020-05-12T09:25:31Z</time>
      </trkpt>
      <trkpt lat="44.50457" lon="5.97105">
        <ele>1451</ele>
        <time>2020-05-12T09:25:37Z</time>
      </trkpt>
      <trkpt lat="44.50459" lon="5.97103">
        <ele>1445</ele>
        <time>2020-05-12T09:25:43Z</time>
      </trkpt>
      <trkpt lat="44.50461" lon="5.97101">
        <ele>1445</ele>
        <time>2020-05-12T09:25:48Z</time>
      </trkpt>
      <trkpt lat="44.50462" lon="5.97101">
        <ele>1448</ele>
        <time>2020-05-12T09:25:53Z</time>
      </trkpt>
      <trkpt lat="44.50465" lon="5.97105">
        <ele>1449</ele>
        <time>2020-05-12T09:25:58Z</time>
      </trkpt>
      <trkpt lat="44.5048" lon="5.97118">
        <ele>1444</ele>
        <time>2020-05-12T09:26:03Z</time>
      </trkpt>
      <trkpt lat="44.5049" lon="5.97149">
        <ele>1446</ele>
        <time>2020-05-12T09:26:09Z</time>
      </trkpt>
      <trkpt lat="44.50496" lon="5.9717">
        <ele>1446</ele>
        <time>2020-05-12T09:26:14Z</time>
      </trkpt>
      <trkpt lat="44.50501" lon="5.97189">
        <ele>1440</ele>
        <time>2020-05-12T09:26:20Z</time>
      </trkpt>
      <trkpt lat="44.50508" lon="5.9722">
        <ele>1439</ele>
        <time>2020-05-12T09:26:26Z</time>
      </trkpt>
      <trkpt lat="44.50511" lon="5.97242">
        <ele>1441</ele>
        <time>2020-05-12T09:26:31Z</time>
      </trkpt>
      <trkpt lat="44.50519" lon="5.97259">
        <ele>1433</ele>
        <time>2020-05-12T09:26:37Z</time>
      </trkpt>
      <trkpt lat="44.5052" lon="5.97271">
        <ele>1421</ele>
        <time>2020-05-12T09:26:43Z</time>
      </trkpt>
      <trkpt lat="44.50513" lon="5.97269">
        <ele>1421</ele>
        <time>2020-05-12T09:26:48Z</time>
      </trkpt>
      <trkpt lat="44.50506" lon="5.97261">
        <ele>1421</ele>
        <time>2020-05-12T09:26:54Z</time>
      </trkpt>
      <trkpt lat="44.50504" lon="5.97261">
        <ele>1420</ele>
        <time>2020-05-12T09:27:00Z</time>
      </trkpt>
      <trkpt lat="44.50501" lon="5.97259">
        <ele>1418</ele>
        <time>2020-05-12T09:27:05Z</time>
      </trkpt>
      <trkpt lat="44.50501" lon="5.97259">
        <ele>1416</ele>
        <time>2020-05-12T09:27:11Z</time>
      </trkpt>
      <trkpt lat="44.505" lon="5.97265">
        <ele>1409</ele>
        <time>2020-05-12T09:27:17Z</time>
      </trkpt>
      <trkpt lat="44.50486" lon="5.97264">
        <ele>1413</ele>
        <time>2020-05-12T09:27:23Z</time>
      </trkpt>
      <trkpt lat="44.50473" lon="5.97262">
        <ele>1408</ele>
        <time>2020-05-12T09:27:29Z</time>
      </trkpt>
      <trkpt lat="44.50466" lon="5.97258">
        <ele>1409</ele>
        <time>2020-05-12T09:27:34Z</time>
      </trkpt>
      <trkpt lat="44.5046" lon="5.97247">
        <ele>1406</ele>
        <time>2020-05-12T09:27:39Z</time>
      </trkpt>
      <trkpt lat="44.50457" lon="5.9724">
        <ele>1408</ele>
        <time>2020-05-12T09:27:45Z</time>
      </trkpt>
      <trkpt lat="44.50444" lon="5.97243">
        <ele>1403</ele>
        <time>2020-05-12T09:27:50Z</time>
      </trkpt>
      <trkpt lat="44.50417" lon="5.97233">
        <ele>1405</ele>
        <time>2020-05-12T09:27:55Z</time>
      </trkpt>
      <trkpt lat="44.5039" lon="5.97235">
        <ele>1397</ele>
        <time>2020-05-12T09:28:01Z</time>
      </trkpt>
      <trkpt lat="44.50375" lon="5.97234">
        <ele>1396</ele>
        <time>2020-05-12T09:28:06Z</time>
      </trkpt>
      <trkpt lat="44.5036" lon="5.97238">
        <ele>1399</ele>
        <time>2020-05-12T09:28:11Z</time>
      </trkpt>
      <trkpt lat="44.5033" lon="5.97243">
        <ele>1399</ele>
        <time>2020-05-12T09:28:17Z</time>
      </trkpt>
      <trkpt lat="44.50314" lon="5.97253">
        <ele>1398</ele>
        <time>2020-05-12T09:28:22Z</time>
      </trkpt>
      <trkpt lat="44.50268" lon="5.97268">
        <ele>1394</ele>
        <time>2020-05-12T09:28:27Z</time>
      </trkpt>
      <trkpt lat="44.50241" lon="5.97281">
        <ele>1394</ele>
        <time>2020-05-12T09:28:32Z</time>
      </trkpt>
      <trkpt lat="44.50223" lon="5.97282">
        <ele>1386</ele>
        <time>2020-05-12T09:28:37Z</time>
      </trkpt>
      <trkpt lat="44.50199" lon="5.97275">
        <ele>1383</ele>
        <time>2020-05-12T09:28:43Z</time>
      </trkpt>
      <trkpt lat="44.50187" lon="5.9726">
        <ele>1380</ele>
        <time>2020-05-12T09:28:48Z</time>
      </trkpt>
      <trkpt lat="44.50173" lon="5.97248">
        <ele>1374</ele>
        <time>2020-05-12T09:28:54Z</time>
      </trkpt>
      <trkpt lat="44.50151" lon="5.97241">
        <ele>1373</ele>
        <time>2020-05-12T09:28:59Z</time>
      </trkpt>
      <trkpt lat="44.50111" lon="5.97234">
        <ele>1372</ele>
        <time>2020-05-12T09:29:05Z</time>
      </trkpt>
      <trkpt lat="44.50103" lon="5.97224">
        <ele>1370</ele>
        <time>2020-05-12T09:29:11Z</time>
      </trkpt>
      <trkpt lat="44.50101" lon="5.97223">
        <ele>1370</ele>
        <time>2020-05-12T09:29:16Z</time>
      </trkpt>
      <trkpt lat="44.50096" lon="5.97221">
        <ele>1369</ele>
        <time>2020-05-12T09:29:21Z</time>
      </trkpt>
      <trkpt lat="44.50074" lon="5.97204">
        <ele>1366</ele>
        <time>2020-05-12T09:29:27Z</time>
      </trkpt>
      <trkpt lat="44.50055" lon="5.972">
        <ele>1360</ele>
        <time>2020-05-12T09:29:33Z</time>
      </trkpt>
      <trkpt lat="44.50037" lon="5.97196">
        <ele>1357</ele>
        <time>2020-05-12T09:29:38Z</time>
      </trkpt>
      <trkpt lat="44.50022" lon="5.97196">
        <ele>1357</ele>
        <time>2020-05-12T09:29:44Z</time>
      </trkpt>
      <trkpt lat="44.50019" lon="5.97194">
        <ele>1354</ele>
        <time>2020-05-12T09:29:50Z</time>
      </trkpt>
      <trkpt lat="44.50018" lon="5.97194">
        <ele>1354</ele>
        <time>2020-05-12T09:29:55Z</time>
      </trkpt>
      <trkpt lat="44.50018" lon="5.97194">
        <ele>1355</ele>
        <time>2020-05-12T09:30:00Z</time>
      </trkpt>
      <trkpt lat="44.50018" lon="5.97194">
        <ele>1354</ele>
        <time>2020-05-12T09:30:05Z</time>
      </trkpt>
      <trkpt lat="44.5002" lon="5.97189">
        <ele>1348</ele>
        <time>2020-05-12T09:30:11Z</time>
      </trkpt>
      <trkpt lat="44.5002" lon="5.97188">
        <ele>1346</ele>
        <time>2020-05-12T09:30:16Z</time>
      </trkpt>
      <trkpt lat="44.50019" lon="5.97189">
        <ele>1346</ele>
        <time>2020-05-12T09:30:22Z</time>
      </trkpt>
      <trkpt lat="44.50019" lon="5.97189">
        <ele>1346</ele>
        <time>2020-05-12T09:30:27Z</time>
      </trkpt>
      <trkpt lat="44.50019" lon="5.97189">
        <ele>1346</ele>
        <time>2020-05-12T09:30:33Z</time>
      </trkpt>
      <trkpt lat="44.50019" lon="5.97189">
        <ele>1346</ele>
        <time>2020-05-12T09:30:38Z</time>
      </trkpt>
      <trkpt lat="44.50019" lon="5.97189">
        <ele>1346</ele>
        <time>2020-05-12T09:30:43Z</time>
      </trkpt>
      <trkpt lat="44.50019" lon="5.97189">
        <ele>1346</ele>
        <time>2020-05-12T09:30:49Z</time>
      </trkpt>
      <trkpt lat="44.50019" lon="5.97189">
        <ele>1346</ele>
        <time>2020-05-12T09:30:55Z</time>
      </trkpt>
      <trkpt lat="44.50019" lon="5.97189">
        <ele>1346</ele>
        <time>2020-05-12T09:31:01Z</time>
      </trkpt>
      <trkpt lat="44.50019" lon="5.97189">
        <ele>1346</ele>
        <time>2020-05-12T09:31:07Z</time>
      </trkpt>
      <trkpt lat="44.50019" lon="5.97189">
        <ele>1346</ele>
        <time>2020-05-12T09:31:13Z</time>
      </trkpt>
      <trkpt lat="44.50019" lon="5.97189">
        <ele>1346</ele>
        <time>2020-05-12T09:31:18Z</time>
      </trkpt>
      <trkpt lat="44.50018" lon="5.97191">
        <ele>1345</ele>
        <time>2020-05-12T09:31:24Z</time>
      </trkpt>
      <trkpt lat="44.50014" lon="5.97191">
        <ele>1346</ele>
        <time>2020-05-12T09:31:29Z</time>
      </trkpt>
      <trkpt lat="44.50012" lon="5.97191">
        <ele>1347</ele>
        <time>2020-05-12T09:31:34Z</time>
      </trkpt>
      <trkpt lat="44.50012" lon="5.97191">
        <ele>1348</ele>
        <time>2020-05-12T09:31:40Z</time>
      </trkpt>
      <trkpt lat="44.5001" lon="5.97192">
        <ele>1349</ele>
        <time>2020-05-12T09:31:45Z</time>
      </trkpt>
      <trkpt lat="44.50015" lon="5.97196">
        <ele>1348</ele>
        <time>2020-05-12T09:31:51Z</time>
      </trkpt>
      <trkpt lat="44.50023" lon="5.97202">
        <ele>1349</ele>
        <time>2020-05-12T09:31:56Z</time>
      </trkpt>
      <trkpt lat="44.50037" lon="5.9721">
        <ele>1350</ele>
        <time>2020-05-12T09:32:02Z</time>
      </trkpt>
      <trkpt lat="44.50049" lon="5.97223">
        <ele>1346</ele>
        <time>2020-05-12T09:32:07Z</time>
      </trkpt>
      <trkpt lat="44.50063" lon="5.97234">
        <ele>1348</ele>
        <time>2020-05-12T09:32:12Z</time>
      </trkpt>
      <trkpt lat="44.50083" lon="5.9725">
        <ele>1345</ele>
        <time>2020-05-12T09:32:18Z</time>
      </trkpt>
      <trkpt lat="44.50097" lon="5.97264">
        <ele>1346</ele>
        <time>2020-05-12T09:32:23Z</time>
      </trkpt>
      <trkpt lat="44.50117" lon="5.97282">
        <ele>1348</ele>
        <time>2020-05-12T09:32:29Z</time>
      </trkpt>
      <trkpt lat="44.5013" lon="5.97297">
        <ele>1350</ele>
        <time>2020-05-12T09:32:34Z</time>
      </trkpt>
      <trkpt lat="44.50146" lon="5.9732">
        <ele>1347</ele>
        <time>2020-05-12T09:32:40Z</time>
      </trkpt>
      <trkpt lat="44.50164" lon="5.97332">
        <ele>1348</ele>
        <time>2020-05-12T09:32:45Z</time>
      </trkpt>
      <trkpt lat="44.50189" lon="5.97328">
        <ele>1347</ele>
        <time>2020-05-12T09:32:51Z</time>
      </trkpt>
      <trkpt lat="44.50212" lon="5.97323">
        <ele>1349</ele>
        <time>2020-05-12T09:32:56Z</time>
      </trkpt>
      <trkpt lat="44.50239" lon="5.97327">
        <ele>1349</ele>
        <time>2020-05-12T09:33:02Z</time>
      </trkpt>
      <trkpt lat="44.50257" lon="5.97328">
        <ele>1348</ele>
        <time>2020-05-12T09:33:07Z</time>
      </trkpt>
      <trkpt lat="44.5028" lon="5.97323">
        <ele>1346</ele>
        <time>2020-05-12T09:33:12Z</time>
      </trkpt>
      <trkpt lat="44.50309" lon="5.9733">
        <ele>1345</ele>
        <time>2020-05-12T09:33:18Z</time>
      </trkpt>
      <trkpt lat="44.50338" lon="5.97339">
        <ele>1344</ele>
        <time>2020-05-12T09:33:24Z</time>
      </trkpt>
      <trkpt lat="44.50364" lon="5.97352">
        <ele>1343</ele>
        <time>2020-05-12T09:33:30Z</time>
      </trkpt>
      <trkpt lat="44.50386" lon="5.97361">
        <ele>1345</ele>
        <time>2020-05-12T09:33:36Z</time>
      </trkpt>
      <trkpt lat="44.50404" lon="5.97377">
        <ele>1347</ele>
        <time>2020-05-12T09:33:42Z</time>
      </trkpt>
      <trkpt lat="44.50415" lon="5.97391">
        <ele>1347</ele>
        <time>2020-05-12T09:33:47Z</time>
      </trkpt>
      <trkpt lat="44.50435" lon="5.97408">
        <ele>1347</ele>
        <time>2020-05-12T09:33:53Z</time>
      </trkpt>
      <trkpt lat="44.5045" lon="5.97423">
        <ele>1347</ele>
        <time>2020-05-12T09:33:58Z</time>
      </trkpt>
      <trkpt lat="44.50463" lon="5.9744">
        <ele>1348</ele>
        <time>2020-05-12T09:34:03Z</time>
      </trkpt>
      <trkpt lat="44.50477" lon="5.97456">
        <ele>1346</ele>
        <time>2020-05-12T09:34:08Z</time>
      </trkpt>
      <trkpt lat="44.50493" lon="5.97478">
        <ele>1346</ele>
        <time>2020-05-12T09:34:14Z</time>
      </trkpt>
      <trkpt lat="44.50505" lon="5.97507">
        <ele>1347</ele>
        <time>2020-05-12T09:34:20Z</time>
      </trkpt>
      <trkpt lat="44.50515" lon="5.97527">
        <ele>1353</ele>
        <time>2020-05-12T09:34:25Z</time>
      </trkpt>
      <trkpt lat="44.50531" lon="5.97538">
        <ele>1351</ele>
        <time>2020-05-12T09:34:30Z</time>
      </trkpt>
      <trkpt lat="44.50549" lon="5.97545">
        <ele>1355</ele>
        <time>2020-05-12T09:34:35Z</time>
      </trkpt>
      <trkpt lat="44.50565" lon="5.97552">
        <ele>1355</ele>
        <time>2020-05-12T09:34:40Z</time>
      </trkpt>
      <trkpt lat="44.50586" lon="5.97553">
        <ele>1355</ele>
        <time>2020-05-12T09:34:46Z</time>
      </trkpt>
      <trkpt lat="44.50607" lon="5.97552">
        <ele>1358</ele>
        <time>2020-05-12T09:34:52Z</time>
      </trkpt>
      <trkpt lat="44.50629" lon="5.97546">
        <ele>1358</ele>
        <time>2020-05-12T09:34:57Z</time>
      </trkpt>
      <trkpt lat="44.50661" lon="5.97538">
        <ele>1357</ele>
        <time>2020-05-12T09:35:03Z</time>
      </trkpt>
      <trkpt lat="44.50687" lon="5.97537">
        <ele>1354</ele>
        <time>2020-05-12T09:35:08Z</time>
      </trkpt>
      <trkpt lat="44.5071" lon="5.97549">
        <ele>1350</ele>
        <time>2020-05-12T09:35:13Z</time>
      </trkpt>
      <trkpt lat="44.50729" lon="5.97563">
        <ele>1352</ele>
        <time>2020-05-12T09:35:18Z</time>
      </trkpt>
      <trkpt lat="44.50764" lon="5.97562">
        <ele>1349</ele>
        <time>2020-05-12T09:35:24Z</time>
      </trkpt>
      <trkpt lat="44.50789" lon="5.97566">
        <ele>1350</ele>
        <time>2020-05-12T09:35:30Z</time>
      </trkpt>
      <trkpt lat="44.50808" lon="5.97575">
        <ele>1351</ele>
        <time>2020-05-12T09:35:35Z</time>
      </trkpt>
      <trkpt lat="44.50825" lon="5.97585">
        <ele>1352</ele>
        <time>2020-05-12T09:35:40Z</time>
      </trkpt>
      <trkpt lat="44.50841" lon="5.97601">
        <ele>1350</ele>
        <time>2020-05-12T09:35:45Z</time>
      </trkpt>
      <trkpt lat="44.50866" lon="5.97622">
        <ele>1352</ele>
        <time>2020-05-12T09:35:51Z</time>
      </trkpt>
      <trkpt lat="44.5089" lon="5.97626">
        <ele>1353</ele>
        <time>2020-05-12T09:35:56Z</time>
      </trkpt>
      <trkpt lat="44.50908" lon="5.97605">
        <ele>1359</ele>
        <time>2020-05-12T09:36:02Z</time>
      </trkpt>
      <trkpt lat="44.50925" lon="5.97581">
        <ele>1360</ele>
        <time>2020-05-12T09:36:08Z</time>
      </trkpt>
      <trkpt lat="44.50949" lon="5.97561">
        <ele>1355</ele>
        <time>2020-05-12T09:36:14Z</time>
      </trkpt>
      <trkpt lat="44.50975" lon="5.97546">
        <ele>1353</ele>
        <time>2020-05-12T09:36:20Z</time>
      </trkpt>
      <trkpt lat="44.51" lon="5.97537">
        <ele>1350</ele>
        <time>2020-05-12T09:36:26Z</time>
      </trkpt>
      <trkpt lat="44.51019" lon="5.97532">
        <ele>1344</ele>
        <time>2020-05-12T09:36:31Z</time>
      </trkpt>
      <trkpt lat="44.51038" lon="5.97526">
        <ele>1346</ele>
        <time>2020-05-12T09:36:36Z</time>
      </trkpt>
      <trkpt lat="44.51066" lon="5.97527">
        <ele>1349</ele>
        <time>2020-05-12T09:36:42Z</time>
      </trkpt>
      <trkpt lat="44.51089" lon="5.97522">
        <ele>1346</ele>
        <time>2020-05-12T09:36:47Z</time>
      </trkpt>
      <trkpt lat="44.51111" lon="5.97527">
        <ele>1346</ele>
        <time>2020-05-12T09:36:52Z</time>
      </trkpt>
      <trkpt lat="44.51135" lon="5.97549">
        <ele>1346</ele>
        <time>2020-05-12T09:36:58Z</time>
      </trkpt>
      <trkpt lat="44.51151" lon="5.97584">
        <ele>1347</ele>
        <time>2020-05-12T09:37:03Z</time>
      </trkpt>
      <trkpt lat="44.51177" lon="5.97601">
        <ele>1350</ele>
        <time>2020-05-12T09:37:09Z</time>
      </trkpt>
      <trkpt lat="44.51202" lon="5.97597">
        <ele>1347</ele>
        <time>2020-05-12T09:37:14Z</time>
      </trkpt>
      <trkpt lat="44.51224" lon="5.97592">
        <ele>1345</ele>
        <time>2020-05-12T09:37:19Z</time>
      </trkpt>
      <trkpt lat="44.51255" lon="5.9758">
        <ele>1342</ele>
        <time>2020-05-12T09:37:25Z</time>
      </trkpt>
      <trkpt lat="44.51276" lon="5.97566">
        <ele>1341</ele>
        <time>2020-05-12T09:37:30Z</time>
      </trkpt>
      <trkpt lat="44.513" lon="5.97562">
        <ele>1344</ele>
        <time>2020-05-12T09:37:36Z</time>
      </trkpt>
      <trkpt lat="44.51316" lon="5.97557">
        <ele>1351</ele>
        <time>2020-05-12T09:37:41Z</time>
      </trkpt>
      <trkpt lat="44.51335" lon="5.97545">
        <ele>1353</ele>
        <time>2020-05-12T09:37:47Z</time>
      </trkpt>
      <trkpt lat="44.51351" lon="5.97531">
        <ele>1359</ele>
        <time>2020-05-12T09:37:52Z</time>
      </trkpt>
      <trkpt lat="44.51365" lon="5.97513">
        <ele>1359</ele>
        <time>2020-05-12T09:37:58Z</time>
      </trkpt>
      <trkpt lat="44.5139" lon="5.97508">
        <ele>1351</ele>
        <time>2020-05-12T09:38:04Z</time>
      </trkpt>
      <trkpt lat="44.51419" lon="5.97501">
        <ele>1352</ele>
        <time>2020-05-12T09:38:10Z</time>
      </trkpt>
      <trkpt lat="44.51447" lon="5.97496">
        <ele>1348</ele>
        <time>2020-05-12T09:38:16Z</time>
      </trkpt>
      <trkpt lat="44.51465" lon="5.97486">
        <ele>1347</ele>
        <time>2020-05-12T09:38:21Z</time>
      </trkpt>
      <trkpt lat="44.51484" lon="5.97487">
        <ele>1348</ele>
        <time>2020-05-12T09:38:26Z</time>
      </trkpt>
      <trkpt lat="44.51502" lon="5.97475">
        <ele>1344</ele>
        <time>2020-05-12T09:38:31Z</time>
      </trkpt>
      <trkpt lat="44.51528" lon="5.9748">
        <ele>1343</ele>
        <time>2020-05-12T09:38:37Z</time>
      </trkpt>
      <trkpt lat="44.51555" lon="5.97474">
        <ele>1339</ele>
        <time>2020-05-12T09:38:43Z</time>
      </trkpt>
      <trkpt lat="44.51575" lon="5.97469">
        <ele>1340</ele>
        <time>2020-05-12T09:38:48Z</time>
      </trkpt>
      <trkpt lat="44.51602" lon="5.97467">
        <ele>1336</ele>
        <time>2020-05-12T09:38:54Z</time>
      </trkpt>
      <trkpt lat="44.51622" lon="5.97465">
        <ele>1335</ele>
        <time>2020-05-12T09:38:59Z</time>
      </trkpt>
      <trkpt lat="44.51646" lon="5.97462">
        <ele>1336</ele>
        <time>2020-05-12T09:39:05Z</time>
      </trkpt>
      <trkpt lat="44.51662" lon="5.97468">
        <ele>1339</ele>
        <time>2020-05-12T09:39:11Z</time>
      </trkpt>
      <trkpt lat="44.51671" lon="5.97487">
        <ele>1341</ele>
        <time>2020-05-12T09:39:16Z</time>
      </trkpt>
      <trkpt lat="44.51694" lon="5.97481">
        <ele>1339</ele>
        <time>2020-05-12T09:39:22Z</time>
      </trkpt>
      <trkpt lat="44.51714" lon="5.97455">
        <ele>1337</ele>
        <time>2020-05-12T09:39:28Z</time>
      </trkpt>
      <trkpt lat="44.51732" lon="5.97434">
        <ele>1336</ele>
        <time>2020-05-12T09:39:33Z</time>
      </trkpt>
      <trkpt lat="44.51752" lon="5.97427">
        <ele>1338</ele>
        <time>2020-05-12T09:39:39Z</time>
      </trkpt>
      <trkpt lat="44.51764" lon="5.97441">
        <ele>1334</ele>
        <time>2020-05-12T09:39:44Z</time>
      </trkpt>
      <trkpt lat="44.51786" lon="5.97458">
        <ele>1334</ele>
        <time>2020-05-12T09:39:50Z</time>
      </trkpt>
      <trkpt lat="44.51804" lon="5.97476">
        <ele>1336</ele>
        <time>2020-05-12T09:39:55Z</time>
      </trkpt>
      <trkpt lat="44.51816" lon="5.97508">
        <ele>1338</ele>
        <time>2020-05-12T09:40:00Z</time>
      </trkpt>
      <trkpt lat="44.5183" lon="5.97537">
        <ele>1338</ele>
        <time>2020-05-12T09:40:06Z</time>
      </trkpt>
      <trkpt lat="44.51834" lon="5.97564">
        <ele>1336</ele>
        <time>2020-05-12T09:40:11Z</time>
      </trkpt>
      <trkpt lat="44.5182" lon="5.97597">
        <ele>1342</ele>
        <time>2020-05-12T09:40:17Z</time>
      </trkpt>
      <trkpt lat="44.51803" lon="5.97618">
        <ele>1342</ele>
        <time>2020-05-12T09:40:22Z</time>
      </trkpt>
      <trkpt lat="44.51791" lon="5.97646">
        <ele>1344</ele>
        <time>2020-05-12T09:40:27Z</time>
      </trkpt>
      <trkpt lat="44.51784" lon="5.9769">
        <ele>1342</ele>
        <time>2020-05-12T09:40:33Z</time>
      </trkpt>
      <trkpt lat="44.51789" lon="5.97723">
        <ele>1340</ele>
        <time>2020-05-12T09:40:38Z</time>
      </trkpt>
      <trkpt lat="44.51827" lon="5.97732">
        <ele>1336</ele>
        <time>2020-05-12T09:40:44Z</time>
      </trkpt>
      <trkpt lat="44.51862" lon="5.97739">
        <ele>1331</ele>
        <time>2020-05-12T09:40:50Z</time>
      </trkpt>
      <trkpt lat="44.51885" lon="5.97763">
        <ele>1332</ele>
        <time>2020-05-12T09:40:56Z</time>
      </trkpt>
      <trkpt lat="44.51895" lon="5.97784">
        <ele>1328</ele>
        <time>2020-05-12T09:41:01Z</time>
      </trkpt>
      <trkpt lat="44.51927" lon="5.97787">
        <ele>1329</ele>
        <time>2020-05-12T09:41:07Z</time>
      </trkpt>
      <trkpt lat="44.51951" lon="5.97801">
        <ele>1328</ele>
        <time>2020-05-12T09:41:12Z</time>
      </trkpt>
      <trkpt lat="44.51981" lon="5.97797">
        <ele>1330</ele>
        <time>2020-05-12T09:41:18Z</time>
      </trkpt>
      <trkpt lat="44.52009" lon="5.97795">
        <ele>1323</ele>
        <time>2020-05-12T09:41:23Z</time>
      </trkpt>
      <trkpt lat="44.52033" lon="5.97797">
        <ele>1320</ele>
        <time>2020-05-12T09:41:29Z</time>
      </trkpt>
      <trkpt lat="44.52062" lon="5.97801">
        <ele>1318</ele>
        <time>2020-05-12T09:41:35Z</time>
      </trkpt>
      <trkpt lat="44.52068" lon="5.97805">
        <ele>1316</ele>
        <time>2020-05-12T09:41:41Z</time>
      </trkpt>
      <trkpt lat="44.52067" lon="5.97806">
        <ele>1315</ele>
        <time>2020-05-12T09:41:46Z</time>
      </trkpt>
      <trkpt lat="44.52067" lon="5.97804">
        <ele>1313</ele>
        <time>2020-05-12T09:41:52Z</time>
      </trkpt>
      <trkpt lat="44.52064" lon="5.97811">
        <ele>1314</ele>
        <time>2020-05-12T09:41:57Z</time>
      </trkpt>
      <trkpt lat="44.52069" lon="5.97823">
        <ele>1311</ele>
        <time>2020-05-12T09:42:02Z</time>
      </trkpt>
      <trkpt lat="44.52064" lon="5.9783">
        <ele>1310</ele>
        <time>2020-05-12T09:42:08Z</time>
      </trkpt>
      <trkpt lat="44.52059" lon="5.97834">
        <ele>1306</ele>
        <time>2020-05-12T09:42:13Z</time>
      </trkpt>
      <trkpt lat="44.52051" lon="5.97845">
        <ele>1304</ele>
        <time>2020-05-12T09:42:18Z</time>
      </trkpt>
      <trkpt lat="44.52042" lon="5.97856">
        <ele>1304</ele>
        <time>2020-05-12T09:42:23Z</time>
      </trkpt>
      <trkpt lat="44.52031" lon="5.97867">
        <ele>1307</ele>
        <time>2020-05-12T09:42:28Z</time>
      </trkpt>
      <trkpt lat="44.52022" lon="5.97881">
        <ele>1305</ele>
        <time>2020-05-12T09:42:34Z</time>
      </trkpt>
      <trkpt lat="44.52011" lon="5.97897">
        <ele>1302</ele>
        <time>2020-05-12T09:42:40Z</time>
      </trkpt>
      <trkpt lat="44.5201" lon="5.97924">
        <ele>1297</ele>
        <time>2020-05-12T09:42:45Z</time>
      </trkpt>
      <trkpt lat="44.52003" lon="5.97945">
        <ele>1294</ele>
        <time>2020-05-12T09:42:50Z</time>
      </trkpt>
      <trkpt lat="44.51999" lon="5.97964">
        <ele>1288</ele>
        <time>2020-05-12T09:42:55Z</time>
      </trkpt>
      <trkpt lat="44.51997" lon="5.97985">
        <ele>1287</ele>
        <time>2020-05-12T09:43:01Z</time>
      </trkpt>
      <trkpt lat="44.52001" lon="5.9801">
        <ele>1286</ele>
        <time>2020-05-12T09:43:06Z</time>
      </trkpt>
      <trkpt lat="44.52004" lon="5.9804">
        <ele>1282</ele>
        <time>2020-05-12T09:43:12Z</time>
      </trkpt>
      <trkpt lat="44.52021" lon="5.98071">
        <ele>1278</ele>
        <time>2020-05-12T09:43:18Z</time>
      </trkpt>
      <trkpt lat="44.5203" lon="5.9809">
        <ele>1272</ele>
        <time>2020-05-12T09:43:24Z</time>
      </trkpt>
      <trkpt lat="44.52033" lon="5.98102">
        <ele>1264</ele>
        <time>2020-05-12T09:43:30Z</time>
      </trkpt>
      <trkpt lat="44.52032" lon="5.98122">
        <ele>1262</ele>
        <time>2020-05-12T09:43:36Z</time>
      </trkpt>
      <trkpt lat="44.52029" lon="5.98123">
        <ele>1260</ele>
        <time>2020-05-12T09:43:42Z</time>
      </trkpt>
      <trkpt lat="44.52029" lon="5.98125">
        <ele>1261</ele>
        <time>2020-05-12T09:43:47Z</time>
      </trkpt>
      <trkpt lat="44.52027" lon="5.98141">
        <ele>1254</ele>
        <time>2020-05-12T09:43:53Z</time>
      </trkpt>
      <trkpt lat="44.5203" lon="5.98166">
        <ele>1256</ele>
        <time>2020-05-12T09:43:58Z</time>
      </trkpt>
      <trkpt lat="44.52031" lon="5.98189">
        <ele>1253</ele>
        <time>2020-05-12T09:44:03Z</time>
      </trkpt>
      <trkpt lat="44.52034" lon="5.98209">
        <ele>1252</ele>
        <time>2020-05-12T09:44:09Z</time>
      </trkpt>
      <trkpt lat="44.52032" lon="5.98229">
        <ele>1254</ele>
        <time>2020-05-12T09:44:14Z</time>
      </trkpt>
      <trkpt lat="44.52028" lon="5.98252">
        <ele>1251</ele>
        <time>2020-05-12T09:44:20Z</time>
      </trkpt>
      <trkpt lat="44.52031" lon="5.98277">
        <ele>1247</ele>
        <time>2020-05-12T09:44:26Z</time>
      </trkpt>
      <trkpt lat="44.52037" lon="5.98299">
        <ele>1246</ele>
        <time>2020-05-12T09:44:31Z</time>
      </trkpt>
      <trkpt lat="44.52033" lon="5.98324">
        <ele>1245</ele>
        <time>2020-05-12T09:44:36Z</time>
      </trkpt>
      <trkpt lat="44.52034" lon="5.9835">
        <ele>1239</ele>
        <time>2020-05-12T09:44:42Z</time>
      </trkpt>
      <trkpt lat="44.52037" lon="5.98384">
        <ele>1233</ele>
        <time>2020-05-12T09:44:48Z</time>
      </trkpt>
      <trkpt lat="44.52037" lon="5.98414">
        <ele>1229</ele>
        <time>2020-05-12T09:44:53Z</time>
      </trkpt>
      <trkpt lat="44.52036" lon="5.98438">
        <ele>1229</ele>
        <time>2020-05-12T09:44:58Z</time>
      </trkpt>
      <trkpt lat="44.52037" lon="5.98458">
        <ele>1226</ele>
        <time>2020-05-12T09:45:04Z</time>
      </trkpt>
      <trkpt lat="44.52035" lon="5.98459">
        <ele>1227</ele>
        <time>2020-05-12T09:45:09Z</time>
      </trkpt>
      <trkpt lat="44.52034" lon="5.98467">
        <ele>1227</ele>
        <time>2020-05-12T09:45:15Z</time>
      </trkpt>
      <trkpt lat="44.52034" lon="5.98481">
        <ele>1226</ele>
        <time>2020-05-12T09:45:20Z</time>
      </trkpt>
      <trkpt lat="44.52034" lon="5.98509">
        <ele>1223</ele>
        <time>2020-05-12T09:45:26Z</time>
      </trkpt>
      <trkpt lat="44.52039" lon="5.98541">
        <ele>1221</ele>
        <time>2020-05-12T09:45:31Z</time>
      </trkpt>
      <trkpt lat="44.52038" lon="5.98587">
        <ele>1220</ele>
        <time>2020-05-12T09:45:36Z</time>
      </trkpt>
      <trkpt lat="44.52039" lon="5.98615">
        <ele>1214</ele>
        <time>2020-05-12T09:45:42Z</time>
      </trkpt>
      <trkpt lat="44.52035" lon="5.98635">
        <ele>1207</ele>
        <time>2020-05-12T09:45:47Z</time>
      </trkpt>
      <trkpt lat="44.52043" lon="5.98668">
        <ele>1207</ele>
        <time>2020-05-12T09:45:53Z</time>
      </trkpt>
      <trkpt lat="44.52046" lon="5.98704">
        <ele>1207</ele>
        <time>2020-05-12T09:45:59Z</time>
      </trkpt>
      <trkpt lat="44.52049" lon="5.98728">
        <ele>1205</ele>
        <time>2020-05-12T09:46:05Z</time>
      </trkpt>
      <trkpt lat="44.52037" lon="5.98744">
        <ele>1206</ele>
        <time>2020-05-12T09:46:10Z</time>
      </trkpt>
      <trkpt lat="44.52025" lon="5.98756">
        <ele>1203</ele>
        <time>2020-05-12T09:46:15Z</time>
      </trkpt>
      <trkpt lat="44.52024" lon="5.98758">
        <ele>1205</ele>
        <time>2020-05-12T09:46:21Z</time>
      </trkpt>
      <trkpt lat="44.52023" lon="5.98761">
        <ele>1206</ele>
        <time>2020-05-12T09:46:26Z</time>
      </trkpt>
      <trkpt lat="44.52028" lon="5.98772">
        <ele>1205</ele>
        <time>2020-05-12T09:46:31Z</time>
      </trkpt>
      <trkpt lat="44.52028" lon="5.98772">
        <ele>1204</ele>
        <time>2020-05-12T09:46:36Z</time>
      </trkpt>
      <trkpt lat="44.52028" lon="5.98771">
        <ele>1206</ele>
        <time>2020-05-12T09:46:42Z</time>
      </trkpt>
      <trkpt lat="44.52028" lon="5.98771">
        <ele>1208</ele>
        <time>2020-05-12T09:46:48Z</time>
      </trkpt>
      <trkpt lat="44.52028" lon="5.98771">
        <ele>1208</ele>
        <time>2020-05-12T09:46:53Z</time>
      </trkpt>
      <trkpt lat="44.52028" lon="5.98771">
        <ele>1208</ele>
        <time>2020-05-12T09:46:58Z</time>
      </trkpt>
      <trkpt lat="44.52028" lon="5.98771">
        <ele>1208</ele>
        <time>2020-05-12T09:47:03Z</time>
      </trkpt>
      <trkpt lat="44.52027" lon="5.98773">
        <ele>1207</ele>
        <time>2020-05-12T09:47:09Z</time>
      </trkpt>
      <trkpt lat="44.52031" lon="5.98774">
        <ele>1208</ele>
        <time>2020-05-12T09:47:14Z</time>
      </trkpt>
      <trkpt lat="44.52039" lon="5.98789">
        <ele>1207</ele>
        <time>2020-05-12T09:47:20Z</time>
      </trkpt>
      <trkpt lat="44.52039" lon="5.98823">
        <ele>1204</ele>
        <time>2020-05-12T09:47:26Z</time>
      </trkpt>
      <trkpt lat="44.52035" lon="5.9885">
        <ele>1201</ele>
        <time>2020-05-12T09:47:32Z</time>
      </trkpt>
      <trkpt lat="44.52029" lon="5.98869">
        <ele>1202</ele>
        <time>2020-05-12T09:47:37Z</time>
      </trkpt>
      <trkpt lat="44.52035" lon="5.98879">
        <ele>1202</ele>
        <time>2020-05-12T09:47:42Z</time>
      </trkpt>
      <trkpt lat="44.52046" lon="5.98893">
        <ele>1202</ele>
        <time>2020-05-12T09:47:47Z</time>
      </trkpt>
      <trkpt lat="44.5205" lon="5.98912">
        <ele>1199</ele>
        <time>2020-05-12T09:47:53Z</time>
      </trkpt>
      <trkpt lat="44.52055" lon="5.9893">
        <ele>1198</ele>
        <time>2020-05-12T09:47:58Z</time>
      </trkpt>
      <trkpt lat="44.5205" lon="5.98953">
        <ele>1190</ele>
        <time>2020-05-12T09:48:04Z</time>
      </trkpt>
      <trkpt lat="44.52051" lon="5.9899">
        <ele>1185</ele>
        <time>2020-05-12T09:48:10Z</time>
      </trkpt>
      <trkpt lat="44.52055" lon="5.99012">
        <ele>1185</ele>
        <time>2020-05-12T09:48:15Z</time>
      </trkpt>
      <trkpt lat="44.52057" lon="5.99033">
        <ele>1184</ele>
        <time>2020-05-12T09:48:21Z</time>
      </trkpt>
      <trkpt lat="44.52062" lon="5.99051">
        <ele>1184</ele>
        <time>2020-05-12T09:48:27Z</time>
      </trkpt>
      <trkpt lat="44.52067" lon="5.99068">
        <ele>1183</ele>
        <time>2020-05-12T09:48:32Z</time>
      </trkpt>
      <trkpt lat="44.52075" lon="5.99081">
        <ele>1180</ele>
        <time>2020-05-12T09:48:38Z</time>
      </trkpt>
      <trkpt lat="44.52082" lon="5.99097">
        <ele>1185</ele>
        <time>2020-05-12T09:48:44Z</time>
      </trkpt>
      <trkpt lat="44.52084" lon="5.99106">
        <ele>1184</ele>
        <time>2020-05-12T09:48:50Z</time>
      </trkpt>
      <trkpt lat="44.52084" lon="5.99111">
        <ele>1187</ele>
        <time>2020-05-12T09:48:56Z</time>
      </trkpt>
      <trkpt lat="44.52085" lon="5.99117">
        <ele>1186</ele>
        <time>2020-05-12T09:49:01Z</time>
      </trkpt>
      <trkpt lat="44.52088" lon="5.99124">
        <ele>1184</ele>
        <time>2020-05-12T09:49:06Z</time>
      </trkpt>
      <trkpt lat="44.52095" lon="5.99131">
        <ele>1180</ele>
        <time>2020-05-12T09:49:12Z</time>
      </trkpt>
      <trkpt lat="44.52096" lon="5.99136">
        <ele>1179</ele>
        <time>2020-05-12T09:49:18Z</time>
      </trkpt>
      <trkpt lat="44.52096" lon="5.99138">
        <ele>1176</ele>
        <time>2020-05-12T09:49:23Z</time>
      </trkpt>
      <trkpt lat="44.52097" lon="5.99139">
        <ele>1175</ele>
        <time>2020-05-12T09:49:28Z</time>
      </trkpt>
      <trkpt lat="44.52102" lon="5.99144">
        <ele>1169</ele>
        <time>2020-05-12T09:49:34Z</time>
      </trkpt>
      <trkpt lat="44.52106" lon="5.99153">
        <ele>1171</ele>
        <time>2020-05-12T09:49:39Z</time>
      </trkpt>
      <trkpt lat="44.52117" lon="5.99168">
        <ele>1170</ele>
        <time>2020-05-12T09:49:44Z</time>
      </trkpt>
      <trkpt lat="44.52132" lon="5.99186">
        <ele>1168</ele>
        <time>2020-05-12T09:49:49Z</time>
      </trkpt>
      <trkpt lat="44.52146" lon="5.99214">
        <ele>1166</ele>
        <time>2020-05-12T09:49:55Z</time>
      </trkpt>
      <trkpt lat="44.52151" lon="5.99221">
        <ele>1165</ele>
        <time>2020-05-12T09:50:00Z</time>
      </trkpt>
      <trkpt lat="44.52165" lon="5.99236">
        <ele>1164</ele>
        <time>2020-05-12T09:50:06Z</time>
      </trkpt>
      <trkpt lat="44.52181" lon="5.99267">
        <ele>1160</ele>
        <time>2020-05-12T09:50:12Z</time>
      </trkpt>
      <trkpt lat="44.52186" lon="5.99283">
        <ele>1158</ele>
        <time>2020-05-12T09:50:17Z</time>
      </trkpt>
      <trkpt lat="44.52197" lon="5.993">
        <ele>1157</ele>
        <time>2020-05-12T09:50:23Z</time>
      </trkpt>
      <trkpt lat="44.52209" lon="5.99317">
        <ele>1157</ele>
        <time>2020-05-12T09:50:28Z</time>
      </trkpt>
      <trkpt lat="44.52222" lon="5.99335">
        <ele>1154</ele>
        <time>2020-05-12T09:50:34Z</time>
      </trkpt>
      <trkpt lat="44.5221" lon="5.99336">
        <ele>1152</ele>
        <time>2020-05-12T09:50:40Z</time>
      </trkpt>
      <trkpt lat="44.52193" lon="5.99335">
        <ele>1152</ele>
        <time>2020-05-12T09:50:46Z</time>
      </trkpt>
      <trkpt lat="44.52173" lon="5.9933">
        <ele>1150</ele>
        <time>2020-05-12T09:50:51Z</time>
      </trkpt>
      <trkpt lat="44.52157" lon="5.99331">
        <ele>1147</ele>
        <time>2020-05-12T09:50:57Z</time>
      </trkpt>
      <trkpt lat="44.52151" lon="5.99369">
        <ele>1146</ele>
        <time>2020-05-12T09:51:02Z</time>
      </trkpt>
      <trkpt lat="44.52148" lon="5.9939">
        <ele>1138</ele>
        <time>2020-05-12T09:51:07Z</time>
      </trkpt>
      <trkpt lat="44.52136" lon="5.99406">
        <ele>1145</ele>
        <time>2020-05-12T09:51:13Z</time>
      </trkpt>
      <trkpt lat="44.52127" lon="5.99416">
        <ele>1145</ele>
        <time>2020-05-12T09:51:18Z</time>
      </trkpt>
      <trkpt lat="44.52114" lon="5.99426">
        <ele>1143</ele>
        <time>2020-05-12T09:51:24Z</time>
      </trkpt>
      <trkpt lat="44.52105" lon="5.99443">
        <ele>1140</ele>
        <time>2020-05-12T09:51:30Z</time>
      </trkpt>
      <trkpt lat="44.52094" lon="5.99465">
        <ele>1135</ele>
        <time>2020-05-12T09:51:36Z</time>
      </trkpt>
      <trkpt lat="44.52088" lon="5.99489">
        <ele>1125</ele>
        <time>2020-05-12T09:51:42Z</time>
      </trkpt>
      <trkpt lat="44.52084" lon="5.99524">
        <ele>1122</ele>
        <time>2020-05-12T09:51:47Z</time>
      </trkpt>
      <trkpt lat="44.52072" lon="5.99546">
        <ele>1115</ele>
        <time>2020-05-12T09:51:52Z</time>
      </trkpt>
      <trkpt lat="44.52061" lon="5.99564">
        <ele>1111</ele>
        <time>2020-05-12T09:51:58Z</time>
      </trkpt>
      <trkpt lat="44.52058" lon="5.99587">
        <ele>1111</ele>
        <time>2020-05-12T09:52:03Z</time>
      </trkpt>
      <trkpt lat="44.52055" lon="5.99614">
        <ele>1110</ele>
        <time>2020-05-12T09:52:09Z</time>
      </trkpt>
      <trkpt lat="44.52052" lon="5.99634">
        <ele>1108</ele>
        <time>2020-05-12T09:52:14Z</time>
      </trkpt>
      <trkpt lat="44.52053" lon="5.99642">
        <ele>1105</ele>
        <time>2020-05-12T09:52:20Z</time>
      </trkpt>
      <trkpt lat="44.52052" lon="5.99649">
        <ele>1104</ele>
        <time>2020-05-12T09:52:26Z</time>
      </trkpt>
      <trkpt lat="44.52052" lon="5.9965">
        <ele>1104</ele>
        <time>2020-05-12T09:52:31Z</time>
      </trkpt>
      <trkpt lat="44.52047" lon="5.99663">
        <ele>1104</ele>
        <time>2020-05-12T09:52:37Z</time>
      </trkpt>
      <trkpt lat="44.52044" lon="5.99686">
        <ele>1104</ele>
        <time>2020-05-12T09:52:43Z</time>
      </trkpt>
      <trkpt lat="44.52039" lon="5.99712">
        <ele>1098</ele>
        <time>2020-05-12T09:52:49Z</time>
      </trkpt>
      <trkpt lat="44.52042" lon="5.99744">
        <ele>1095</ele>
        <time>2020-05-12T09:52:54Z</time>
      </trkpt>
      <trkpt lat="44.52032" lon="5.99801">
        <ele>1090</ele>
        <time>2020-05-12T09:53:00Z</time>
      </trkpt>
      <trkpt lat="44.52018" lon="5.99833">
        <ele>1086</ele>
        <time>2020-05-12T09:53:05Z</time>
      </trkpt>
      <trkpt lat="44.52019" lon="5.99849">
        <ele>1079</ele>
        <time>2020-05-12T09:53:11Z</time>
      </trkpt>
      <trkpt lat="44.52019" lon="5.99848">
        <ele>1078</ele>
        <time>2020-05-12T09:53:17Z</time>
      </trkpt>
      <trkpt lat="44.52018" lon="5.99848">
        <ele>1077</ele>
        <time>2020-05-12T09:53:23Z</time>
      </trkpt>
      <trkpt lat="44.52019" lon="5.99854">
        <ele>1078</ele>
        <time>2020-05-12T09:53:28Z</time>
      </trkpt>
      <trkpt lat="44.52017" lon="5.99885">
        <ele>1074</ele>
        <time>2020-05-12T09:53:34Z</time>
      </trkpt>
      <trkpt lat="44.52019" lon="5.99918">
        <ele>1071</ele>
        <time>2020-05-12T09:53:39Z</time>
      </trkpt>
      <trkpt lat="44.52022" lon="5.99959">
        <ele>1069</ele>
        <time>2020-05-12T09:53:45Z</time>
      </trkpt>
      <trkpt lat="44.52018" lon="6.00002">
        <ele>1071</ele>
        <time>2020-05-12T09:53:51Z</time>
      </trkpt>
      <trkpt lat="44.52024" lon="6.0004">
        <ele>1072</ele>
        <time>2020-05-12T09:53:56Z</time>
      </trkpt>
      <trkpt lat="44.52027" lon="6.00073">
        <ele>1072</ele>
        <time>2020-05-12T09:54:02Z</time>
      </trkpt>
      <trkpt lat="44.52044" lon="6.00077">
        <ele>1070</ele>
        <time>2020-05-12T09:54:07Z</time>
      </trkpt>
      <trkpt lat="44.52065" lon="6.00067">
        <ele>1066</ele>
        <time>2020-05-12T09:54:12Z</time>
      </trkpt>
      <trkpt lat="44.52085" lon="6.00052">
        <ele>1064</ele>
        <time>2020-05-12T09:54:18Z</time>
      </trkpt>
      <trkpt lat="44.52102" lon="6.00039">
        <ele>1062</ele>
        <time>2020-05-12T09:54:24Z</time>
      </trkpt>
      <trkpt lat="44.52122" lon="6.00028">
        <ele>1060</ele>
        <time>2020-05-12T09:54:30Z</time>
      </trkpt>
      <trkpt lat="44.52141" lon="6.00024">
        <ele>1063</ele>
        <time>2020-05-12T09:54:35Z</time>
      </trkpt>
      <trkpt lat="44.52165" lon="6.00019">
        <ele>1064</ele>
        <time>2020-05-12T09:54:41Z</time>
      </trkpt>
      <trkpt lat="44.52189" lon="6.00022">
        <ele>1065</ele>
        <time>2020-05-12T09:54:47Z</time>
      </trkpt>
      <trkpt lat="44.52206" lon="6.00037">
        <ele>1060</ele>
        <time>2020-05-12T09:54:52Z</time>
      </trkpt>
      <trkpt lat="44.52226" lon="6.00052">
        <ele>1062</ele>
        <time>2020-05-12T09:54:57Z</time>
      </trkpt>
      <trkpt lat="44.52246" lon="6.00074">
        <ele>1067</ele>
        <time>2020-05-12T09:55:03Z</time>
      </trkpt>
      <trkpt lat="44.52262" lon="6.00091">
        <ele>1070</ele>
        <time>2020-05-12T09:55:09Z</time>
      </trkpt>
      <trkpt lat="44.52272" lon="6.0011">
        <ele>1072</ele>
        <time>2020-05-12T09:55:15Z</time>
      </trkpt>
      <trkpt lat="44.52252" lon="6.00132">
        <ele>1071</ele>
        <time>2020-05-12T09:55:20Z</time>
      </trkpt>
      <trkpt lat="44.52225" lon="6.00145">
        <ele>1068</ele>
        <time>2020-05-12T09:55:25Z</time>
      </trkpt>
      <trkpt lat="44.52194" lon="6.00148">
        <ele>1068</ele>
        <time>2020-05-12T09:55:31Z</time>
      </trkpt>
      <trkpt lat="44.52163" lon="6.00175">
        <ele>1066</ele>
        <time>2020-05-12T09:55:36Z</time>
      </trkpt>
      <trkpt lat="44.52164" lon="6.00211">
        <ele>1063</ele>
        <time>2020-05-12T09:55:42Z</time>
      </trkpt>
      <trkpt lat="44.5219" lon="6.00246">
        <ele>1061</ele>
        <time>2020-05-12T09:55:47Z</time>
      </trkpt>
      <trkpt lat="44.52231" lon="6.00297">
        <ele>1058</ele>
        <time>2020-05-12T09:55:53Z</time>
      </trkpt>
      <trkpt lat="44.52266" lon="6.00342">
        <ele>1055</ele>
        <time>2020-05-12T09:55:58Z</time>
      </trkpt>
      <trkpt lat="44.52302" lon="6.00381">
        <ele>1051</ele>
        <time>2020-05-12T09:56:03Z</time>
      </trkpt>
      <trkpt lat="44.52352" lon="6.00443">
        <ele>1046</ele>
        <time>2020-05-12T09:56:09Z</time>
      </trkpt>
      <trkpt lat="44.52387" lon="6.00507">
        <ele>1045</ele>
        <time>2020-05-12T09:56:14Z</time>
      </trkpt>
      <trkpt lat="44.52397" lon="6.0056">
        <ele>1040</ele>
        <time>2020-05-12T09:56:20Z</time>
      </trkpt>
      <trkpt lat="44.52364" lon="6.00599">
        <ele>1029</ele>
        <time>2020-05-12T09:56:25Z</time>
      </trkpt>
      <trkpt lat="44.52328" lon="6.0066">
        <ele>1024</ele>
        <time>2020-05-12T09:56:31Z</time>
      </trkpt>
      <trkpt lat="44.52317" lon="6.007">
        <ele>1021</ele>
        <time>2020-05-12T09:56:37Z</time>
      </trkpt>
      <trkpt lat="44.52316" lon="6.00702">
        <ele>1021</ele>
        <time>2020-05-12T09:56:43Z</time>
      </trkpt>
      <trkpt lat="44.52316" lon="6.00702">
        <ele>1019</ele>
        <time>2020-05-12T09:56:49Z</time>
      </trkpt>
      <trkpt lat="44.52315" lon="6.00701">
        <ele>1021</ele>
        <time>2020-05-12T09:56:55Z</time>
      </trkpt>
      <trkpt lat="44.52314" lon="6.00701">
        <ele>1020</ele>
        <time>2020-05-12T09:57:01Z</time>
      </trkpt>
      <trkpt lat="44.52314" lon="6.00701">
        <ele>1021</ele>
        <time>2020-05-12T09:57:06Z</time>
      </trkpt>
      <trkpt lat="44.52314" lon="6.00701">
        <ele>1021</ele>
        <time>2020-05-12T09:57:12Z</time>
      </trkpt>
      <trkpt lat="44.52314" lon="6.00701">
        <ele>1021</ele>
        <time>2020-05-12T09:57:17Z</time>
      </trkpt>
      <trkpt lat="44.52314" lon="6.00701">
        <ele>1021</ele>
        <time>2020-05-12T09:57:22Z</time>
      </trkpt>
      <trkpt lat="44.52314" lon="6.00701">
        <ele>1021</ele>
        <time>2020-05-12T09:57:28Z</time>
      </trkpt>
      <trkpt lat="44.52315" lon="6.00699">
        <ele>1019</ele>
        <time>2020-05-12T09:57:34Z</time>
      </trkpt>
      <trkpt lat="44.52315" lon="6.00701">
        <ele>1017</ele>
        <time>2020-05-12T09:57:40Z</time>
      </trkpt>
    </trkseg>
  </trk>
</gpx>